[[{"header":{"parameterUnit":"m.s-1","parameterCategory":1,"la1":31.0,"la2":29.5877,"lo1":-88.7671,"lo2":-86.6584,"dy":0.0162,"dx":0.0185,"nx":115,"ny":88,"refTime":"2024-06-27T06:00:00:Z","depth":0,"parameterNumber":2,"parameterNumberName":"U-component_of_WINDS"},"data":[0.0,0.0,0.0,0.0,0.0,0.0,0.0,0.0,0.0,0.0,0.0,0.0,0.0,0.0,0.0,0.0,0.0,0.0,0.0,0.0,0.0,0.0,0.0,0.0,0.0,0.0,0.0,0.0,0.0,0.0,0.0,0.0,0.0,0.0,0.0,0.0,0.0,0.0,0.0,0.0,0.0,0.0,0.0,0.0,0.0,0.0,0.0,0.0,0.0,0.0,0.0,0.0,0.0,0.0,0.0,0.0,0.0,0.0,0.0,0.0,0.0,0.0,0.0,0.0,0.0,0.0,0.0,0.0,0.0,0.0,0.0,0.0,0.0,0.0,0.0,0.0,0.0,0.0,0.0,0.0,0.0,0.0,0.0,0.0,0.0,0.0,0.0,0.0,0.0,0.0,0.0,0.0,0.0,0.0,0.0,0.0,0.0,0.0,0.0,0.0,0.0,0.0,0.0,0.0,0.0,0.0,0.0,0.0,0.0,0.0,0.0,0.0,0.0,0.0,0.0,0.0,0.0,0.0,0.0,0.0,0.0,0.0,0.0,0.0,0.0,0.0,0.0,0.0,0.0,0.0,0.0,0.0,0.0,0.0,0.0,0.0,0.0,0.0,0.0,0.0,0.0,0.0,0.0,0.0,0.0,0.0,0.0,0.0,0.0,0.0,0.0,0.0,0.0,0.0,0.0,0.0,0.0,0.0,0.0,0.0,0.0,0.0,0.0,0.0,0.0,0.0,0.0,0.0,0.0,0.0,0.0,0.0,0.0,0.0,0.0,0.0,0.0,0.0,0.0,0.0,0.0,0.0,0.0,0.0,0.0,0.0,0.0,0.0,0.0,0.0,0.0,0.0,0.0,0.0,0.0,0.0,0.0,0.0,0.0,0.0,0.0,0.0,0.0,0.0,0.0,0.0,0.0,0.0,0.0,0.0,0.0,0.0,0.0,0.0,0.0,0.0,0.0,0.0,0.0,0.0,0.0,0.0,0.0,0.0,0.0,0.0,0.0,0.0,0.0,0.0,0.0,0.0,0.0,0.0,0.0,0.0,0.0,0.0,0.0,0.0,0.0,0.0,0.0,0.0,0.0,0.0,0.0,0.0,0.0,0.0,0.0,0.0,0.0,0.0,0.0,0.0,0.0,0.0,0.0,0.0,0.0,0.0,0.0,0.0,0.0,0.0,0.0,0.0,0.0,0.0,0.0,0.0,0.0,0.0,0.0,0.0,0.0,0.0,0.0,0.0,0.0,0.0,0.0,0.0,0.0,0.0,0.0,0.0,0.0,0.0,0.0,0.0,0.0,0.0,0.0,0.0,0.0,0.0,0.0,0.0,0.0,0.0,0.0,0.0,0.0,0.0,0.0,0.0,0.0,0.0,0.0,0.0,0.0,0.0,0.0,0.0,0.0,0.0,0.0,0.0,0.0,0.0,0.0,0.0,0.0,0.0,0.0,0.0,0.0,0.0,0.0,0.0,0.0,0.0,0.0,0.0,0.0,0.0,0.0,0.0,0.0,0.0,0.0,0.0,0.0,0.0,0.0,0.0,0.0,0.0,0.0,0.0,0.0,0.0,0.0,0.0,0.0,0.0,0.0,0.0,0.0,0.0,0.0,0.0,0.0,0.0,0.0,0.0,0.0,0.0,0.0,0.0,0.0,0.0,0.0,0.0,0.0,0.0,0.0,0.0,0.0,0.0,0.0,0.0,0.0,0.0,0.0,0.0,0.0,0.0,0.0,0.0,0.0,0.0,0.0,0.0,0.0,0.0,0.0,0.0,0.0,0.0,0.0,0.0,0.0,0.0,0.0,0.0,0.0,0.0,0.0,0.0,0.0,0.0,0.0,0.0,0.0,0.0,0.0,0.0,0.0,0.0,0.0,0.0,0.0,0.0,0.0,0.0,0.0,0.0,0.0,0.0,0.0,0.0,0.0,0.0,0.0,0.0,0.0,0.0,0.0,0.0,0.0,0.0,0.0,0.0,0.0,0.0,0.0,0.0,0.0,0.0,0.0,0.0,0.0,0.0,0.0,0.0,0.0,0.0,0.0,0.0,0.0,0.0,0.0,0.0,0.0,0.0,0.0,0.0,0.0,0.0,0.0,0.0,0.0,0.0,0.0,0.0,0.0,0.0,0.0,0.0,0.0,0.0,0.0,0.0,0.0,0.0,0.0,0.0,0.0,0.0,0.0,0.0,0.0,0.0,0.0,0.0,0.0,0.0,0.0,0.0,0.0,0.0,0.0,0.0,0.0,0.0,0.0,0.0,0.0,0.0,0.0,0.0,0.0,0.0,0.0,0.0,0.0,0.0,0.0,0.0,0.0,0.0,0.0,0.0,0.0,0.0,0.0,0.0,0.0,0.0,0.0,0.0,0.0,0.0,0.0,0.0,0.0,0.0,0.0,0.0,0.0,0.0,0.0,0.0,0.0,0.0,0.0,0.0,0.0,0.0,0.0,0.0,0.0,0.0,0.0,0.0,0.0,0.0,0.0,0.0,0.0,0.0,0.0,0.0,0.0,0.0,0.0,0.0,0.0,0.0,0.0,0.0,0.0,0.0,0.0,0.0,0.0,0.0,0.0,0.0,0.0,0.0,0.0,0.0,0.0,0.0,0.0,0.0,0.0,0.0,0.0,0.0,0.0,0.0,0.0,0.0,0.0,0.0,0.0,0.0,0.0,0.0,0.0,0.0,0.0,0.0,0.0,0.0,0.0,0.0,0.0,0.0,0.0,0.0,0.0,0.0,0.0,0.0,0.0,0.0,0.0,0.0,0.0,0.0,0.0,0.0,0.0,0.0,0.0,0.0,0.0,0.0,0.0,0.0,0.0,0.0,0.0,0.0,0.0,0.0,0.0,0.0,0.0,0.0,0.0,0.0,0.0,0.0,0.0,0.0,0.0,0.0,0.0,0.0,0.0,0.0,0.0,0.0,0.0,0.0,0.0,0.0,0.0,0.0,0.0,0.0,0.0,0.0,0.0,0.0,0.0,0.0,0.0,0.0,0.0,0.0,0.0,0.0,0.0,0.0,0.0,0.0,0.0,0.0,0.0,0.0,0.0,0.0,0.0,0.0,0.0,0.0,0.0,0.0,0.0,0.0,0.0,0.0,0.0,0.0,0.0,0.0,0.0,0.0,0.0,0.0,0.0,0.0,0.0,0.0,0.0,0.0,0.0,0.0,0.0,0.0,0.0,0.0,0.0,0.0,0.0,0.0,0.0,0.0,0.0,0.0,0.0,0.0,0.0,0.0,0.0,0.0,0.0,0.0,0.0,0.0,0.0,0.0,0.0,0.0,0.0,0.0,0.0,0.0,0.0,0.0,0.0,0.0,0.0,0.0,0.0,0.0,0.0,0.0,0.0,0.0,0.0,0.0,0.0,0.0,0.0,0.0,0.0,0.0,0.0,0.0,0.0,0.0,0.0,0.0,0.0,0.0,0.0,0.0,0.0,0.0,0.0,0.0,0.0,0.0,0.0,0.0,0.0,0.0,0.0,0.0,0.0,0.0,0.0,0.0,0.0,0.0,0.0,0.0,0.0,0.0,0.0,0.0,0.0,0.0,0.0,0.0,0.0,0.0,0.0,0.0,0.0,0.0,0.0,0.0,0.0,0.0,0.0,0.0,0.0,0.0,0.0,0.0,0.0,0.0,0.0,0.0,0.0,0.0,0.0,0.0,0.0,0.0,0.0,0.0,0.0,0.0,0.0,0.0,0.0,0.0,0.0,0.0,0.0,0.0,0.0,0.0,0.0,0.0,0.0,0.0,0.0,0.0,0.0,0.0,0.0,0.0,0.0,0.0,0.0,0.0,0.0,0.0,0.0,0.0,0.0,0.0,0.0,0.0,0.0,0.0,0.0,0.0,0.0,0.0,0.0,0.0,0.0,0.0,0.0,0.0,0.0,0.0,0.0,0.0,0.0,0.0,0.0,0.0,0.0,0.0,0.0,0.0,0.0,0.0,0.0,0.0,0.0,0.0,0.0,0.0,0.0,0.0,0.0,0.0,0.0,0.0,0.0,0.0,0.0,0.0,0.0,0.0,0.0,0.0,0.0,0.0,0.0,0.0,0.0,0.0,0.0,0.0,0.0,0.0,0.0,0.0,0.0,0.0,0.0,0.0,0.0,0.0,0.0,0.0,0.0,0.0,0.0,0.0,0.0,0.0,0.0,0.0,0.0,0.0,0.0,0.0,0.0,0.0,0.0,0.0,0.0,0.0,0.0,0.0,0.0,0.0,0.0,0.0,0.0,0.0,0.0,0.0,0.0,0.0,0.0,0.0,0.0,0.0,-2.738,0.0,0.0,0.0,0.0,0.0,0.0,0.0,0.0,0.0,0.0,0.0,0.0,0.0,0.0,0.0,0.0,0.0,0.0,0.0,0.0,0.0,0.0,0.0,0.0,0.0,0.0,0.0,0.0,0.0,0.0,0.0,0.0,0.0,0.0,0.0,0.0,0.0,0.0,0.0,0.0,0.0,0.0,0.0,0.0,0.0,0.0,0.0,0.0,0.0,0.0,0.0,0.0,0.0,0.0,0.0,0.0,0.0,0.0,0.0,0.0,0.0,0.0,0.0,0.0,0.0,0.0,0.0,0.0,0.0,0.0,0.0,0.0,0.0,0.0,0.0,0.0,0.0,0.0,0.0,0.0,0.0,0.0,0.0,0.0,0.0,0.0,0.0,0.0,0.0,0.0,0.0,0.0,0.0,0.0,0.0,0.0,0.0,0.0,0.0,0.0,0.0,0.0,0.0,0.0,0.0,0.0,0.0,0.0,0.0,0.0,-3.1014,-3.0617,-3.0617,-2.9639,-2.7589,0.0,0.0,0.0,0.0,0.0,0.0,0.0,0.0,0.0,0.0,0.0,0.0,0.0,0.0,0.0,0.0,0.0,0.0,0.0,0.0,0.0,0.0,0.0,0.0,0.0,0.0,0.0,0.0,0.0,0.0,0.0,0.0,0.0,0.0,0.0,0.0,0.0,0.0,0.0,0.0,0.0,0.0,0.0,0.0,0.0,0.0,0.0,0.0,0.0,0.0,0.0,0.0,0.0,0.0,0.0,0.0,0.0,0.0,0.0,0.0,0.0,0.0,0.0,0.0,0.0,0.0,0.0,0.0,0.0,0.0,0.0,0.0,0.0,0.0,0.0,0.0,0.0,0.0,0.0,0.0,0.0,0.0,0.0,0.0,0.0,0.0,0.0,0.0,0.0,0.0,0.0,0.0,0.0,0.0,0.0,0.0,0.0,0.0,0.0,0.0,0.0,0.0,0.0,0.0,0.0,0.0,0.0,0.0,0.0,0.0,0.0,0.0,-3.1848,-3.0812,-2.8188,0.0,0.0,0.0,0.0,0.0,0.0,0.0,0.0,0.0,0.0,0.0,0.0,0.0,0.0,0.0,0.0,0.0,0.0,0.0,0.0,0.0,0.0,0.0,0.0,0.0,0.0,0.0,0.0,0.0,0.0,0.0,0.0,0.0,0.0,0.0,0.0,0.0,0.0,0.0,0.0,0.0,0.0,0.0,0.0,0.0,0.0,0.0,0.0,0.0,0.0,0.0,0.0,0.0,0.0,0.0,0.0,0.0,0.0,0.0,0.0,0.0,0.0,0.0,0.0,0.0,0.0,0.0,0.0,0.0,0.0,0.0,0.0,0.0,0.0,0.0,0.0,0.0,0.0,0.0,0.0,0.0,0.0,0.0,0.0,0.0,0.0,0.0,0.0,0.0,0.0,0.0,0.0,0.0,0.0,0.0,0.0,0.0,0.0,0.0,0.0,0.0,0.0,0.0,0.0,0.0,0.0,0.0,0.0,0.0,0.0,-3.2284,-3.233,-3.3733,0.0,-3.0064,0.0,0.0,0.0,0.0,0.0,0.0,0.0,0.0,0.0,0.0,0.0,0.0,0.0,0.0,0.0,0.0,0.0,0.0,0.0,0.0,0.0,0.0,0.0,0.0,0.0,0.0,0.0,0.0,0.0,0.0,0.0,0.0,0.0,0.0,0.0,0.0,0.0,0.0,0.0,0.0,0.0,0.0,0.0,0.0,0.0,0.0,0.0,0.0,0.0,0.0,0.0,0.0,0.0,0.0,0.0,0.0,0.0,0.0,0.0,0.0,0.0,0.0,0.0,0.0,0.0,0.0,0.0,0.0,0.0,0.0,0.0,0.0,0.0,0.0,0.0,0.0,0.0,0.0,0.0,0.0,0.0,0.0,0.0,0.0,0.0,0.0,0.0,0.0,0.0,0.0,0.0,0.0,0.0,0.0,0.0,0.0,0.0,0.0,0.0,0.0,0.0,0.0,0.0,0.0,0.0,0.0,0.0,0.0,0.0,0.0,-3.3392,-3.3866,-3.2695,-3.1442,0.0,0.0,0.0,0.0,0.0,0.0,0.0,0.0,0.0,0.0,0.0,0.0,0.0,0.0,0.0,0.0,0.0,0.0,0.0,0.0,0.0,0.0,0.0,0.0,0.0,0.0,0.0,0.0,0.0,0.0,0.0,0.0,0.0,0.0,0.0,0.0,0.0,0.0,0.0,0.0,0.0,0.0,0.0,0.0,0.0,0.0,0.0,0.0,0.0,0.0,0.0,0.0,0.0,0.0,0.0,0.0,0.0,0.0,0.0,0.0,0.0,0.0,0.0,0.0,0.0,0.0,0.0,0.0,0.0,0.0,0.0,0.0,0.0,0.0,0.0,0.0,0.0,0.0,0.0,0.0,0.0,0.0,0.0,0.0,0.0,0.0,0.0,0.0,0.0,0.0,0.0,0.0,0.0,0.0,0.0,0.0,0.0,0.0,0.0,0.0,0.0,0.0,0.0,0.0,0.0,0.0,0.0,0.0,0.0,0.0,-3.3486,-3.4206,-3.5078,-3.2363,-3.0612,-3.0185,0.0,0.0,0.0,0.0,0.0,0.0,0.0,0.0,0.0,0.0,0.0,0.0,0.0,0.0,0.0,0.0,0.0,0.0,0.0,0.0,0.0,0.0,0.0,0.0,0.0,0.0,0.0,0.0,0.0,0.0,0.0,0.0,0.0,0.0,0.0,0.0,0.0,0.0,0.0,0.0,0.0,0.0,0.0,0.0,0.0,0.0,0.0,0.0,0.0,0.0,0.0,0.0,0.0,0.0,0.0,0.0,0.0,0.0,0.0,0.0,0.0,0.0,0.0,0.0,0.0,0.0,0.0,0.0,0.0,0.0,0.0,0.0,0.0,0.0,0.0,0.0,0.0,0.0,0.0,0.0,0.0,0.0,0.0,0.0,0.0,0.0,0.0,0.0,0.0,0.0,0.0,0.0,0.0,0.0,0.0,0.0,0.0,0.0,0.0,0.0,0.0,0.0,0.0,0.0,0.0,0.0,0.0,0.0,-3.4567,-3.4093,-3.4518,-3.6147,-3.38,-3.1831,0.0,0.0,0.0,0.0,0.0,0.0,0.0,0.0,0.0,0.0,0.0,0.0,0.0,0.0,0.0,0.0,0.0,0.0,0.0,0.0,0.0,0.0,0.0,0.0,0.0,0.0,0.0,0.0,0.0,0.0,0.0,0.0,0.0,0.0,0.0,0.0,0.0,0.0,0.0,0.0,0.0,0.0,0.0,0.0,0.0,0.0,0.0,0.0,0.0,0.0,0.0,0.0,0.0,0.0,0.0,0.0,0.0,0.0,0.0,0.0,0.0,0.0,0.0,0.0,0.0,0.0,0.0,0.0,0.0,0.0,0.0,0.0,0.0,0.0,0.0,0.0,0.0,0.0,0.0,0.0,0.0,0.0,0.0,0.0,0.0,0.0,0.0,0.0,0.0,0.0,0.0,0.0,0.0,0.0,0.0,0.0,0.0,0.0,0.0,0.0,0.0,0.0,0.0,0.0,0.0,0.0,0.0,0.0,0.0,-3.3221,-3.4605,-3.6169,-3.7808,-3.4052,-3.1948,0.0,0.0,0.0,0.0,0.0,0.0,0.0,0.0,0.0,0.0,0.0,0.0,0.0,0.0,0.0,0.0,0.0,0.0,0.0,0.0,0.0,0.0,0.0,0.0,0.0,0.0,0.0,0.0,0.0,0.0,0.0,0.0,0.0,0.0,0.0,0.0,0.0,0.0,0.0,0.0,0.0,0.0,0.0,0.0,0.0,0.0,0.0,0.0,0.0,0.0,0.0,0.0,0.0,0.0,0.0,0.0,0.0,0.0,0.0,0.0,0.0,0.0,0.0,0.0,0.0,0.0,0.0,0.0,0.0,0.0,0.0,0.0,0.0,0.0,0.0,0.0,0.0,0.0,0.0,0.0,0.0,0.0,0.0,0.0,0.0,0.0,0.0,0.0,0.0,0.0,0.0,0.0,0.0,0.0,0.0,0.0,0.0,0.0,0.0,0.0,0.0,0.0,0.0,0.0,0.0,0.0,0.0,0.0,0.0,-3.321,0.0,-3.7086,-3.7625,-3.4033,-3.1811,0.0,0.0,0.0,0.0,0.0,0.0,0.0,0.0,0.0,0.0,0.0,0.0,0.0,0.0,0.0,0.0,0.0,0.0,0.0,0.0,0.0,0.0,0.0,0.0,0.0,0.0,0.0,0.0,0.0,0.0,0.0,0.0,0.0,0.0,0.0,0.0,0.0,0.0,0.0,0.0,0.0,0.0,0.0,0.0,0.0,0.0,0.0,0.0,0.0,0.0,0.0,0.0,0.0,0.0,0.0,0.0,0.0,0.0,0.0,0.0,0.0,0.0,0.0,0.0,0.0,0.0,0.0,0.0,0.0,0.0,0.0,0.0,0.0,0.0,0.0,0.0,0.0,0.0,0.0,0.0,0.0,0.0,0.0,0.0,0.0,0.0,0.0,0.0,0.0,0.0,0.0,0.0,0.0,0.0,0.0,0.0,0.0,0.0,0.0,0.0,0.0,0.0,0.0,0.0,0.0,0.0,0.0,0.0,-3.1655,-3.4859,-3.6791,-3.7076,-3.5407,-3.3876,-3.1516,0.0,0.0,0.0,0.0,0.0,0.0,0.0,0.0,0.0,0.0,0.0,0.0,0.0,0.0,0.0,0.0,0.0,0.0,0.0,0.0,0.0,0.0,0.0,0.0,0.0,0.0,0.0,0.0,0.0,0.0,0.0,0.0,0.0,0.0,0.0,0.0,0.0,0.0,0.0,0.0,0.0,0.0,0.0,0.0,0.0,0.0,0.0,0.0,0.0,0.0,0.0,0.0,0.0,0.0,0.0,0.0,0.0,0.0,0.0,0.0,0.0,0.0,0.0,0.0,0.0,0.0,0.0,0.0,0.0,0.0,0.0,0.0,0.0,0.0,0.0,0.0,0.0,0.0,0.0,0.0,0.0,0.0,0.0,0.0,0.0,0.0,0.0,0.0,0.0,0.0,0.0,0.0,0.0,0.0,0.0,0.0,0.0,0.0,0.0,0.0,0.0,0.0,0.0,0.0,0.0,0.0,0.0,0.0,0.0,-3.4936,-3.6801,-3.7874,-3.7872,-3.4747,-3.2879,0.0,0.0,0.0,0.0,0.0,0.0,0.0,0.0,0.0,0.0,0.0,0.0,0.0,0.0,0.0,0.0,0.0,0.0,0.0,0.0,0.0,0.0,0.0,0.0,0.0,0.0,0.0,0.0,0.0,0.0,0.0,0.0,0.0,0.0,0.0,0.0,0.0,0.0,0.0,0.0,0.0,0.0,0.0,0.0,0.0,0.0,0.0,0.0,0.0,0.0,0.0,0.0,0.0,0.0,0.0,0.0,0.0,0.0,0.0,0.0,0.0,0.0,0.0,0.0,0.0,0.0,0.0,0.0,0.0,0.0,0.0,0.0,0.0,0.0,0.0,0.0,0.0,0.0,0.0,0.0,0.0,0.0,0.0,0.0,0.0,0.0,0.0,0.0,0.0,0.0,0.0,0.0,0.0,0.0,0.0,0.0,0.0,0.0,0.0,0.0,0.0,0.0,0.0,0.0,0.0,0.0,0.0,0.0,0.0,-3.6498,-3.8039,-3.8689,-3.8349,-3.5227,-3.3412,-3.307,0.0,0.0,0.0,0.0,0.0,0.0,0.0,0.0,0.0,0.0,0.0,0.0,0.0,0.0,0.0,0.0,0.0,0.0,0.0,0.0,0.0,0.0,0.0,0.0,0.0,0.0,0.0,0.0,0.0,0.0,0.0,0.0,0.0,0.0,0.0,0.0,0.0,0.0,0.0,0.0,0.0,0.0,0.0,0.0,0.0,0.0,0.0,0.0,0.0,0.0,0.0,0.0,0.0,0.0,0.0,0.0,0.0,0.0,0.0,0.0,0.0,0.0,0.0,0.0,0.0,0.0,0.0,0.0,0.0,0.0,0.0,0.0,0.0,0.0,0.0,0.0,0.0,0.0,0.0,0.0,0.0,0.0,0.0,0.0,0.0,0.0,0.0,0.0,0.0,0.0,0.0,0.0,0.0,0.0,0.0,0.0,0.0,0.0,0.0,0.0,0.0,0.0,0.0,0.0,0.0,0.0,0.0,0.0,-3.8991,-4.0126,-3.9569,-3.7254,-3.5553,-3.3483,0.0,0.0,0.0,0.0,0.0,0.0,0.0,0.0,0.0,0.0,0.0,0.0,0.0,0.0,0.0,0.0,0.0,0.0,0.0,0.0,0.0,0.0,0.0,0.0,0.0,0.0,0.0,0.0,0.0,0.0,0.0,0.0,0.0,0.0,0.0,0.0,0.0,0.0,0.0,0.0,0.0,0.0,0.0,0.0,0.0,0.0,0.0,0.0,0.0,0.0,0.0,0.0,0.0,0.0,0.0,0.0,0.0,0.0,0.0,0.0,0.0,0.0,0.0,0.0,0.0,0.0,0.0,0.0,0.0,0.0,0.0,0.0,0.0,0.0,0.0,0.0,0.0,0.0,0.0,0.0,0.0,0.0,0.0,0.0,0.0,0.0,0.0,0.0,0.0,0.0,0.0,0.0,0.0,0.0,0.0,0.0,0.0,0.0,0.0,0.0,0.0,0.0,0.0,0.0,0.0,0.0,0.0,0.0,0.0,-3.9192,-4.0289,-4.0514,-3.9757,-3.7616,-3.5827,0.0,0.0,0.0,0.0,0.0,0.0,0.0,0.0,0.0,0.0,0.0,0.0,0.0,0.0,0.0,0.0,0.0,0.0,0.0,0.0,0.0,0.0,0.0,0.0,0.0,0.0,0.0,0.0,0.0,0.0,0.0,0.0,0.0,0.0,0.0,0.0,0.0,0.0,0.0,0.0,0.0,0.0,0.0,0.0,0.0,0.0,0.0,0.0,0.0,0.0,0.0,0.0,0.0,0.0,0.0,0.0,0.0,0.0,0.0,0.0,0.0,0.0,0.0,0.0,0.0,0.0,0.0,0.0,0.0,0.0,0.0,0.0,0.0,0.0,0.0,0.0,0.0,0.0,0.0,0.0,0.0,0.0,0.0,0.0,0.0,0.0,0.0,0.0,0.0,0.0,0.0,0.0,0.0,0.0,0.0,0.0,0.0,0.0,0.0,0.0,0.0,0.0,0.0,0.0,0.0,0.0,0.0,0.0,-3.8896,-3.996,-4.0621,-4.098,-4.0932,-3.8789,-3.6892,0.0,0.0,0.0,0.0,0.0,0.0,0.0,0.0,0.0,0.0,0.0,0.0,0.0,0.0,0.0,0.0,0.0,0.0,0.0,0.0,0.0,0.0,0.0,0.0,0.0,0.0,0.0,0.0,0.0,0.0,0.0,0.0,0.0,0.0,0.0,0.0,0.0,0.0,0.0,0.0,0.0,0.0,0.0,0.0,0.0,0.0,0.0,0.0,0.0,0.0,0.0,0.0,0.0,0.0,0.0,0.0,0.0,0.0,0.0,0.0,0.0,0.0,0.0,0.0,0.0,0.0,0.0,0.0,0.0,0.0,0.0,0.0,0.0,0.0,0.0,0.0,0.0,0.0,0.0,0.0,0.0,0.0,0.0,0.0,0.0,0.0,0.0,0.0,0.0,0.0,0.0,0.0,0.0,0.0,0.0,0.0,0.0,0.0,0.0,0.0,0.0,0.0,0.0,0.0,0.0,0.0,0.0,0.0,-3.9776,-4.0864,-4.1034,-4.1107,-4.1068,-3.9448,-3.7354,0.0,0.0,0.0,0.0,0.0,0.0,0.0,0.0,0.0,0.0,0.0,0.0,0.0,0.0,0.0,0.0,0.0,0.0,0.0,0.0,0.0,0.0,0.0,0.0,0.0,0.0,0.0,0.0,0.0,0.0,0.0,0.0,0.0,0.0,0.0,0.0,0.0,0.0,0.0,0.0,0.0,0.0,0.0,0.0,0.0,0.0,0.0,0.0,0.0,0.0,0.0,0.0,0.0,0.0,0.0,0.0,0.0,0.0,0.0,0.0,0.0,0.0,0.0,0.0,0.0,0.0,0.0,0.0,0.0,0.0,0.0,0.0,0.0,0.0,0.0,0.0,0.0,0.0,0.0,0.0,0.0,0.0,0.0,0.0,0.0,0.0,0.0,0.0,0.0,0.0,0.0,0.0,0.0,0.0,0.0,0.0,0.0,0.0,0.0,0.0,0.0,0.0,0.0,0.0,0.0,0.0,0.0,0.0,-3.9898,-4.0849,-4.1034,-4.1107,-4.1088,-4.0009,-3.8537,0.0,0.0,0.0,0.0,0.0,0.0,0.0,0.0,0.0,0.0,0.0,0.0,0.0,0.0,0.0,0.0,0.0,0.0,0.0,0.0,0.0,0.0,0.0,0.0,0.0,0.0,0.0,0.0,0.0,0.0,0.0,0.0,0.0,0.0,0.0,0.0,0.0,0.0,0.0,0.0,0.0,0.0,0.0,0.0,0.0,0.0,0.0,0.0,-3.8495,0.0,0.0,0.0,0.0,0.0,0.0,0.0,0.0,0.0,0.0,0.0,0.0,0.0,0.0,0.0,0.0,0.0,0.0,0.0,0.0,0.0,0.0,0.0,0.0,0.0,0.0,0.0,0.0,0.0,0.0,0.0,0.0,0.0,0.0,0.0,0.0,0.0,0.0,0.0,0.0,0.0,0.0,0.0,0.0,0.0,0.0,0.0,0.0,0.0,0.0,0.0,0.0,0.0,0.0,0.0,0.0,0.0,0.0,0.0,-4.0412,-4.0972,-4.1071,-4.1107,-4.1088,-4.0607,-3.933,0.0,0.0,0.0,0.0,0.0,0.0,0.0,0.0,0.0,0.0,0.0,0.0,0.0,0.0,0.0,0.0,0.0,0.0,0.0,0.0,0.0,0.0,0.0,0.0,0.0,0.0,0.0,0.0,0.0,0.0,0.0,0.0,0.0,0.0,0.0,0.0,0.0,0.0,0.0,0.0,0.0,0.0,0.0,0.0,0.0,0.0,0.0,0.0,0.0,0.0,0.0,0.0,0.0,0.0,0.0,0.0,0.0,0.0,0.0,0.0,0.0,0.0,0.0,0.0,0.0,0.0,0.0,0.0,0.0,0.0,0.0,0.0,0.0,0.0,0.0,0.0,0.0,0.0,0.0,0.0,0.0,0.0,0.0,0.0,0.0,0.0,0.0,0.0,0.0,0.0,0.0,0.0,0.0,0.0,0.0,0.0,0.0,0.0,0.0,0.0,0.0,0.0,0.0,0.0,0.0,0.0,0.0,-3.9799,-4.0788,-4.1085,-4.1107,-4.1107,-4.1107,-4.0971,-3.9779,-3.7393,0.0,0.0,0.0,0.0,0.0,0.0,0.0,0.0,0.0,0.0,0.0,0.0,0.0,0.0,0.0,0.0,0.0,0.0,0.0,0.0,0.0,0.0,0.0,0.0,0.0,0.0,0.0,0.0,0.0,0.0,0.0,0.0,0.0,0.0,0.0,0.0,0.0,0.0,-3.7062,-3.8779,0.0,0.0,0.0,0.0,0.0,0.0,0.0,0.0,-3.9954,0.0,0.0,0.0,0.0,0.0,0.0,0.0,0.0,0.0,0.0,0.0,0.0,0.0,0.0,0.0,0.0,0.0,0.0,0.0,0.0,0.0,0.0,0.0,0.0,0.0,0.0,0.0,0.0,0.0,0.0,0.0,0.0,0.0,0.0,0.0,0.0,0.0,0.0,0.0,0.0,0.0,0.0,0.0,0.0,0.0,0.0,0.0,0.0,0.0,0.0,0.0,0.0,0.0,0.0,0.0,0.0,-3.9065,-3.9607,-4.0271,-4.1068,-4.1107,-4.1107,-4.1088,-4.039,-3.9439,-3.8213,0.0,0.0,0.0,0.0,0.0,0.0,0.0,0.0,0.0,0.0,0.0,0.0,0.0,0.0,0.0,0.0,0.0,0.0,0.0,0.0,0.0,0.0,0.0,0.0,0.0,0.0,0.0,0.0,0.0,0.0,0.0,0.0,0.0,0.0,0.0,0.0,0.0,0.0,0.0,-3.9283,-3.99,0.0,0.0,0.0,0.0,0.0,0.0,0.0,0.0,-3.9996,0.0,0.0,0.0,0.0,0.0,0.0,0.0,0.0,0.0,0.0,0.0,0.0,0.0,0.0,0.0,0.0,0.0,0.0,0.0,0.0,0.0,0.0,0.0,0.0,0.0,0.0,0.0,0.0,0.0,0.0,0.0,0.0,0.0,0.0,0.0,0.0,0.0,0.0,0.0,0.0,0.0,0.0,0.0,0.0,0.0,0.0,0.0,0.0,0.0,0.0,0.0,0.0,0.0,0.0,0.0,-3.864,-3.9794,-4.0646,-4.1088,-4.1107,-4.1107,-4.1088,-4.025,-3.9147,0.0,0.0,0.0,0.0,0.0,0.0,0.0,0.0,0.0,0.0,0.0,0.0,0.0,0.0,0.0,0.0,0.0,0.0,0.0,0.0,0.0,0.0,0.0,0.0,0.0,0.0,0.0,0.0,0.0,0.0,0.0,0.0,0.0,0.0,0.0,0.0,0.0,0.0,0.0,0.0,-3.981,-4.0466,-4.0011,0.0,0.0,0.0,0.0,0.0,0.0,-4.0027,-4.0057,0.0,0.0,0.0,0.0,0.0,0.0,0.0,0.0,0.0,0.0,0.0,0.0,0.0,0.0,0.0,0.0,0.0,0.0,0.0,0.0,0.0,0.0,0.0,0.0,0.0,0.0,0.0,0.0,0.0,0.0,0.0,0.0,0.0,0.0,0.0,0.0,0.0,0.0,0.0,0.0,0.0,0.0,0.0,0.0,0.0,0.0,0.0,0.0,0.0,0.0,0.0,0.0,0.0,0.0,0.0,-3.8048,-3.9842,-4.0909,-4.1088,-4.1107,-4.1107,-4.1088,-4.0097,-3.878,0.0,0.0,0.0,0.0,0.0,0.0,0.0,0.0,0.0,0.0,0.0,0.0,0.0,0.0,0.0,0.0,0.0,0.0,0.0,0.0,0.0,0.0,0.0,0.0,0.0,0.0,0.0,0.0,0.0,0.0,0.0,0.0,0.0,0.0,0.0,0.0,0.0,0.0,0.0,0.0,0.0,-4.1231,-4.0395,-4.0984,0.0,0.0,0.0,0.0,-4.0065,-4.0221,0.0,0.0,0.0,0.0,0.0,0.0,0.0,0.0,0.0,0.0,0.0,0.0,0.0,0.0,0.0,0.0,0.0,0.0,0.0,0.0,0.0,0.0,0.0,0.0,0.0,0.0,0.0,0.0,0.0,0.0,0.0,0.0,0.0,0.0,0.0,0.0,0.0,0.0,0.0,0.0,0.0,0.0,0.0,0.0,0.0,0.0,0.0,0.0,0.0,0.0,0.0,0.0,0.0,0.0,0.0,0.0,-3.7983,-3.9232,-4.0263,-4.1049,-4.1107,-4.1107,-4.1088,-3.9513,-3.8185,0.0,0.0,0.0,0.0,0.0,0.0,0.0,0.0,0.0,0.0,0.0,0.0,0.0,0.0,0.0,0.0,0.0,0.0,0.0,0.0,0.0,0.0,0.0,0.0,0.0,0.0,0.0,0.0,0.0,0.0,0.0,0.0,0.0,0.0,0.0,0.0,0.0,0.0,0.0,0.0,0.0,-4.2066,-4.125,-4.1857,-4.2088,0.0,0.0,-4.0983,-4.0291,-4.0767,0.0,0.0,0.0,0.0,0.0,0.0,0.0,0.0,0.0,0.0,0.0,0.0,0.0,0.0,0.0,0.0,0.0,0.0,0.0,0.0,0.0,0.0,0.0,0.0,0.0,0.0,0.0,0.0,0.0,0.0,0.0,0.0,0.0,0.0,0.0,0.0,0.0,0.0,0.0,0.0,0.0,0.0,0.0,0.0,0.0,0.0,0.0,0.0,0.0,0.0,0.0,0.0,0.0,0.0,0.0,-3.68,-3.8009,-3.9658,-4.0685,-4.1088,-4.1107,-4.0877,-4.037,-3.9162,-3.7623,0.0,0.0,0.0,0.0,0.0,0.0,0.0,0.0,0.0,0.0,0.0,0.0,0.0,0.0,0.0,0.0,0.0,0.0,0.0,0.0,0.0,0.0,0.0,0.0,0.0,0.0,0.0,0.0,0.0,0.0,0.0,0.0,0.0,0.0,0.0,0.0,0.0,0.0,0.0,0.0,0.0,0.0,-4.1474,-4.2026,0.0,0.0,0.0,-4.0844,-4.0968,0.0,0.0,0.0,0.0,0.0,0.0,0.0,0.0,0.0,0.0,0.0,0.0,0.0,0.0,0.0,0.0,0.0,0.0,0.0,0.0,0.0,0.0,0.0,0.0,0.0,0.0,0.0,0.0,0.0,0.0,0.0,0.0,0.0,0.0,0.0,0.0,0.0,0.0,0.0,0.0,0.0,0.0,0.0,0.0,0.0,0.0,0.0,0.0,0.0,0.0,0.0,0.0,0.0,0.0,0.0,0.0,0.0,-3.7694,-3.9501,-4.0448,-4.0448,-4.0467,-4.0133,-3.9493,-3.8617,0.0,0.0,0.0,0.0,0.0,0.0,0.0,0.0,0.0,0.0,0.0,0.0,0.0,0.0,0.0,0.0,0.0,0.0,0.0,0.0,0.0,0.0,0.0,0.0,0.0,0.0,0.0,-2.7494,0.0,0.0,0.0,0.0,0.0,0.0,0.0,0.0,0.0,0.0,0.0,0.0,0.0,0.0,-4.2163,-4.1765,-4.2051,-4.2472,0.0,0.0,-4.0863,-4.1515,-4.1273,-4.0861,0.0,0.0,0.0,0.0,0.0,0.0,0.0,0.0,0.0,0.0,0.0,0.0,0.0,0.0,0.0,0.0,0.0,0.0,0.0,0.0,0.0,0.0,0.0,0.0,0.0,0.0,0.0,0.0,0.0,0.0,0.0,0.0,0.0,0.0,0.0,0.0,0.0,0.0,0.0,0.0,0.0,0.0,0.0,0.0,0.0,0.0,0.0,0.0,0.0,0.0,0.0,0.0,0.0,0.0,-3.5183,-3.6761,-3.8039,-3.8714,-3.8675,-3.8675,-3.8636,-3.8578,-3.774,-3.6454,0.0,0.0,0.0,0.0,0.0,0.0,0.0,0.0,0.0,0.0,0.0,0.0,0.0,0.0,0.0,0.0,0.0,0.0,0.0,0.0,0.0,0.0,0.0,0.0,0.0,0.0,0.0,0.0,0.0,0.0,0.0,0.0,0.0,0.0,0.0,0.0,0.0,0.0,0.0,0.0,0.0,-4.1765,-4.2503,-4.1969,-4.2056,0.0,-4.2564,-4.1558,-4.1676,-4.1764,-4.1538,-4.0725,0.0,0.0,0.0,0.0,0.0,0.0,0.0,0.0,0.0,0.0,0.0,0.0,0.0,0.0,0.0,0.0,0.0,0.0,0.0,0.0,0.0,0.0,0.0,0.0,0.0,0.0,0.0,0.0,0.0,0.0,0.0,0.0,0.0,0.0,0.0,0.0,0.0,0.0,0.0,0.0,0.0,0.0,0.0,0.0,0.0,0.0,0.0,0.0,0.0,0.0,0.0,0.0,0.0,-3.4795,-3.596,-3.7642,-3.8519,-3.8519,-3.8519,-3.8246,-3.7701,-3.7378,-3.6153,0.0,0.0,0.0,0.0,0.0,0.0,0.0,0.0,0.0,0.0,0.0,0.0,0.0,0.0,0.0,0.0,0.0,0.0,0.0,0.0,0.0,0.0,0.0,0.0,0.0,0.0,0.0,0.0,-3.0966,-3.2312,-3.3657,0.0,0.0,0.0,0.0,0.0,0.0,0.0,0.0,0.0,0.0,-4.1529,-4.1855,-4.1607,0.0,0.0,-4.2748,-4.1993,-4.2543,-4.2352,-4.1845,-4.0939,-4.1087,0.0,0.0,0.0,0.0,0.0,0.0,0.0,0.0,0.0,0.0,0.0,0.0,0.0,0.0,0.0,0.0,0.0,0.0,0.0,0.0,0.0,0.0,0.0,0.0,0.0,0.0,0.0,0.0,0.0,0.0,0.0,0.0,0.0,0.0,0.0,0.0,0.0,0.0,0.0,0.0,0.0,0.0,0.0,0.0,0.0,0.0,0.0,0.0,0.0,0.0,0.0,0.0,-3.4342,-3.5488,-3.6918,-3.768,-3.772,-3.7723,-3.7431,-3.6844,-3.6843,-3.5873,0.0,0.0,0.0,0.0,0.0,0.0,0.0,0.0,0.0,0.0,0.0,0.0,0.0,0.0,0.0,0.0,0.0,0.0,0.0,0.0,0.0,0.0,0.0,0.0,0.0,0.0,0.0,0.0,-3.2842,-3.4245,-3.5657,0.0,0.0,0.0,0.0,0.0,0.0,0.0,0.0,0.0,0.0,-4.113,-4.1398,-4.1407,-4.2017,-4.3708,-4.2951,-4.2475,-4.3346,-4.3186,-4.2684,-4.1791,0.0,0.0,0.0,0.0,0.0,0.0,0.0,0.0,0.0,0.0,0.0,0.0,0.0,0.0,0.0,0.0,0.0,0.0,0.0,0.0,0.0,0.0,0.0,0.0,0.0,0.0,0.0,-2.9934,0.0,0.0,-2.9897,0.0,0.0,0.0,0.0,0.0,0.0,0.0,0.0,0.0,0.0,0.0,0.0,0.0,0.0,0.0,0.0,0.0,0.0,0.0,0.0,0.0,0.0,-3.3711,-3.5446,-3.5718,-3.5857,-3.5983,-3.596,-3.5977,-3.5947,-3.5992,-3.5589,-3.4664,0.0,0.0,0.0,0.0,0.0,0.0,0.0,0.0,0.0,0.0,0.0,0.0,0.0,0.0,0.0,0.0,0.0,0.0,0.0,0.0,0.0,0.0,0.0,0.0,0.0,0.0,-3.2425,-3.3183,-3.4055,0.0,0.0,0.0,0.0,0.0,0.0,0.0,0.0,0.0,0.0,-4.0215,-4.0549,-4.1371,-4.1446,-4.2026,-4.3675,-4.3302,-4.3128,-4.3969,-4.4341,-4.4275,0.0,0.0,0.0,0.0,0.0,0.0,0.0,0.0,0.0,0.0,0.0,0.0,0.0,0.0,0.0,0.0,0.0,0.0,0.0,0.0,0.0,0.0,0.0,0.0,0.0,0.0,0.0,-3.2262,-3.1778,0.0,0.0,0.0,0.0,0.0,0.0,0.0,0.0,0.0,0.0,0.0,-3.3647,-3.5036,0.0,0.0,0.0,0.0,0.0,0.0,0.0,0.0,0.0,0.0,0.0,0.0,-3.3385,-3.4526,-3.5292,-3.5645,-3.5696,-3.5704,-3.5713,-3.576,-3.5837,-3.5222,-3.3865,0.0,0.0,0.0,0.0,0.0,0.0,0.0,0.0,0.0,0.0,0.0,0.0,0.0,0.0,0.0,0.0,0.0,0.0,0.0,0.0,0.0,0.0,0.0,0.0,0.0,-3.4148,0.0,0.0,0.0,0.0,0.0,0.0,0.0,0.0,0.0,0.0,0.0,-4.0347,-4.0911,-4.0568,-4.0578,-4.138,-4.1963,-4.2726,0.0,0.0,0.0,0.0,0.0,0.0,0.0,0.0,0.0,0.0,0.0,0.0,0.0,0.0,-4.7757,-4.4996,-4.3981,-4.3455,-4.3057,0.0,0.0,0.0,0.0,0.0,0.0,0.0,0.0,0.0,0.0,0.0,0.0,0.0,0.0,-3.3799,0.0,-3.3241,0.0,0.0,0.0,0.0,0.0,0.0,0.0,0.0,-3.4971,-3.5488,-3.5031,-3.6723,-3.7061,0.0,-3.6768,-3.6143,0.0,0.0,0.0,0.0,0.0,0.0,0.0,0.0,-3.3678,-3.4565,-3.523,-3.5588,-3.564,-3.565,-3.566,-3.5708,-3.5465,-3.4805,-3.3775,-3.2387,-3.1351,0.0,0.0,0.0,0.0,0.0,0.0,0.0,0.0,0.0,0.0,0.0,0.0,0.0,0.0,0.0,0.0,0.0,0.0,0.0,0.0,0.0,0.0,0.0,-3.502,0.0,0.0,0.0,0.0,0.0,0.0,0.0,0.0,0.0,-4.133,-4.1175,-4.1369,-4.2199,-4.1637,-4.1457,-4.2259,0.0,0.0,0.0,0.0,0.0,0.0,0.0,-4.6261,-4.616,-4.6061,-4.6088,-4.6321,-4.7114,-4.775,-4.7822,0.0,0.0,-4.6766,-4.595,-4.5431,-4.5084,-4.5969,-4.6558,-4.5906,-4.5821,-4.5439,0.0,0.0,0.0,0.0,0.0,0.0,0.0,0.0,-3.4917,-3.4638,0.0,-3.4504,0.0,0.0,0.0,0.0,0.0,-3.3723,0.0,0.0,-3.6032,-3.6779,-3.6904,-3.8507,-3.8892,-3.8219,-3.968,-3.9541,-3.7871,-3.5438,0.0,0.0,0.0,0.0,0.0,0.0,-3.4534,-3.5502,-3.5508,-3.5548,-3.5689,-3.5679,-3.5698,-3.5684,-3.4863,-3.4384,-3.4315,-3.3565,-3.2384,-3.0719,-3.058,0.0,0.0,0.0,0.0,0.0,0.0,0.0,0.0,0.0,0.0,0.0,0.0,0.0,0.0,0.0,0.0,0.0,0.0,0.0,0.0,-3.5185,0.0,0.0,0.0,0.0,0.0,0.0,0.0,0.0,0.0,0.0,-4.1622,-4.2197,-4.3011,-4.3843,0.0,0.0,0.0,0.0,-4.4906,-4.4105,-4.5387,-4.6247,-4.5563,-4.6265,-4.6718,-4.6194,0.0,0.0,-4.7236,-4.78,-4.805,-4.7194,-4.7248,-4.7892,-4.9617,-4.952,-4.9205,-4.8461,-4.8268,-4.8521,-4.8424,-4.7162,-4.6013,-3.8865,0.0,0.0,0.0,0.0,-3.7258,-3.7576,-3.8396,-3.7936,-3.7506,-3.7122,-3.6876,0.0,0.0,0.0,0.0,0.0,0.0,-3.6752,-3.6857,-3.7959,-3.8497,-3.8584,-3.965,-4.0015,-3.9804,-4.0269,-4.025,-3.9704,-3.8431,-3.7122,-3.5851,0.0,0.0,0.0,0.0,-3.5434,-3.6207,-3.5669,-3.539,-3.5496,-3.549,-3.5526,-3.5629,-3.4792,-3.4075,-3.3577,-3.3324,-3.2643,-3.1468,-3.1371,0.0,0.0,0.0,0.0,0.0,0.0,0.0,0.0,0.0,0.0,0.0,0.0,0.0,0.0,0.0,0.0,0.0,0.0,0.0,-3.6001,-3.6094,-3.6315,0.0,0.0,0.0,0.0,0.0,0.0,0.0,0.0,0.0,-4.4113,-4.3316,-4.305,0.0,0.0,-4.3079,-4.3821,-4.4701,-4.518,-4.4951,-4.6433,0.0,-4.6519,-4.6719,-4.7164,-4.7695,-4.7851,-4.7529,-4.6503,-4.6576,-4.6853,-4.7003,-4.7232,-4.7723,-4.8612,-4.802,-4.7268,-4.6979,-4.7366,-4.7788,-4.7772,-4.7395,-4.6855,-3.9824,-3.8849,-3.8418,-3.8495,-3.8824,-3.8498,-3.8884,-3.9688,-3.9381,-3.9112,-3.89,-3.8577,-3.7663,-3.632,-3.5937,0.0,0.0,0.0,-3.7697,-3.746,-3.8328,-3.8562,-3.8373,-3.9477,-4.0008,-4.0054,-4.0358,-4.0492,-4.0496,-4.0011,-3.905,-3.7655,0.0,0.0,-3.7118,-3.6642,-3.6466,-3.6607,-3.6128,-3.5732,-3.5446,-3.5427,-3.5482,-3.5546,-3.4708,-3.4215,-3.4124,-3.3781,-3.332,-3.2725,-3.2669,-3.2166,0.0,0.0,0.0,0.0,0.0,0.0,0.0,0.0,0.0,0.0,0.0,-3.3062,-3.273,0.0,0.0,0.0,-3.5507,-3.6052,-3.6847,-3.6969,0.0,0.0,0.0,0.0,0.0,0.0,0.0,-4.232,-4.3762,-4.4862,-4.5178,-4.4397,-4.4197,-4.5301,-4.4493,-4.4064,-4.4843,0.0,-4.566,-4.5364,-4.653,-4.7194,-4.6402,-4.6378,-4.6689,-4.735,-4.7155,-4.6701,-4.6105,-4.5998,-4.6173,-4.6532,-4.6746,-4.7096,-4.7849,-4.7252,-4.6947,-4.7573,-4.8134,-4.8516,-4.8535,-4.8003,-4.724,-4.0496,-4.0431,-3.9583,-3.9701,-4.0414,-3.9634,-3.9773,-4.0439,-3.9727,-3.9804,-4.0439,-3.9708,-3.8877,-3.7974,-3.7241,0.0,-3.8013,-3.8078,-3.7701,-3.6942,-3.7738,-3.7642,-3.6904,-3.8527,-3.9304,-3.9323,-4.0103,-4.0495,-4.0496,-4.0495,-4.0087,-3.9307,-3.852,-3.807,-3.8013,-3.8013,-3.7644,-3.693,-3.6769,-3.6308,-3.5519,-3.55,-3.55,-3.5481,-3.4661,-3.4571,-3.5308,-3.4629,-3.4167,-3.4109,-3.4038,-3.2928,-3.0657,0.0,0.0,0.0,0.0,0.0,0.0,0.0,0.0,0.0,0.0,0.0,0.0,0.0,0.0,-3.5469,-3.6118,0.0,-3.7712,-3.7808,0.0,0.0,0.0,-3.9413,-4.0206,-4.1065,-4.2182,-4.3725,0.0,0.0,-4.5277,-4.5392,-4.5965,-4.7502,-4.6328,-4.5564,-4.6279,-4.6337,-4.6137,-4.5392,-4.5908,-4.6192,-4.5686,-4.5648,-4.577,-4.6022,-4.5896,-4.5944,-4.5939,-4.6005,-4.5997,-4.6088,-4.611,-4.6454,-4.717,-4.7515,-4.8051,-4.9461,-4.9721,-4.9772,-4.9464,-4.8345,-4.7108,-4.0496,-4.0477,-4.0261,-4.0281,-4.05,-4.0288,-4.0296,-4.0477,-4.0285,-4.0323,-4.0477,-4.0304,-3.9758,-3.8981,-3.9377,-3.9358,-3.9,-3.9596,-3.945,-3.8719,-3.89,-3.8534,-3.7757,-3.8784,-3.9304,-3.9361,-4.0115,-4.0508,-4.0496,-4.0508,-4.0385,-4.0192,-3.9981,-3.9542,-3.8915,-3.8927,-3.8885,-3.8688,-3.7373,-3.6308,-3.5519,-3.55,-3.55,-3.5481,-3.4661,-3.4282,-3.4513,-3.4314,-3.3898,-3.3256,-3.3192,-3.2923,-3.2314,-3.0382,0.0,0.0,0.0,0.0,0.0,0.0,0.0,0.0,0.0,-3.5935,-3.3834,0.0,-3.8056,0.0,-3.7292,-3.7769,-3.861,-3.8706,0.0,0.0,-3.9881,-4.0301,-4.1122,-4.1944,-4.286,-4.3862,-4.5095,-4.5984,-4.6194,-4.6214,-4.6366,-4.6748,-4.5946,-4.5343,-4.5511,-4.5562,-4.5526,-4.5364,-4.5479,-4.5548,-4.5477,-4.5575,-4.5727,-4.5867,-4.5916,-4.59,-4.59,-4.6371,-4.6778,-4.6901,-4.7384,-4.7798,-4.7991,-4.8675,-4.9015,-4.89,-4.844,-4.7866,-4.7342,-4.688,-4.6507,-4.0496,-4.0496,-4.0496,-4.0496,-4.0496,-4.0496,-4.0496,-4.0496,-4.0496,-4.0496,-4.0496,-4.0496,-4.0265,-3.9861,-4.0304,-4.0265,-3.9881,-4.0304,-4.0073,-3.9304,-3.8911,-3.8257,-3.7469,-3.8315,-3.8719,-3.8757,-3.9919,-4.0496,-4.0496,-4.0496,-4.0496,-4.0496,-4.0496,-4.0258,-3.9792,-3.9835,-3.965,-3.9304,-3.7969,-3.7065,-3.6615,-3.6231,-3.6038,-3.6,-3.5218,-3.4776,-3.4776,-3.4776,-3.4365,-3.3506,-3.3807,-3.3659,-3.2883,-3.1846,-3.1673,0.0,0.0,0.0,0.0,0.0,0.0,0.0,0.0,0.0,0.0,0.0,-3.882,-3.8323,-3.8285,-3.8629,-3.948,-3.9583,-3.9775,-4.0244,-4.0329,-4.0787,-4.1934,-4.2508,-4.3425,-4.5014,-4.5674,-4.616,-4.6506,-4.6249,-4.6019,-4.6,-4.5617,-4.5339,-4.5307,-4.5297,-4.5298,-4.535,-4.5339,-4.5369,-4.5419,-4.5531,-4.5767,-4.6237,-4.6358,-4.6464,-4.6894,-4.7286,-4.7634,-4.7783,-4.8121,-4.8514,-4.8813,-4.8952,-4.8968,-4.8563,-4.7859,-4.7268,-4.693,-4.6573,-4.6302,-4.0496,-4.0496,-4.0496,-4.0496,-4.0496,-4.0496,-4.0496,-4.0496,-4.0496,-4.0496,-4.0496,-4.0496,-4.0496,-4.0496,-4.0496,-4.0496,-4.0496,-4.0496,-4.0073,-3.9265,-3.8392,-3.7526,-3.6731,-3.7469,-3.7892,-3.8065,-3.9592,-4.0458,-4.0669,-4.0669,-4.0727,-4.0823,-4.0823,-4.0843,-4.0823,-4.0708,-4.0227,-3.9323,-3.8565,-3.8104,-3.7988,-3.7257,-3.6808,-3.6673,-3.6019,-3.5596,-3.55,-3.55,-3.5128,-3.437,-3.5009,-3.4714,-3.3273,-3.3861,-3.4275,0.0,-3.4249,0.0,0.0,0.0,0.0,0.0,0.0,0.0,0.0,-3.86,-3.9154,-3.9173,-3.9173,-3.9507,-4.0243,-4.0308,-4.0317,-4.031,-4.0308,-4.0967,-4.2575,-4.2805,-4.3771,-4.6253,-4.5859,-4.5696,-4.6349,-4.586,-4.541,-4.5458,-4.5438,-4.54,-4.539,-4.5339,-4.535,-4.539,-4.5419,-4.5486,-4.5687,-4.5715,-4.6031,-4.6836,-4.7066,-4.7351,-4.8033,-4.8319,-4.8469,-4.8613,-4.8755,-4.9045,-4.9668,-4.9077,-4.8496,-4.8464,-4.7794,-4.7247,-4.7231,-4.6788,-4.6339,-4.0496,-4.0496,-4.0496,-4.0496,-4.0496,-4.0496,-4.0496,-4.0496,-4.0496,-4.0496,-4.0496,-4.0496,-4.0496,-4.0496,-4.0496,-4.0496,-4.0496,-4.0496,-4.0046,-3.9284,-3.8392,-3.7546,-3.6731,-3.6865,-3.7315,-3.8027,-3.9046,-4.0219,-4.1566,-4.1566,-4.1912,-4.2604,-4.2604,-4.2604,-4.2566,0.0,0.0,0.0,-3.915,-3.87,-3.8046,-3.7853,-3.743,-3.6731,-3.6558,0.0,-3.5538,-3.55,-3.5423,-3.5243,-3.5397,0.0,0.0,0.0,0.0,0.0,0.0,0.0,0.0,0.0,0.0,0.0,-3.8712,-3.8353,-3.7797,-3.9143,-4.0049,-4.0049,-4.0114,-4.0208,-4.0342,-4.037,-4.037,-4.0381,-4.0389,-4.105,-4.2649,-4.2889,-4.3627,-4.5381,-4.5496,-4.5467,-4.564,-4.5477,-4.541,-4.541,-4.541,-4.5419,-4.5505,-4.5438,-4.5381,-4.5419,-4.5506,-4.5783,-4.6455,-4.6598,-4.6895,-4.7644,-4.7875,-4.7922,-4.8132,-4.8718,-4.9185,-4.9308,-4.9867,-5.027,-5.0515,-4.9864,-4.8885,-4.843,-4.7714,-4.7077,-4.6631,-4.6436,-4.6302,-4.0496,0.0,-4.0539,-4.0531,0.0,-4.0523,-4.0561,-4.0558,-4.0523,-4.0496,-4.0496,-4.0496,-4.0496,-4.0496,-4.0496,-4.0496,-4.0496,-4.0496,-4.0285,-3.9861,-3.9027,-3.8411,-3.7969,-3.7988,-3.82,-3.8681,-3.9496,-4.0546,-4.1758,-4.1816,-4.2239,-4.3085,-4.3085,-4.3085,-4.3066,-4.2231,-4.1181,-3.99,-3.9881,-3.9688,-3.9246,-3.8834,-3.845,-3.8007,-3.7565,0.0,0.0,0.0,0.0,0.0,0.0,0.0,0.0,0.0,0.0,-3.7293,-3.7336,-3.7674,-3.8443,-3.852,-3.8896,-3.972,-3.9772,-3.9555,-3.9063,-3.9846,-4.0353,-4.0362,-4.0379,-4.0407,-4.0407,-4.0432,-4.0441,-4.0426,-4.0797,-4.1581,-4.2722,-4.3309,-4.4067,-4.5207,-4.5476,-4.5467,-4.5495,-4.5504,-4.5504,-4.5523,-4.5879,-4.6138,-4.6137,-4.5745,-4.5525,-4.5995,-4.6148,-4.6473,-4.7242,-4.7472,-4.7605,-4.8,-4.8096,-4.8096,-4.8096,-4.8471,-4.8796,-4.8855,-4.9221,-4.9528,-4.9453,-4.8816,-4.8089,-4.7704,-4.7048,-4.651,-4.6219,-4.6247,-4.6302,-4.0531,-4.0519,-4.0588,-4.0561,-4.0527,-4.0586,-4.0593,-4.0595,0.0,0.0,0.0,-4.0496,-4.0496,-4.0496,-4.0496,-4.0496,-4.0496,-4.0496,-4.0496,-4.0458,-3.9669,-3.9304,-3.9284,-3.913,-3.915,-3.9323,-3.9977,-4.0816,-4.1788,-4.195,-4.2481,-4.3258,-4.347,-4.3393,-4.3066,-4.2393,-4.1527,-4.0554,-4.0496,-4.0496,-4.0477,-3.9861,-3.9381,-3.9073,-3.8373,-3.7873,-3.7565,-3.77,-3.7519,-3.6978,-3.7713,-3.7847,-3.724,-3.7913,-3.8631,-3.9238,-3.9438,-3.9804,-4.0458,-4.0496,-4.05,-4.0499,-4.0458,-4.0405,-4.0407,-4.0415,-4.0415,-4.0415,-4.0413,-4.0413,-4.0413,-4.0455,-4.0482,-4.0441,-4.1185,-4.2055,-4.2919,-4.3729,-4.4545,-4.5395,-4.5559,-4.5531,-4.5586,-4.5586,-4.5594,-4.5701,-4.6288,-4.7009,-4.7,-4.6483,-4.6302,-4.6887,-4.7069,-4.7385,-4.8105,-4.8336,-4.8317,-4.8394,-4.8375,-4.8298,-4.8144,-4.8096,-4.8096,-4.8172,-4.821,-4.8257,-4.8103,-4.7615,-4.7017,-4.6986,-4.6358,-4.5854,-4.6002,-4.6147,-4.6249,-4.0583,-4.0574,-4.0581,-4.0581,-4.06,-4.0588,-4.0588,-4.06,-4.0603,-4.0558,-4.0496,-4.0496,-4.0496,-4.0496,-4.0496,-4.0496,-4.0496,-4.0496,-4.0496,-4.0458,-3.9669,-3.9304,-3.9265,-3.8527,-3.8584,-3.9265,-3.9419,-4.0277,-4.1731,-4.2547,-4.3335,-4.4124,-4.4874,-4.4536,-4.322,-4.297,-4.2104,-4.0554,-4.0496,-4.0496,-4.0496,-4.04,-3.9631,-3.8257,-3.8084,-3.7315,-3.5923,-3.6538,-3.7192,-3.7788,-3.8635,-3.9046,-3.8969,-3.9662,-3.9873,-3.94,-3.9958,-4.04,-4.0496,-4.0496,-4.0489,-4.0508,-4.0481,-4.0441,-4.0415,-4.0449,-4.0493,-4.0493,-4.0487,-4.0492,-4.0492,-4.05,-4.05,-4.0531,-4.128,-4.2135,-4.2981,-4.3838,-4.4664,-4.549,-4.5586,-4.5586,-4.5586,-4.5594,-4.5594,-4.571,-4.6432,-4.7173,-4.7836,-4.7827,-4.776,-4.7875,-4.7904,-4.8298,-4.8913,-4.9202,-4.9086,-4.9221,-4.9048,-4.8663,-4.7971,-4.7885,-4.7885,-4.8029,-4.7939,-4.7997,-4.7971,-4.7461,-4.6947,-4.6791,-4.6225,-4.584,-4.5873,-4.6017,-4.6153,-4.0593,-4.0614,-4.0647,-4.0628,-4.0595,-4.0647,-4.0654,-4.0654,-4.066,-4.0617,-4.0565,-4.0523,-4.0496,-4.0496,-4.0496,-4.0496,-4.0496,-4.0496,-4.0496,-4.0477,-4.0112,-3.9958,-3.9919,-3.9554,-3.9573,-3.9938,-3.9938,-4.0835,-4.2431,-4.2912,-4.3758,-4.496,-4.5421,-4.521,-4.4489,-4.397,-4.3143,-4.1931,-4.0977,-4.0496,-4.0496,-4.0496,-3.9919,-3.8738,-3.8719,-3.8123,-3.693,-3.7219,-3.7603,-3.7988,-3.8373,-3.8796,-3.9284,-3.9642,-3.9881,-3.9958,-4.0304,-4.0496,-4.0496,-4.0496,-4.0496,-4.0496,-4.0496,-4.05,-4.0471,-4.0487,-4.0503,-4.0503,-4.05,-4.0496,-4.0496,-4.0496,-4.0496,-4.0496,-4.1681,-4.2662,-4.3162,-4.4259,-4.5171,-4.5518,-4.5594,-4.5594,-4.5594,-4.5594,-4.5594,-4.5691,-4.6682,-4.799,-4.924,-4.9471,-4.9317,-4.8933,-4.8798,-4.8933,-4.9336,-4.9413,-4.9029,-4.824,-4.8048,-4.7682,-4.6932,-4.6759,-4.6759,-4.6749,-4.6791,-4.6816,-4.6795,-4.6538,-4.6315,-4.618,-4.5973,-4.5735,-4.5787,-4.5954,-4.6135,-4.0628,-4.0661,-4.07,-4.07,-4.0654,-4.07,-4.0707,-4.0707,-4.07,-4.0666,-4.061,-4.0546,-4.0531,-4.0504,-4.0496,-4.0496,-4.0496,-4.0496,-4.0496,-4.0496,-4.0496,-4.0496,-4.0496,-4.0496,-4.0496,-4.0496,-4.0496,-4.1208,-4.2412,-4.2893,-4.3951,-4.5441,-4.5594,-4.5518,-4.5297,-4.4643,-4.3797,-4.2777,-4.1277,-4.0419,-4.0246,-4.04,-3.9938,-3.8815,-3.89,-3.8507,-3.7526,-3.7603,-3.7719,-3.7719,-3.7892,-3.8315,-3.8957,-3.92,-3.9592,-4.015,-4.04,-4.0496,-4.0496,-4.0496,-4.0496,-4.0496,-4.0496,-4.0496,-4.0496,-4.0496,-4.0496,-4.0496,-4.0496,-4.0496,-4.0496,-4.0496,-4.0496,-4.0593,-4.2047,-4.3028,-4.3239,-4.4594,-4.5594,-4.5594,-4.5594,-4.5594,-4.5594,-4.5594,-4.5787,-4.6355,-4.7317,-4.8682,-5.0058,-5.0529,-5.0298,-4.9529,-4.9413,-4.9702,-4.9683,-4.9721,-4.9144,-4.7663,-4.7385,-4.7048,-4.6336,-4.5864,-4.5633,-4.5738,-4.5753,-4.5846,-4.5687,-4.5726,-4.575,-4.5717,-4.565,-4.5671,-4.5802,-4.5938,-4.6125,-4.0713,-4.0784,-4.0784,-4.079,-4.0784,-4.0784,-4.079,-4.0765,-4.0733,-4.0694,-4.068,-4.0617,-4.06,-4.058,-4.0531,-4.0496,-4.0496,-4.0496,-4.0496,-4.0496,-4.0496,-4.0496,-4.0554,-4.0516,-4.0496,-4.0516,-4.0516,-4.0631,-4.1035,-4.2412,-4.3959,-4.5421,-4.5594,-4.5201,-4.4528,-4.4374,-4.3528,-4.195,-4.0969,-4.015,-3.9496,-4.0112,-3.9373,-3.7019,-3.7719,-3.7353,-3.5942,-3.6442,-3.6808,-3.6885,-3.7546,-3.8007,-3.818,-3.8854,-3.9323,-3.9438,-4.0112,-4.0496,-4.0496,-4.0496,-4.0496,-4.0496,-4.0496,-4.0496,-4.0496,-4.0496,-4.0496,-4.0496,-4.0496,-4.0496,-4.0496,-4.0535,-4.0593,-4.0708,-4.2143,-4.3085,-4.3335,-4.4566,-4.5594,-4.5594,-4.5594,-4.5594,-4.5594,-4.5594,-4.6182,-4.7336,-4.7778,-4.8471,-4.9471,-5.0144,-5.0067,-4.9048,-4.9471,-5.0298,-5.0337,-5.0548,-4.9837,-4.9048,-4.8394,-4.7528,-4.6682,-4.597,-4.5594,-4.5594,-4.5612,-4.562,-4.5612,-4.5612,-4.562,-4.5612,-4.562,-4.5648,-4.5828,-4.5905,-4.6009,-4.0778,-4.0797,-4.0797,-4.0797,-4.0797,-4.0797,-4.0797,-4.081,-4.0778,-4.0752,-4.0746,-4.0699,-4.0639,-4.0586,-4.0571,-4.0549,-4.0546,-4.0549,-4.0523,-4.0554,-4.1058,-4.132,-4.1258,-4.1277,-4.1258,-4.12,-4.0766,-4.0758,-4.147,-4.2989,-4.4162,-4.4825,-4.5344,-4.5402,-4.5075,-4.5075,-4.4008,-4.1873,-4.145,-4.0162,-3.8142,-3.8584,-3.8277,-3.6949,-3.7038,-3.6719,-3.5673,-3.5846,-3.5981,-3.6019,-3.6353,-3.6757,-3.7219,-3.8046,-3.8777,-3.9284,-4.0054,-4.0496,-4.0496,-4.0496,-4.0496,-4.0496,-4.0496,-4.0496,-4.0496,-4.0496,-4.0496,-4.0496,-4.0496,-4.0496,-4.0554,-4.0958,-4.1277,-4.1489,-4.2777,-4.3797,-4.3835,-4.4855,-4.5594,-4.5594,-4.5594,-4.5594,-4.5594,-4.5594,-4.6105,-4.7221,-4.774,-4.8394,-4.924,-4.9721,-4.9586,-4.9086,-4.9125,-4.9106,-4.924,-4.9625,-4.9279,-4.8298,-4.7644,-4.7096,-4.6394,-4.5932,-4.5594,-4.5594,-4.5594,-4.5594,-4.5594,-4.5594,-4.5594,-4.5594,-4.5603,-4.5651,-4.5815,-4.5875,-4.5983,-4.0797,-4.0797,-4.0797,-4.0797,-4.0797,-4.0797,-4.0797,-4.0797,-4.0797,-4.0797,-4.079,-4.0765,-4.07,-4.0641,-4.0621,-4.0593,-4.0591,-4.06,-4.0586,-4.0611,-4.1235,-4.1517,-4.1466,-4.145,-4.145,-4.1354,-4.0796,-4.0931,-4.1865,-4.3239,-4.4066,-4.4393,-4.5171,-4.5594,-4.5594,-4.5594,-4.4594,-4.2681,-4.2288,-4.0604,-3.795,-3.7796,-3.7488,-3.65,-3.6596,-3.6327,-3.5538,-3.55,-3.55,-3.55,-3.55,-3.5865,-3.6673,-3.7315,-3.8142,-3.9227,-4.0054,-4.0496,-4.0496,-4.0496,-4.0496,-4.0496,-4.0496,-4.0496,-4.0496,-4.0496,-4.0496,-4.0496,-4.0496,-4.0554,-4.0912,-4.1431,-4.1846,-4.22,-4.347,-4.4297,-4.4335,-4.5066,-4.5594,-4.5594,-4.5594,-4.5594,-4.5594,-4.5614,-4.5951,-4.6817,-4.7404,-4.7932,-4.8586,-4.8817,-4.8894,-4.849,-4.8125,-4.8192,-4.8144,-4.8606,-4.8317,-4.774,-4.7201,-4.6778,-4.6009,-4.5864,-4.5594,-4.5594,-4.5594,-4.5594,-4.5594,-4.5594,-4.5603,-4.5594,-4.5603,-4.5662,-4.5773,-4.5859,-4.5949,-4.0797,-4.0797,-4.0797,-4.0797,-4.0797,-4.0797,-4.0797,-4.0797,-4.0797,-4.0797,-4.0797,-4.081,-4.079,-4.0765,-4.0668,-4.0595,-4.0588,-4.0595,-4.0614,-4.06,-4.0764,-4.0703,-4.0638,-4.0589,-4.0631,-4.0889,-4.0639,-4.0939,-4.1777,-4.2701,-4.3547,-4.4278,-4.5094,-4.5575,-4.5594,-4.5594,-4.5133,-4.397,-4.3278,-4.1758,-3.9392,-3.8411,-3.7315,-3.6058,-3.6288,-3.6288,-3.5654,-3.55,-3.5519,-3.5519,-3.5519,-3.5865,-3.6642,-3.6815,-3.768,-3.9207,-4.0112,-4.0535,-4.0554,-4.0573,-4.0554,-4.0496,-4.0496,-4.0496,-4.0496,-4.0496,-4.0496,-4.0496,-4.0573,-4.09,-4.1623,-4.1873,-4.2258,-4.2989,-4.3797,-4.4335,-4.4355,-4.5133,-4.5537,-4.5594,-4.5594,-4.5594,-4.5594,-4.5594,-4.5979,-4.6567,-4.6932,-4.7144,-4.7413,-4.7855,-4.7644,-4.6971,-4.7221,-4.8067,-4.8058,-4.8279,-4.8221,-4.7702,-4.7115,-4.6808,-4.6567,-4.6259,-4.5864,-4.5594,-4.5594,-4.5594,-4.5594,-4.5594,-4.5612,-4.5612,-4.5612,-4.5668,-4.5757,-4.5858,-4.5925,-4.0797,-4.0797,-4.0797,-4.0797,-4.0797,-4.0797,-4.0797,-4.0797,-4.0797,-4.0797,-4.0797,-4.0797,-4.0797,-4.0797,-4.0752,-4.0707,-4.0687,-4.0707,-4.0674,-4.0737,-4.1733,-4.2266,-4.2244,-4.2206,-4.2187,-4.2067,-4.1108,-4.0719,-4.1078,-4.1881,-4.2701,-4.3528,-4.4355,-4.5017,-4.5498,-4.5594,-4.4921,-4.3643,-4.322,-4.2104,-4.0246,-3.9265,-3.8507,-3.7911,-3.6615,-3.6058,-3.6269,-3.5769,-3.5981,-3.7046,-3.6115,-3.6115,-3.7411,-3.8046,-3.9123,-4.0681,-4.1181,-4.1335,-4.1316,-4.1335,-4.1066,-4.0573,-4.0496,-4.0496,-4.0496,-4.0496,-4.0496,-4.0573,-4.1046,-4.1681,-4.2393,-4.2624,-4.297,-4.3778,-4.4586,-4.5086,-4.5163,-4.5421,-4.5594,-4.5594,-4.5594,-4.5594,-4.5594,-4.5594,-4.5729,-4.6047,-4.6528,-4.7019,-4.7548,-4.7923,-4.7778,-4.7355,-4.7221,-4.7115,-4.6509,-4.7528,-4.7971,-4.7471,-4.6962,-4.6509,-4.6182,-4.6007,-4.5622,-4.5612,-4.5603,-4.5612,-4.562,-4.5635,-4.5654,-4.5643,-4.5651,-4.566,-4.5719,-4.5835,-4.5894,-4.0797,-4.0797,-4.0797,-4.0797,-4.0797,-4.0797,-4.0797,-4.0797,-4.0797,-4.0797,-4.0797,-4.0797,-4.0797,-4.0797,-4.0797,-4.0778,-4.0739,-4.0784,-4.0771,-4.079,-4.2161,-4.2811,-4.284,-4.3034,-4.315,-4.296,-4.1743,-4.0911,-4.0715,-4.1424,-4.2274,-4.3124,-4.3912,-4.4748,-4.546,-4.5594,-4.497,-4.4066,-4.3912,-4.3094,-4.147,-4.0535,-3.995,-3.9457,-3.7757,-3.6969,-3.7507,-3.7007,-3.7199,-3.8046,-3.7065,-3.6834,-3.795,-3.9073,-4.0162,-4.1239,-4.1643,-4.1942,-4.2124,-4.1962,-4.1546,-4.0969,-4.0631,-4.0496,-4.0496,-4.0496,-4.0496,-4.0669,-4.1296,-4.2154,-4.2912,-4.3316,-4.3816,-4.4605,-4.5248,-4.5594,-4.5594,-4.5594,-4.5594,-4.5594,-4.5594,-4.5594,-4.5594,-4.5594,-4.5614,-4.5594,-4.6144,-4.6721,-4.7144,-4.7567,-4.7721,-4.7682,-4.7192,-4.6806,-4.6392,-4.6929,-4.7066,-4.6614,-4.6555,-4.6151,-4.5939,-4.5736,-4.5629,-4.5629,-4.5629,-4.5657,-4.5662,-4.5684,-4.57,-4.5688,-4.5673,-4.5673,-4.5757,-4.5815,-4.5867,-4.0803,-4.0809,-4.0797,-4.0809,-4.0796,-4.0796,-4.0803,-4.0803,-4.0803,-4.0803,-4.0797,-4.0797,-4.0797,-4.0797,-4.0797,-4.081,-4.081,-4.0797,-4.081,-4.09,-4.168,-4.213,-4.2277,-4.2905,-4.3199,-4.3168,-4.2293,-4.1422,-4.0807,-4.1443,-4.219,-4.3082,-4.3833,-4.4641,-4.5594,-4.5603,-4.5575,-4.5383,-4.5325,-4.4633,-4.3239,-4.2258,-4.147,-4.0708,-3.9861,-3.9457,-3.9438,-3.9258,-3.9219,-3.9323,-3.8469,-3.8027,-3.8373,-3.9662,-4.0593,-4.0997,-4.1489,-4.2258,-4.2893,-4.2431,-4.2055,-4.1593,-4.1016,-4.0627,-4.0531,-4.0512,-4.0504,-4.0627,-4.1389,-4.2228,-4.3055,-4.3863,-4.4613,-4.5421,-4.5575,-4.5594,-4.5594,-4.5594,-4.5594,-4.5594,-4.5594,-4.5594,-4.5594,-4.5603,-4.5622,-4.5642,-4.5719,-4.5969,-4.6362,-4.6863,-4.6922,-4.7057,-4.7008,-4.6765,-4.6504,-4.629,-4.5975,-4.5717,-4.5838,-4.5759,-4.5778,-4.5671,-4.566,-4.5668,-4.5687,-4.5714,-4.5703,-4.5715,-4.5731,-4.5719,-4.5704,-4.5704,-4.5764,-4.5821,-4.5834,-4.0877,-4.0858,-4.0877,-4.0877,-4.0877,-4.0877,-4.0837,-4.0804,-4.0804,-4.0794,-4.0803,-4.0797,-4.0797,-4.0797,-4.0797,-4.0797,-4.0797,-4.0797,-4.0797,-4.0945,-4.1635,-4.2318,-4.2795,-4.3102,-4.3224,-4.3062,-4.2367,-4.1858,-4.1567,-4.1217,-4.1704,-4.2969,-4.3424,-4.4294,-4.558,-4.5676,-4.5648,-4.5594,-4.5594,-4.5306,-4.4786,-4.397,-4.3374,-4.3151,-4.2874,-4.2739,-4.2662,-4.1073,-4.0785,-4.1785,-3.9969,-3.913,-3.9785,-4.0777,-4.1912,-4.297,-4.3355,-4.3605,-4.3825,-4.3668,-4.3018,-4.2152,-4.1597,-4.1169,-4.0675,-4.0636,-4.0629,-4.0745,-4.1863,-4.2896,-4.3277,-4.4443,-4.5282,-4.5556,-4.5594,-4.5594,-4.5594,-4.5594,-4.5594,-4.5594,-4.562,-4.564,-4.5631,-4.5612,-4.5657,-4.5657,-4.5676,-4.5935,-4.702,-4.6943,-4.7298,-4.7683,-4.7336,-4.6808,-4.6477,-4.6166,-4.5869,-4.5687,-4.5703,-4.5703,-4.5711,-4.5708,-4.5696,-4.5715,-4.5735,-4.5762,-4.575,-4.5746,-4.5769,-4.5764,-4.5764,-4.5771,-4.5778,-4.5793,-4.5814,-4.0888,-4.0888,-4.0888,-4.0888,-4.0888,-4.0888,-4.0888,-4.0839,-4.0839,-4.0807,-4.08,-4.0808,-4.0796,-4.0797,-4.0797,-4.0797,-4.0797,-4.0797,-4.0797,-4.0932,-4.1622,-4.2318,-4.2918,-4.3517,-4.3503,-4.3271,-4.3058,-4.2781,-4.24,-4.1645,-4.1979,-4.3412,-4.3373,-4.4052,-4.5533,-4.5687,-4.5682,-4.5648,-4.5657,-4.561,-4.543,-4.4784,-4.4476,-4.4716,-4.4496,-4.4523,-4.4636,-4.3219,-4.2768,-4.3137,-4.1728,-4.1081,-4.1505,-4.2056,-4.2941,-4.402,-4.4386,-4.4471,-4.4741,-4.4534,-4.4068,-4.3046,-4.2567,-4.1996,-4.1366,-4.1282,-4.1482,-4.1366,-4.2659,-4.3674,-4.3856,-4.482,-4.5613,-4.5646,-4.5612,-4.5603,-4.5631,-4.564,-4.5629,-4.5646,-4.569,-4.5662,-4.5662,-4.5662,-4.5687,-4.5687,-4.5706,-4.588,-4.7031,-4.71,-4.7436,-4.761,-4.7284,-4.6791,-4.6372,-4.6078,-4.5789,-4.5739,-4.5739,-4.5758,-4.575,-4.5754,-4.5749,-4.5734,-4.5773,-4.5773,-4.5788,-4.5791,-4.5793,-4.58,-4.5807,-4.58,-4.5793,-4.5793,-4.5814,-4.0897,-4.0917,-4.0917,-4.0921,-4.0926,-4.0926,-4.0921,-4.0912,-4.0912,-4.0883,-4.0823,-4.0832,-4.0829,-4.0821,-4.0808,-4.0827,-4.0809,-4.0809,-4.0809,-4.0983,-4.1493,-4.1951,-4.228,-4.3685,-4.3994,-4.3472,-4.4052,-4.3903,-4.2878,-4.2349,-4.285,-4.4005,-4.3697,-4.4094,-4.5426,-4.5688,-4.5711,-4.5698,-4.5676,-4.566,-4.5593,-4.4952,-4.4853,-4.5547,-4.495,-4.4889,-4.5395,-4.5275,-4.499,-4.4426,-4.3459,-4.303,-4.3211,-4.3277,-4.3674,-4.4573,-4.4581,-4.4967,-4.5333,-4.5052,-4.455,-4.4222,-4.3612,-4.2898,-4.223,-4.2507,-4.2642,-4.2153,-4.3446,-4.4403,-4.4538,-4.5206,-4.565,-4.57,-4.5654,-4.5637,-4.5673,-4.5682,-4.5679,-4.5703,-4.5708,-4.5688,-4.57,-4.57,-4.5708,-4.5708,-4.5708,-4.5908,-4.6206,-4.6669,-4.6904,-4.6962,-4.6958,-4.6607,-4.6148,-4.602,-4.5776,-4.5776,-4.5764,-4.5776,-4.5788,-4.5791,-4.5778,-4.5791,-4.5783,-4.581,-4.5817,-4.5812,-4.5807,-4.5807,-4.5807,-4.5807,-4.5807,-4.5807,-4.5807,-4.1061,-4.1041,-4.1041,-4.1041,-4.1061,-4.1041,-4.1023,-4.098,-4.098,-4.0935,-4.0898,-4.0888,-4.0878,-4.0868,-4.0863,-4.0868,-4.0853,-4.0821,-4.0804,-4.0818,-4.0989,-4.1474,-4.2241,-4.373,-4.4136,-4.3537,-4.4175,-4.3801,-4.246,-4.2801,-4.3227,-4.3606,-4.4102,-4.4706,-4.5638,-4.5773,-4.575,-4.5711,-4.57,-4.57,-4.5637,-4.5491,-4.546,-4.5615,-4.546,-4.5468,-4.5708,-4.5758,-4.5383,-4.4573,-4.4292,-4.4164,-4.4172,-4.4172,-4.45,-4.5156,-4.536,-4.5438,-4.56,-4.5526,-4.5148,-4.4568,-4.4378,-4.3877,-4.3027,-4.3143,-4.3162,-4.3123,-4.3974,-4.4559,-4.4653,-4.5263,-4.5681,-4.5688,-4.5684,-4.5676,-4.5684,-4.5692,-4.568,-4.5688,-4.5739,-4.5739,-4.5731,-4.5739,-4.5754,-4.5773,-4.5812,-4.5935,-4.6232,-4.6162,-4.6368,-4.6634,-4.6648,-4.63,-4.5998,-4.5882,-4.5812,-4.5793,-4.5793,-4.5786,-4.5805,-4.5793,-4.58,-4.58,-4.5786,-4.5805,-4.5812,-4.58,-4.5807,-4.5807,-4.5807,-4.5807,-4.5807,-4.5807,-4.5807,-4.1107,-4.1107,-4.1107,-4.1107,-4.1107,-4.1107,-4.1059,-4.1041,-4.1038,-4.1015,-4.0963,-4.0958,-4.0926,-4.0888,-4.0888,-4.0888,-4.0903,-4.0878,-4.0844,-4.0833,-4.0823,-4.1073,-4.1828,-4.3208,-4.3788,-4.3537,-4.4543,-4.4523,-4.3808,-4.3808,-4.4001,-4.4369,-4.4504,-4.5032,-4.574,-4.581,-4.5776,-4.5739,-4.5746,-4.5727,-4.5708,-4.5723,-4.575,-4.575,-4.575,-4.5758,-4.5761,-4.5783,-4.5551,-4.5143,-4.5046,-4.5046,-4.5046,-4.5046,-4.5271,-4.5723,-4.5742,-4.5742,-4.5761,-4.5776,-4.5578,-4.5172,-4.5097,-4.4659,-4.4136,-4.4117,-4.4291,-4.3975,-4.4369,-4.4703,-4.5075,-4.5539,-4.5745,-4.5749,-4.5734,-4.5734,-4.5758,-4.5731,-4.5739,-4.5754,-4.5757,-4.5783,-4.5761,-4.5783,-4.5791,-4.581,-4.581,-4.6037,-4.6276,-4.6013,-4.5884,-4.6206,-4.6341,-4.6071,-4.5928,-4.5838,-4.58,-4.58,-4.5807,-4.5807,-4.5807,-4.5807,-4.5807,-4.5807,-4.5807,-4.5807,-4.5807,-4.5807,-4.5807,-4.5807,-4.5807,-4.5807,-4.5807,-4.5807,-4.5807,-4.1107,-4.1107,-4.1107,-4.1107,-4.1107,-4.1107,-4.1088,-4.1107,-4.1104,-4.1068,-4.1027,-4.1019,-4.0984,-4.0921,-4.0939,-4.0926,-4.0926,-4.0921,-4.0907,-4.0893,-4.0839,-4.0912,-4.1149,-4.2673,-4.3208,-4.3363,-4.4891,-4.5207,-4.4775,-4.4504,-4.491,-4.4987,-4.4755,-4.5142,-4.5684,-4.58,-4.5805,-4.5803,-4.5798,-4.5764,-4.5746,-4.5761,-4.5795,-4.5795,-4.5795,-4.5803,-4.5805,-4.58,-4.5761,-4.578,-4.5807,-4.5722,-4.5742,-4.578,-4.578,-4.5761,-4.5793,-4.5793,-4.58,-4.5793,-4.58,-4.5703,-4.5722,-4.5529,-4.4968,-4.5181,-4.5284,-4.4755,-4.471,-4.5116,-4.5548,-4.578,-4.58,-4.5793,-4.58,-4.5805,-4.5803,-4.5815,-4.5803,-4.5819,-4.5807,-4.5807,-4.5807,-4.5807,-4.58,-4.5812,-4.5812,-4.5909,-4.6051,-4.5916,-4.5826,-4.5904,-4.5942,-4.5865,-4.5819,-4.5819,-4.58,-4.5807,-4.5807,-4.5807,-4.5807,-4.5807,-4.5807,-4.5807,-4.5807,-4.5807,-4.5807,-4.5807,-4.5807,-4.5807,-4.5807,-4.5807,-4.5807,-4.5807,-4.5807,-4.1107,-4.1107,-4.1107,-4.1107,-4.1107,-4.1107,-4.1107,-4.1107,-4.1107,-4.1085,-4.1078,-4.1078,-4.1071,-4.1045,-4.1041,-4.1068,-4.1038,-4.0996,-4.0943,-4.0907,-4.0878,-4.0888,-4.1221,-4.2588,-4.2886,-4.3099,-4.4743,-4.4762,-4.3756,-4.4743,-4.491,-4.4136,-4.5142,-4.5613,-4.5768,-4.5807,-4.58,-4.5812,-4.58,-4.58,-4.5778,-4.5798,-4.5805,-4.5805,-4.5812,-4.5812,-4.58,-4.5807,-4.5807,-4.5807,-4.5807,-4.5807,-4.5807,-4.5807,-4.5807,-4.5807,-4.5807,-4.5807,-4.5807,-4.5807,-4.5807,-4.5807,-4.5807,-4.5742,-4.5626,-4.5645,-4.5729,-4.5548,-4.5555,-4.549,-4.5652,-4.5787,-4.5787,-4.5768,-4.5807,-4.58,-4.5812,-4.5812,-4.5819,-4.58,-4.5807,-4.5807,-4.5807,-4.5807,-4.5807,-4.5807,-4.5807,-4.5807,-4.5807,-4.5807,-4.5807,-4.5807,-4.5807,-4.5807,-4.5807,-4.5807,-4.5807,-4.5807,-4.5807,-4.5807,-4.5807,-4.5807,-4.5807,-4.5807,-4.5807,-4.5807,-4.5807,-4.5807,-4.5807,-4.5807,-4.5807,-4.5807,-4.5807,-4.5807,-4.5841,-4.1107,-4.1107,-4.1107,-4.1107,-4.1107,-4.1107,-4.1107,-4.1107,-4.1107,-4.1107,-4.1107,-4.1107,-4.1107,-4.1107,-4.1107,-4.1107,-4.1104,-4.1071,-4.1003,-4.1069,-4.1269,-4.1319,-4.1408,-4.2779,-4.3554,-4.3166,-4.4802,-4.4809,-4.457,-4.4918,-4.5362,-4.4562,-4.5401,-4.5729,-4.5807,-4.5807,-4.5807,-4.58,-4.5807,-4.5807,-4.5807,-4.5807,-4.5807,-4.5807,-4.5807,-4.5807,-4.5807,-4.5807,-4.5807,-4.5807,-4.5807,-4.5807,-4.5807,-4.5807,-4.5807,-4.5807,-4.5807,-4.5807,-4.5807,-4.5807,-4.5807,-4.5807,-4.5807,-4.5807,-4.5807,-4.5807,-4.5807,-4.571,-4.5452,-4.5239,-4.5239,-4.5239,-4.5355,-4.5768,-4.5807,-4.5807,-4.5807,-4.5807,-4.5807,-4.5807,-4.5807,-4.5807,-4.5807,-4.5807,-4.5807,-4.5807,-4.5807,-4.5807,-4.5807,-4.5807,-4.5807,-4.5807,-4.5807,-4.5807,-4.5807,-4.5807,-4.5807,-4.5807,-4.5807,-4.5807,-4.5807,-4.5807,-4.5807,-4.5807,-4.5807,-4.5807,-4.5807,-4.5807,-4.5807,-4.5807,-4.5807,-4.5807,-4.5807,-4.5814,-4.5867,-4.1107,-4.1107,-4.1107,-4.1107,-4.1107,-4.1107,-4.1107,-4.1107,-4.1107,-4.1107,-4.1107,-4.1107,-4.1107,-4.1107,-4.1107,-4.1107,-4.1107,-4.1107,-4.1068,-4.1104,-4.1568,-4.1575,-4.176,-4.2917,-4.3841,-4.3719,-4.5138,-4.5574,-4.5304,-4.5674,-4.5467,-4.5421,-4.5724,-4.5801,-4.5814,-4.5807,-4.5807,-4.5807,-4.5807,-4.5807,-4.5807,-4.5807,-4.5807,-4.5807,-4.5807,-4.5807,-4.5807,-4.5807,-4.5807,-4.5807,-4.5807,-4.5807,-4.5807,-4.5807,-4.5807,-4.5807,-4.5807,-4.5807,-4.5807,-4.5807,-4.5807,-4.5807,-4.5807,-4.5807,-4.5807,-4.5807,-4.5814,-4.5634,-4.5396,-4.4983,-4.4673,-4.4983,-4.5286,-4.5654,-4.5841,-4.5834,-4.5827,-4.5821,-4.5827,-4.5807,-4.5807,-4.5807,-4.5807,-4.5807,-4.5807,-4.5807,-4.5807,-4.5807,-4.5807,-4.5807,-4.5807,-4.5807,-4.5807,-4.5807,-4.5807,-4.5807,-4.5807,-4.5807,-4.5807,-4.5807,-4.5807,-4.5807,-4.5807,-4.5807,-4.5807,-4.5807,-4.5807,-4.5807,-4.5807,-4.5807,-4.5807,-4.5807,-4.5814,-4.5801,-4.588,-4.1107,-4.1107,-4.1107,-4.1107,-4.1107,-4.1107,-4.1107,-4.1107,-4.1107,-4.1107,-4.1107,-4.1107,-4.1107,-4.1107,-4.1107,-4.1107,-4.1107,-4.1107,-4.1104,-4.1098,-4.1429,-4.1496,-4.2018,-4.2809,-4.3222,-4.3911,-4.5045,-4.5253,-4.4738,-4.5135,-4.5225,-4.4478,-4.5247,-4.5835,-4.5815,-4.5807,-4.5814,-4.5814,-4.5807,-4.5807,-4.5807,-4.5807,-4.5807,-4.5807,-4.5807,-4.5807,-4.5807,-4.5807,-4.5807,-4.5807,-4.5807,-4.5807,-4.5814,-4.5814,-4.5814,-4.5807,-4.5807,-4.5807,-4.5807,-4.5807,-4.5807,-4.5807,-4.5814,-4.5814,-4.5814,-4.5736,-4.5615,-4.5602,-4.5528,-4.5343,-4.476,-4.5041,-4.5653,-4.5906,-4.5927,-4.5935,-4.588,-4.5854,-4.5841,-4.5827,-4.5814,-4.5807,-4.5807,-4.5807,-4.5807,-4.5807,-4.5807,-4.5807,-4.5807,-4.5807,-4.5807,-4.5807,-4.5807,-4.5807,-4.5807,-4.5807,-4.5807,-4.5807,-4.5807,-4.5807,-4.5807,-4.5807,-4.5807,-4.5807,-4.5807,-4.5807,-4.5807,-4.5807,-4.5807,-4.5807,-4.5807,-4.5807,-4.5827,-4.5854,-4.5933,-4.1107,-4.1107,-4.1107,-4.1107,-4.1107,-4.1107,-4.1107,-4.1107,-4.1107,-4.1107,-4.1107,-4.1107,-4.1107,-4.1107,-4.1107,-4.1107,-4.1107,-4.1107,-4.1107,-4.1146,-4.1516,-4.1594,-4.2065,-4.2883,-4.3133,-4.3555,-4.448,-4.501,-4.4307,-4.488,-4.5015,-4.5149,-4.5648,-4.5922,-4.5892,-4.588,-4.5848,-4.5835,-4.5808,-4.5807,-4.5807,-4.5807,-4.5807,-4.5807,-4.5807,-4.5807,-4.5807,-4.5807,-4.5807,-4.5814,-4.5841,-4.5835,-4.5867,-4.5886,-4.588,-4.5827,-4.5807,-4.5807,-4.5807,-4.5807,-4.5801,-4.5854,-4.5861,-4.588,-4.5744,-4.551,-4.5148,-4.4705,-4.4198,-4.4287,-4.4612,-4.4778,-4.5103,-4.5816,-4.598,-4.5933,-4.5898,-4.5886,-4.5874,-4.5861,-4.5834,-4.5821,-4.5807,-4.5807,-4.5807,-4.5807,-4.5807,-4.5807,-4.5807,-4.5807,-4.5807,-4.5807,-4.5807,-4.5807,-4.5807,-4.5807,-4.5807,-4.5807,-4.5807,-4.5807,-4.5807,-4.5807,-4.5807,-4.5807,-4.5807,-4.5807,-4.5807,-4.5807,-4.5807,-4.5807,-4.5807,-4.5814,-4.5848,-4.5899,-4.5977,-4.1107,-4.1107,-4.1107,-4.1107,-4.1107,-4.1107,-4.1107,-4.1107,-4.1107,-4.1107,-4.1107,-4.1107,-4.1107,-4.1107,-4.1107,-4.1107,-4.1107,-4.1107,-4.1107,-4.1205,-4.1614,-4.1672,-4.2124,-4.2747,-4.3351,-4.2724,-4.3169,-4.4194,-4.4125,-4.4621,-4.506,-4.5182,-4.5565,-4.6007,-4.5966,-4.5927,-4.5916,-4.5892,-4.5848,-4.5827,-4.5827,-4.5827,-4.5841,-4.5834,-4.5821,-4.5814,-4.5841,-4.5841,-4.5854,-4.5867,-4.5899,-4.5929,-4.5935,-4.5975,-4.5953,-4.5874,-4.5848,-4.5848,-4.5854,-4.5854,-4.5867,-4.5904,-4.5929,-4.5958,-4.5792,-4.5234,-4.4414,-4.3418,-4.3126,-4.3024,-4.3845,-4.401,-4.4521,-4.5332,-4.5852,-4.5964,-4.5958,-4.5941,-4.591,-4.5886,-4.5848,-4.5854,-4.5854,-4.5807,-4.5807,-4.5807,-4.5807,-4.5807,-4.5807,-4.5807,-4.5807,-4.5807,-4.5807,-4.5807,-4.5807,-4.5807,-4.5807,-4.5807,-4.5807,-4.5807,-4.5807,-4.5807,-4.5807,-4.5807,-4.5807,-4.5807,-4.5807,-4.5807,-4.5807,-4.5807,-4.5807,-4.5814,-4.5834,-4.5927,-4.6046,-4.1107,-4.1107,-4.1107,-4.1107,-4.1107,-4.1107,-4.1107,-4.1107,-4.1107,-4.1107,-4.1107,-4.1107,-4.1107,-4.1107,-4.1107,-4.1107,-4.1107,-4.1107,-4.1107,-4.1169,-4.1302,-4.1614,-4.1887,-4.1516,-4.2286,-4.2088,-4.1948,-4.2003,-4.2932,-4.4175,-4.4522,-4.4494,-4.5559,-4.6071,-4.6022,-4.6002,-4.5991,-4.5961,-4.591,-4.586,-4.5821,-4.5841,-4.5923,-4.591,-4.5873,-4.5848,-4.5922,-4.5923,-4.5917,-4.5944,-4.5961,-4.5991,-4.5991,-4.5991,-4.5997,-4.5986,-4.598,-4.5961,-4.5969,-4.5958,-4.5969,-4.5947,-4.5914,-4.5977,-4.5439,-4.4904,-4.3906,-4.2613,-4.2841,-4.3011,-4.3125,-4.3918,-4.4603,-4.5216,-4.5741,-4.5972,-4.6051,-4.5986,-4.5956,-4.5961,-4.5933,-4.591,-4.5904,-4.5861,-4.5807,-4.5807,-4.5807,-4.5814,-4.5827,-4.5841,-4.5848,-4.5861,-4.5867,-4.5861,-4.5867,-4.5854,-4.5848,-4.5841,-4.5834,-4.5834,-4.5827,-4.5827,-4.5807,-4.5807,-4.5807,-4.5807,-4.5807,-4.5807,-4.5807,-4.5807,-4.5807,-4.5807,-4.5807,-4.5931,-4.6072,-4.1107,-4.1107,-4.1107,-4.1107,-4.1107,-4.1107,-4.1107,-4.1107,-4.1107,-4.1107,-4.1107,-4.1107,-4.1107,-4.1107,-4.1107,-4.1107,-4.1107,-4.1107,-4.1107,-4.111,-4.113,-4.1305,-4.1555,-4.1695,-4.1935,-4.1588,-4.1772,-4.2161,-4.273,-4.35,-4.4214,-4.5083,-4.5687,-4.6146,-4.597,-4.606,-4.6066,-4.6052,-4.5958,-4.5673,-4.5479,-4.5673,-4.5961,-4.6002,-4.5953,-4.5969,-4.5972,-4.598,-4.595,-4.6007,-4.6022,-4.6066,-4.6056,-4.6069,-4.6106,-4.6106,-4.6106,-4.608,-4.6012,-4.5988,-4.6003,-4.5847,-4.5541,-4.4869,-4.4191,-4.3646,-4.3015,-4.1765,-4.1935,-4.212,-4.2452,-4.3426,-4.4228,-4.4906,-4.56,-4.5936,-4.6102,-4.6047,-4.6012,-4.6022,-4.6027,-4.6012,-4.5997,-4.5964,-4.5923,-4.5905,-4.5911,-4.5898,-4.5929,-4.5941,-4.5941,-4.5941,-4.5941,-4.5941,-4.5941,-4.5922,-4.5922,-4.5916,-4.5916,-4.5904,-4.5861,-4.5848,-4.5848,-4.5815,-4.5821,-4.5814,-4.5814,-4.5807,-4.5807,-4.5807,-4.5807,-4.5848,-4.5886,-4.5988,-4.6112,-4.1107,-4.1107,-4.1107,-4.1107,-4.1107,-4.1107,-4.1107,-4.1107,-4.1107,-4.1107,-4.1107,-4.1107,-4.1107,-4.1107,-4.1107,-4.1107,-4.1107,-4.1107,-4.1107,-4.111,-4.11,-4.1128,-4.1293,-4.1646,-4.161,-4.1103,-4.1556,-4.2022,-4.2494,-4.3092,-4.4031,-4.5556,-4.5847,-4.5788,-4.5682,-4.5888,-4.605,-4.5678,-4.5648,-4.536,-4.5036,-4.5382,-4.578,-4.597,-4.6035,-4.6031,-4.6048,-4.6024,-4.6024,-4.6072,-4.6095,-4.6135,-4.6118,-4.6153,-4.6181,-4.6181,-4.6181,-4.5969,-4.5866,-4.5819,-4.5933,-4.5596,-4.4982,-4.3987,-4.2818,-4.2301,-4.1992,-4.1268,-4.1245,-4.1546,-4.2032,-4.2929,-4.3789,-4.4637,-4.5457,-4.5811,-4.6115,-4.6102,-4.6093,-4.6098,-4.6122,-4.6117,-4.6089,-4.6075,-4.6052,-4.6002,-4.5982,-4.6007,-4.6007,-4.6007,-4.5997,-4.5986,-4.598,-4.598,-4.5986,-4.5977,-4.6002,-4.6003,-4.6003,-4.5982,-4.5944,-4.5919,-4.5925,-4.5885,-4.5848,-4.5871,-4.5908,-4.5866,-4.5821,-4.5867,-4.5911,-4.5939,-4.6003,-4.6076,-4.6145,-4.1107,-4.1107,-4.1107,-4.1107,-4.1107,-4.1107,-4.1107,-4.1107,-4.1107,-4.111,-4.111,-4.111,-4.1114,-4.1097,-4.1087,-4.1087,-4.1117,-4.111,-4.1103,-4.1098,-4.1111,-4.1107,-4.1193,-4.1226,-4.1238,-4.1125,-4.1352,-4.1763,-4.2237,-4.2527,-4.3138,-4.3806,-4.5129,-4.4905,-4.5003,-4.5579,-4.5592,-4.5291,-4.5176,-4.5178,-4.4974,-4.5167,-4.5488,-4.6025,-4.6128,-4.6121,-4.6174,-4.6136,-4.6108,-4.6144,-4.6165,-4.6188,-4.6184,-4.6188,-4.6209,-4.6209,-4.621,-4.5872,-4.5467,-4.5588,-4.5595,-4.4978,-4.4161,-4.3285,-4.2278,-4.2283,-4.1932,-4.1232,-4.1124,-4.1136,-4.172,-4.2485,-4.3392,-4.4187,-4.5052,-4.5784,-4.607,-4.618,-4.6173,-4.6192,-4.6185,-4.6174,-4.6174,-4.6138,-4.6102,-4.6056,-4.6047,-4.6051,-4.6061,-4.6056,-4.6027,-4.6017,-4.6012,-4.6012,-4.6017,-4.6018,-4.6063,-4.6064,-4.6072,-4.6039,-4.5998,-4.6003,-4.6,-4.5983,-4.5969,-4.5985,-4.5978,-4.593,-4.5917,-4.5966,-4.5993,-4.6017,-4.608,-4.6145,-4.6206,-4.1107,-4.1107,-4.1107,-4.1107,-4.1107,-4.1107,-4.1107,-4.1107,-4.1107,-4.1117,-4.1106,-4.1106,-4.1072,-4.1039,-4.1026,-4.1031,-4.1038,-4.102,-4.1052,-4.1088,-4.1114,-4.1117,-4.1101,-4.1106,-4.111,-4.1113,-4.115,-4.156,-4.2324,-4.2304,-4.248,-4.322,-4.4117,-4.458,-4.4815,-4.517,-4.5129,-4.4775,-4.5029,-4.5459,-4.5048,-4.5474,-4.5867,-4.6124,-4.618,-4.6174,-4.6202,-4.618,-4.6181,-4.6184,-4.6205,-4.6206,-4.6207,-4.6206,-4.6167,-4.6148,-4.6128,-4.5639,-4.4974,-4.5055,-4.4772,-4.362,-4.3004,-4.254,-4.1799,-4.1633,-4.1496,-4.1181,-4.1104,-4.11,-4.1328,-4.2165,-4.3045,-4.3759,-4.4627,-4.5594,-4.6016,-4.6167,-4.6195,-4.6212,-4.6213,-4.6192,-4.6192,-4.6192,-4.6158,-4.6142,-4.6115,-4.6111,-4.6102,-4.6106,-4.6087,-4.6076,-4.6076,-4.6099,-4.6107,-4.6102,-4.6115,-4.6125,-4.6117,-4.6099,-4.6063,-4.6069,-4.6064,-4.6072,-4.606,-4.6075,-4.6047,-4.6006,-4.6006,-4.6053,-4.6064,-4.6082,-4.6153,-4.621,-4.6245,-4.1107,-4.1107,-4.1107,-4.1107,-4.1107,-4.1107,-4.1107,-4.1107,-4.1107,-4.1092,-4.1079,-4.1046,-4.1033,-4.0992,-4.0995,-4.0996,-4.0996,-4.0996,-4.1035,-4.1074,-4.1093,-4.1113,-4.1113,-4.1113,-4.111,-4.1109,-4.1132,-4.1503,-4.189,-4.1986,-4.1988,-4.2166,-4.2597,-4.3144,-4.3633,-4.4531,-4.4453,-4.3965,-4.4219,-4.4844,-4.4238,-4.4863,-4.5312,-4.543,-4.5547,-4.5742,-4.5742,-4.5742,-4.5957,-4.6113,-4.623,-4.623,-4.623,-4.6191,-4.6074,-4.5937,-4.5742,-4.5351,-4.4511,-4.4018,-4.3625,-4.2782,-4.2164,-4.1736,-4.1307,-4.1113,-4.1152,-4.1151,-4.1113,-4.1113,-4.1208,-4.2222,-4.306,-4.3854,-4.5004,-4.5916,-4.6069,-4.62,-4.621,-4.6201,-4.6211,-4.6211,-4.6214,-4.6197,-4.6186,-4.6167,-4.6162,-4.6158,-4.6162,-4.6173,-4.6177,-4.6167,-4.6178,-4.6177,-4.6195,-4.6173,-4.6152,-4.6156,-4.6163,-4.6167,-4.6145,-4.6136,-4.6155,-4.6142,-4.614,-4.6147,-4.615,-4.6129,-4.6136,-4.6123,-4.6152,-4.6181,-4.6195,-4.6249,-4.6268,-4.1107,-4.1107,-4.1107,-4.1107,-4.1107,-4.1107,-4.1107,-4.111,-4.111,-4.1072,-4.1015,-4.1023,-4.1015,-4.0992,-4.0988,-4.0985,-4.0985,-4.0991,-4.0993,-4.1027,-4.1062,-4.1099,-4.1094,-4.1085,-4.1083,-4.1108,-4.1115,-4.1175,-4.1247,-4.1349,-4.1309,-4.1289,-4.155,-4.1609,-4.1387,-4.2145,-4.2477,-4.2497,-4.2714,-4.2912,-4.3148,-4.3775,-4.4088,-4.4304,-4.4714,-4.5008,-4.5008,-4.5008,-4.5242,-4.5632,-4.5787,-4.5807,-4.5845,-4.5883,-4.5629,-4.5081,-4.5019,-4.4218,-4.2794,-4.2578,-4.238,-4.2205,-4.1679,-4.1288,-4.1149,-4.1106,-4.1103,-4.1111,-4.1106,-4.1149,-4.1679,-4.2382,-4.3007,-4.4081,-4.5213,-4.5797,-4.5933,-4.6222,-4.6238,-4.6207,-4.6196,-4.6202,-4.6202,-4.6198,-4.6212,-4.6206,-4.6213,-4.6206,-4.6203,-4.6201,-4.6204,-4.621,-4.6199,-4.6212,-4.6219,-4.6203,-4.6203,-4.6205,-4.6208,-4.6209,-4.623,-4.623,-4.623,-4.6226,-4.6209,-4.6211,-4.6248,-4.6282,-4.625,-4.6208,-4.6249,-4.6269,-4.6288,-4.6307,-4.6288,-4.1107,-4.1107,-4.1107,-4.1107,-4.1107,-4.1107,-4.1107,-4.111,-4.1106,-4.1048,-4.1023,-4.105,-4.1031,-4.1002,-4.0979,-4.0994,-4.0981,-4.0995,-4.0978,-4.0998,-4.1033,-4.103,-4.1025,-4.1039,-4.1037,-4.1047,-4.1076,-4.1107,-4.1146,-4.1099,-4.1108,-4.1109,-4.1109,-4.1109,-4.1539,-4.2279,-4.3061,-4.265,-4.2925,-4.3295,-4.3255,-4.3491,-4.3627,-4.3627,-4.3938,-4.4133,-4.4153,-4.4133,-4.4387,-4.472,-4.4797,-4.4777,-4.4758,-4.4758,-4.4543,-4.4172,-4.4114,-4.3645,-4.2534,-4.2022,-4.1576,-4.1458,-4.136,-4.1101,-4.1117,-4.1115,-4.1115,-4.1137,-4.1193,-4.1394,-4.2098,-4.1768,-4.2354,-4.4052,-4.509,-4.5388,-4.5644,-4.6074,-4.6269,-4.6224,-4.6204,-4.6206,-4.6207,-4.6229,-4.6223,-4.6217,-4.6225,-4.6216,-4.6202,-4.6206,-4.6195,-4.6195,-4.62,-4.6227,-4.623,-4.623,-4.6249,-4.6248,-4.6265,-4.6261,-4.6277,-4.63,-4.6281,-4.6267,-4.6278,-4.6303,-4.6287,-4.629,-4.6291,-4.6296,-4.63,-4.6302,-4.6303,-4.6303,-4.6304,-4.1107,-4.1107,-4.1107,-4.1107,-4.1107,-4.1107,-4.1107,-4.1114,-4.1095,-4.1044,-4.1014,-4.1054,-4.1031,-4.0974,-4.0953,-4.0964,-4.0975,-4.0992,-4.0968,-4.096,-4.099,-4.0997,-4.0997,-4.0993,-4.1007,-4.1013,-4.1025,-4.1059,-4.1061,-4.1107,-4.1101,-4.1108,-4.1109,-4.1109,-4.1441,-4.2046,-4.2396,-4.2025,-4.2259,-4.2515,-4.2671,-4.2884,-4.3001,-4.2884,-4.3001,-4.3255,-4.3255,-4.3294,-4.3391,-4.353,-4.3647,-4.3666,-4.3666,-4.3666,-4.3549,-4.3372,-4.2866,-4.2533,-4.187,-4.1539,-4.1232,-4.1172,-4.1109,-4.1109,-4.1109,-4.1109,-4.1109,-4.1169,-4.1304,-4.1792,-4.2163,-4.1695,-4.2923,-4.466,-4.5153,-4.5496,-4.5771,-4.6205,-4.6284,-4.625,-4.623,-4.623,-4.623,-4.623,-4.6249,-4.625,-4.623,-4.623,-4.6208,-4.6228,-4.6229,-4.6229,-4.623,-4.6249,-4.6265,-4.6283,-4.6276,-4.6303,-4.6302,-4.6302,-4.6302,-4.6291,-4.6305,-4.6302,-4.6302,-4.6302,-4.6302,-4.6303,-4.6305,-4.6287,-4.629,-4.6294,-4.6296,-4.6299,-4.6301,-4.1107,-4.1107,-4.1107,-4.1107,-4.1107,-4.111,-4.111,-4.1114,-4.1103,-4.1059,-4.0991,-4.1001,-4.0991,-4.0909,-4.0893,-4.0897,-4.0921,-4.0971,-4.0948,-4.0939,-4.096,-4.0968,-4.0972,-4.0996,-4.0968,-4.097,-4.099,-4.1013,-4.1016,-4.1076,-4.1117,-4.1106,-4.1109,-4.1109,-4.1246,-4.1343,-4.1461,-4.1461,-4.15,-4.1656,-4.1753,-4.2025,-4.1986,-4.1908,-4.2045,-4.2298,-4.2357,-4.2376,-4.2767,-4.3099,-4.343,-4.3469,-4.353,-4.3588,-4.306,-4.2415,-4.1615,-4.1422,-4.1285,-4.1148,-4.1129,-4.1109,-4.1109,-4.1109,-4.1109,-4.1109,-4.1109,-4.1265,-4.1479,-4.2025,-4.2396,-4.3313,-4.427,-4.5109,-4.5617,-4.5914,-4.6129,-4.6306,-4.6306,-4.6291,-4.6273,-4.6274,-4.6277,-4.6274,-4.628,-4.6279,-4.6262,-4.6247,-4.6249,-4.6268,-4.6267,-4.6267,-4.6282,-4.6291,-4.6305,-4.629,-4.6288,-4.6302,-4.6302,-4.6302,-4.6302,-4.6302,-4.6302,-4.6302,-4.6302,-4.6302,-4.6302,-4.6302,-4.6302,-4.6303,-4.6305,-4.6305,-4.629,-4.6295,-4.6296,-4.1107,-4.1107,-4.1107,-4.1107,-4.111,-4.1103,-4.1109,-4.1112,-4.1098,-4.1065,-4.0984,-4.0995,-4.0839,-4.0897,-4.0888,-4.0869,-4.0854,-4.0921,-4.0902,-4.0882,-4.0809,-4.0891,-4.093,-4.0935,-4.092,-4.0937,-4.098,-4.099,-4.1019,-4.1076,-4.1099,-4.1108,-4.1109,-4.1109,-4.1109,-4.1109,-4.1109,-4.1109,-4.1109,-4.1109,-4.1109,-4.1439,-4.1303,-4.1343,-4.1382,-4.1596,-4.1596,-4.1576,-4.1849,-4.1888,-4.191,-4.187,-4.1851,-4.1851,-4.1597,-4.1539,-4.1226,-4.1129,-4.1109,-4.1109,-4.1109,-4.1109,-4.1109,-4.1109,-4.1109,-4.1109,-4.1109,-4.1285,-4.1596,-4.2084,-4.2767,-4.3704,-4.4777,-4.5578,-4.5909,-4.5909,-4.6124,-4.6302,-4.6302,-4.6302,-4.6302,-4.6302,-4.6302,-4.6303,-4.629,-4.6285,-4.6285,-4.6274,-4.6278,-4.6297,-4.6297,-4.6295,-4.6293,-4.6302,-4.6302,-4.6305,-4.6303,-4.6302,-4.6302,-4.6302,-4.6302,-4.6302,-4.6302,-4.6302,-4.6302,-4.6302,-4.6302,-4.6302,-4.6302,-4.6302,-4.6302,-4.6302,-4.6302,-4.6288,-4.6291,-4.0799,-4.1088,-4.1107,-4.0912,-4.0548,-4.0218,-4.0079,-4.0136,-4.0423,-4.0546,-4.048,-4.0446,-4.0295,-3.9939,-4.015,-4.0189,-3.98,-3.9766,-3.9897,-4.0344,-4.048,-4.0679,-4.0752,-4.0888,-4.0893,-4.0926,-4.0952,-4.0988,-4.1007,-4.1072,-4.1117,-4.1109,-4.1109,-4.1109,-4.1109,-4.1109,-4.1109,-4.1109,-4.1109,-4.1109,-4.1109,-4.1109,-4.1109,-4.1109,-4.1109,-4.1109,-4.1109,-4.1109,-4.1109,-4.1109,-4.1109,-4.1109,-4.1148,-4.1148,-4.1148,-4.1148,-4.1129,-4.1109,-4.1109,-4.1109,-4.1109,-4.1109,-4.1109,-4.1109,-4.1109,-4.1109,-4.1109,-4.1207,-4.1615,-4.2103,-4.2903,-4.3762,-4.4933,-4.6066,-4.5948,-4.5812,-4.6027,-4.6262,-4.6302,-4.6302,-4.6302,-4.6302,-4.6302,-4.6302,-4.6302,-4.6302,-4.6302,-4.6285,-4.6288,-4.6288,-4.6288,-4.6287,-4.6305,-4.6302,-4.6302,-4.6302,-4.6302,-4.6302,-4.6302,-4.6302,-4.6302,-4.6302,-4.6302,-4.6302,-4.6302,-4.6302,-4.6302,-4.6302,-4.6302,-4.6302,-4.6302,-4.6302,-4.6302,-4.6303,-4.6305,-4.0214,-4.0838,-4.0893,-4.0351,-3.9636,-3.8922,-3.8622,-3.8549,-3.9255,-3.9584,-3.957,-3.9602,-3.9211,-3.8963,-3.9295,-3.9198,-3.895,-3.8814,-3.912,-3.9621,-3.9854,-4.0145,-4.0558,-4.0869,-4.0888,-4.0921,-4.0943,-4.0972,-4.0999,-4.1048,-4.1085,-4.1106,-4.1104,-4.1104,-4.1108,-4.1109,-4.1109,-4.1109,-4.1109,-4.1109,-4.1109,-4.1109,-4.1109,-4.1109,-4.1109,-4.1109,-4.1109,-4.1109,-4.1109,-4.1109,-4.1109,-4.1109,-4.1109,-4.1109,-4.1109,-4.1109,-4.1109,-4.1109,-4.1109,-4.1109,-4.1109,-4.1109,-4.1109,-4.1109,-4.1109,-4.1109,-4.1109,-4.1148,-4.1518,-4.2064,-4.2806,-4.3645,-4.4719,-4.5636,-4.5909,-4.5948,-4.6163,-4.6302,-4.6302,-4.6302,-4.6302,-4.6302,-4.6302,-4.6302,-4.6302,-4.6302,-4.6302,-4.6302,-4.6302,-4.6302,-4.6302,-4.6302,-4.6302,-4.6302,-4.6302,-4.6302,-4.6302,-4.6302,-4.6302,-4.6302,-4.6302,-4.6302,-4.6302,-4.6302,-4.6302,-4.6302,-4.6302,-4.6302,-4.6302,-4.6302,-4.6302,-4.6302,-4.6302,-4.6302,-4.6302,-3.9529,-3.9123,-3.9123,-3.8993,-3.8809,-3.8592,-3.8444,-3.8375,-3.7942,-3.8175,-3.8614,-3.8675,-3.8546,-3.8318,-3.8523,-3.8464,-3.8309,-3.8037,-3.8464,-3.8868,-3.9198,-3.9601,-4.0106,-4.0558,-4.0791,-4.0888,-4.093,-4.0964,-4.099,-4.1022,-4.1069,-4.1101,-4.1095,-4.109,-4.1103,-4.1104,-4.1106,-4.1104,-4.1106,-4.1108,-4.1109,-4.1109,-4.1109,-4.1109,-4.1109,-4.1109,-4.1109,-4.1109,-4.1109,-4.1109,-4.1109,-4.1109,-4.1109,-4.1109,-4.1109,-4.1109,-4.1109,-4.1108,-4.1106,-4.1106,-4.1087,-4.1106,-4.1106,-4.1108,-4.1109,-4.1109,-4.1127,-4.1186,-4.1441,-4.2006,-4.2747,-4.3626,-4.4484,-4.5246,-4.5929,-4.6124,-4.6302,-4.6302,-4.6302,-4.6302,-4.6302,-4.6302,-4.6302,-4.6302,-4.6302,-4.6302,-4.6302,-4.6302,-4.6302,-4.6302,-4.6302,-4.6302,-4.6302,-4.6302,-4.6302,-4.6302,-4.6302,-4.6302,-4.6302,-4.6302,-4.6302,-4.6302,-4.6302,-4.6302,-4.6302,-4.6302,-4.6302,-4.6302,-4.6302,-4.6302,-4.6302,-4.6302,-4.6302,-4.6302,-4.6302,-3.8597,-3.8441,-3.8077,-3.791,-3.7864,-3.7526,-3.7322,-3.7197,-3.6804,-3.6843,-3.7277,-3.7578,-3.7634,-3.7474,-3.7629,-3.7551,-3.7392,-3.7217,-3.745,-3.7897,-3.8402,-3.9023,-3.9548,-4.015,-4.0577,-4.0752,-4.09,-4.0957,-4.0981,-4.1013,-4.1037,-4.1059,-4.1064,-4.1064,-4.1064,-4.109,-4.1095,-4.1115,-4.1095,-4.1099,-4.1104,-4.1108,-4.1109,-4.1109,-4.1109,-4.1109,-4.1109,-4.1109,-4.1109,-4.1109,-4.1109,-4.1109,-4.1109,-4.1109,-4.1109,-4.1109,-4.1108,-4.1106,-4.1101,-4.1101,-4.108,-4.1072,-4.1094,-4.1092,-4.1054,-4.1054,-4.1074,-4.1115,-4.1147,-4.1654,-4.2845,-4.3801,-4.4758,-4.5578,-4.5987,-4.6243,-4.6302,-4.6302,-4.6302,-4.6302,-4.6302,-4.6302,-4.6302,-4.6302,-4.6302,-4.63,-4.63,-4.6302,-4.6302,-4.6302,-4.6302,-4.6302,-4.6302,-4.6302,-4.6302,-4.6302,-4.6302,-4.6302,-4.6302,-4.6302,-4.6302,-4.6302,-4.6302,-4.6302,-4.6302,-4.6302,-4.6302,-4.6302,-4.6302,-4.6302,-4.6302,-4.6302,-4.6302,-4.6302,-4.6302,-3.7662,-3.8168,-3.7383,-3.706,-3.6935,-3.6279,-3.5957,-3.5962,-3.5919,-3.5911,-3.6025,-3.6681,-3.6397,-3.6319,-3.6474,-3.6222,-3.6125,-3.628,-3.6513,-3.6824,-3.7178,-3.7974,-3.8844,-3.9582,-4.0228,-4.0703,-4.092,-4.0976,-4.0977,-4.0993,-4.099,-4.0984,-4.0987,-4.0987,-4.1,-4.1053,-4.1091,-4.1069,-4.1074,-4.1083,-4.1094,-4.1104,-4.1106,-4.1106,-4.1109,-4.1109,-4.1109,-4.1109,-4.1109,-4.1101,-4.1078,-4.1094,-4.1074,-4.1072,-4.1074,-4.1074,-4.1072,-4.1083,-4.1079,-4.1085,-4.1052,-4.1039,-4.1064,-4.1059,-4.1016,-4.1025,-4.103,-4.1042,-4.1074,-4.1509,-4.2699,-4.3814,-4.477,-4.5568,-4.5863,-4.6273,-4.6292,-4.6292,-4.6292,-4.6292,-4.6275,-4.6275,-4.6292,-4.6292,-4.6298,-4.6298,-4.63,-4.63,-4.6302,-4.6302,-4.6302,-4.6302,-4.6302,-4.6302,-4.6302,-4.6302,-4.6302,-4.6302,-4.6302,-4.6302,-4.6302,-4.6302,-4.6302,-4.6302,-4.6302,-4.6302,-4.6302,-4.6302,-4.6302,-4.6302,-4.6302,-4.6302,-4.6302,-4.6302,-4.6302,-3.7292,-3.7372,-3.6509,-3.6207,-3.6204,-3.5969,-3.5897,-3.5895,-3.5892,-3.5853,-3.585,-3.5892,-3.5892,-3.5795,-3.5911,-3.5872,-3.5892,-3.5795,-3.5795,-3.6067,-3.6673,-3.7236,-3.8048,-3.9232,-4.0111,-4.0625,-4.0926,-4.0948,-4.0961,-4.0941,-4.0953,-4.0981,-4.0991,-4.0983,-4.0987,-4.1019,-4.1022,-4.1019,-4.1019,-4.1028,-4.1037,-4.1054,-4.1094,-4.1101,-4.1109,-4.1109,-4.1109,-4.1109,-4.1099,-4.1083,-4.1047,-4.1042,-4.1039,-4.1022,-4.1022,-4.1025,-4.1025,-4.1034,-4.1031,-4.1037,-4.1,-4.1007,-4.1013,-4.1016,-4.1,-4.1,-4.0997,-4.0997,-4.105,-4.1112,-4.2109,-4.3245,-4.4223,-4.4863,-4.5312,-4.5916,-4.6228,-4.6228,-4.6228,-4.6237,-4.6226,-4.624,-4.6231,-4.6245,-4.6249,-4.6251,-4.6277,-4.6278,-4.6302,-4.6302,-4.6302,-4.6302,-4.6302,-4.6302,-4.6302,-4.6302,-4.6302,-4.6302,-4.6302,-4.6302,-4.6302,-4.6302,-4.6302,-4.6302,-4.6302,-4.6302,-4.6302,-4.6302,-4.6302,-4.6302,-4.6302,-4.6302,-4.6302,-4.6302,-4.6302]},{"header":{"parameterUnit":"m.s-1","parameterCategory":1,"la1":31.0,"la2":29.5877,"lo1":-88.7671,"lo2":-86.6584,"dy":0.0162,"dx":0.0185,"nx":115,"ny":88,"refTime":"2024-06-27T06:00:00:Z","depth":0,"parameterNumber":3,"parameterNumberName":"V-component_of_WINDS"},"data":[0.0,0.0,0.0,0.0,0.0,0.0,0.0,0.0,0.0,0.0,0.0,0.0,0.0,0.0,0.0,0.0,0.0,0.0,0.0,0.0,0.0,0.0,0.0,0.0,0.0,0.0,0.0,0.0,0.0,0.0,0.0,0.0,0.0,0.0,0.0,0.0,0.0,0.0,0.0,0.0,0.0,0.0,0.0,0.0,0.0,0.0,0.0,0.0,0.0,0.0,0.0,0.0,0.0,0.0,0.0,0.0,0.0,0.0,0.0,0.0,0.0,0.0,0.0,0.0,0.0,0.0,0.0,0.0,0.0,0.0,0.0,0.0,0.0,0.0,0.0,0.0,0.0,0.0,0.0,0.0,0.0,0.0,0.0,0.0,0.0,0.0,0.0,0.0,0.0,0.0,0.0,0.0,0.0,0.0,0.0,0.0,0.0,0.0,0.0,0.0,0.0,0.0,0.0,0.0,0.0,0.0,0.0,0.0,0.0,0.0,0.0,0.0,0.0,0.0,0.0,0.0,0.0,0.0,0.0,0.0,0.0,0.0,0.0,0.0,0.0,0.0,0.0,0.0,0.0,0.0,0.0,0.0,0.0,0.0,0.0,0.0,0.0,0.0,0.0,0.0,0.0,0.0,0.0,0.0,0.0,0.0,0.0,0.0,0.0,0.0,0.0,0.0,0.0,0.0,0.0,0.0,0.0,0.0,0.0,0.0,0.0,0.0,0.0,0.0,0.0,0.0,0.0,0.0,0.0,0.0,0.0,0.0,0.0,0.0,0.0,0.0,0.0,0.0,0.0,0.0,0.0,0.0,0.0,0.0,0.0,0.0,0.0,0.0,0.0,0.0,0.0,0.0,0.0,0.0,0.0,0.0,0.0,0.0,0.0,0.0,0.0,0.0,0.0,0.0,0.0,0.0,0.0,0.0,0.0,0.0,0.0,0.0,0.0,0.0,0.0,0.0,0.0,0.0,0.0,0.0,0.0,0.0,0.0,0.0,0.0,0.0,0.0,0.0,0.0,0.0,0.0,0.0,0.0,0.0,0.0,0.0,0.0,0.0,0.0,0.0,0.0,0.0,0.0,0.0,0.0,0.0,0.0,0.0,0.0,0.0,0.0,0.0,0.0,0.0,0.0,0.0,0.0,0.0,0.0,0.0,0.0,0.0,0.0,0.0,0.0,0.0,0.0,0.0,0.0,0.0,0.0,0.0,0.0,0.0,0.0,0.0,0.0,0.0,0.0,0.0,0.0,0.0,0.0,0.0,0.0,0.0,0.0,0.0,0.0,0.0,0.0,0.0,0.0,0.0,0.0,0.0,0.0,0.0,0.0,0.0,0.0,0.0,0.0,0.0,0.0,0.0,0.0,0.0,0.0,0.0,0.0,0.0,0.0,0.0,0.0,0.0,0.0,0.0,0.0,0.0,0.0,0.0,0.0,0.0,0.0,0.0,0.0,0.0,0.0,0.0,0.0,0.0,0.0,0.0,0.0,0.0,0.0,0.0,0.0,0.0,0.0,0.0,0.0,0.0,0.0,0.0,0.0,0.0,0.0,0.0,0.0,0.0,0.0,0.0,0.0,0.0,0.0,0.0,0.0,0.0,0.0,0.0,0.0,0.0,0.0,0.0,0.0,0.0,0.0,0.0,0.0,0.0,0.0,0.0,0.0,0.0,0.0,0.0,0.0,0.0,0.0,0.0,0.0,0.0,0.0,0.0,0.0,0.0,0.0,0.0,0.0,0.0,0.0,0.0,0.0,0.0,0.0,0.0,0.0,0.0,0.0,0.0,0.0,0.0,0.0,0.0,0.0,0.0,0.0,0.0,0.0,0.0,0.0,0.0,0.0,0.0,0.0,0.0,0.0,0.0,0.0,0.0,0.0,0.0,0.0,0.0,0.0,0.0,0.0,0.0,0.0,0.0,0.0,0.0,0.0,0.0,0.0,0.0,0.0,0.0,0.0,0.0,0.0,0.0,0.0,0.0,0.0,0.0,0.0,0.0,0.0,0.0,0.0,0.0,0.0,0.0,0.0,0.0,0.0,0.0,0.0,0.0,0.0,0.0,0.0,0.0,0.0,0.0,0.0,0.0,0.0,0.0,0.0,0.0,0.0,0.0,0.0,0.0,0.0,0.0,0.0,0.0,0.0,0.0,0.0,0.0,0.0,0.0,0.0,0.0,0.0,0.0,0.0,0.0,0.0,0.0,0.0,0.0,0.0,0.0,0.0,0.0,0.0,0.0,0.0,0.0,0.0,0.0,0.0,0.0,0.0,0.0,0.0,0.0,0.0,0.0,0.0,0.0,0.0,0.0,0.0,0.0,0.0,0.0,0.0,0.0,0.0,0.0,0.0,0.0,0.0,0.0,0.0,0.0,0.0,0.0,0.0,0.0,0.0,0.0,0.0,0.0,0.0,0.0,0.0,0.0,0.0,0.0,0.0,0.0,0.0,0.0,0.0,0.0,0.0,0.0,0.0,0.0,0.0,0.0,0.0,0.0,0.0,0.0,0.0,0.0,0.0,0.0,0.0,0.0,0.0,0.0,0.0,0.0,0.0,0.0,0.0,0.0,0.0,0.0,0.0,0.0,0.0,0.0,0.0,0.0,0.0,0.0,0.0,0.0,0.0,0.0,0.0,0.0,0.0,0.0,0.0,0.0,0.0,0.0,0.0,0.0,0.0,0.0,0.0,0.0,0.0,0.0,0.0,0.0,0.0,0.0,0.0,0.0,0.0,0.0,0.0,0.0,0.0,0.0,0.0,0.0,0.0,0.0,0.0,0.0,0.0,0.0,0.0,0.0,0.0,0.0,0.0,0.0,0.0,0.0,0.0,0.0,0.0,0.0,0.0,0.0,0.0,0.0,0.0,0.0,0.0,0.0,0.0,0.0,0.0,0.0,0.0,0.0,0.0,0.0,0.0,0.0,0.0,0.0,0.0,0.0,0.0,0.0,0.0,0.0,0.0,0.0,0.0,0.0,0.0,0.0,0.0,0.0,0.0,0.0,0.0,0.0,0.0,0.0,0.0,0.0,0.0,0.0,0.0,0.0,0.0,0.0,0.0,0.0,0.0,0.0,0.0,0.0,0.0,0.0,0.0,0.0,0.0,0.0,0.0,0.0,0.0,0.0,0.0,0.0,0.0,0.0,0.0,0.0,0.0,0.0,0.0,0.0,0.0,0.0,0.0,0.0,0.0,0.0,0.0,0.0,0.0,0.0,0.0,0.0,0.0,0.0,0.0,0.0,0.0,0.0,0.0,0.0,0.0,0.0,0.0,0.0,0.0,0.0,0.0,0.0,0.0,0.0,0.0,0.0,0.0,0.0,0.0,0.0,0.0,0.0,0.0,0.0,0.0,0.0,0.0,0.0,0.0,0.0,0.0,0.0,0.0,0.0,0.0,0.0,0.0,0.0,0.0,0.0,0.0,0.0,0.0,0.0,0.0,0.0,0.0,0.0,0.0,0.0,0.0,0.0,0.0,0.0,0.0,0.0,0.0,0.0,0.0,0.0,0.0,0.0,0.0,0.0,0.0,0.0,0.0,0.0,0.0,0.0,0.0,0.0,0.0,0.0,0.0,0.0,0.0,0.0,0.0,0.0,0.0,0.0,0.0,0.0,0.0,0.0,0.0,0.0,0.0,0.0,0.0,0.0,0.0,0.0,0.0,0.0,0.0,0.0,0.0,0.0,0.0,0.0,0.0,0.0,0.0,0.0,0.0,0.0,0.0,0.0,0.0,0.0,0.0,0.0,0.0,0.0,0.0,0.0,0.0,0.0,0.0,0.0,0.0,0.0,0.0,0.0,0.0,0.0,0.0,0.0,0.0,0.0,0.0,0.0,0.0,0.0,0.0,0.0,0.0,0.0,0.0,0.0,0.0,0.0,0.0,0.0,0.0,0.0,0.0,0.0,0.0,0.0,0.0,0.0,0.0,0.0,0.0,0.0,0.0,0.0,0.0,0.0,0.0,0.0,0.0,0.0,0.0,0.0,0.0,0.0,0.0,0.0,0.0,0.0,0.0,0.0,0.0,0.0,0.0,0.0,0.0,0.0,0.0,0.0,0.0,0.0,0.0,0.0,0.0,0.0,0.0,0.0,0.0,0.0,0.0,0.0,0.0,0.0,0.0,0.0,0.0,0.0,0.0,0.0,0.0,0.0,0.0,0.0,0.0,0.0,0.0,0.0,0.0,0.0,0.0,0.0,0.0,0.0,0.0,0.0,0.0,0.0,0.0,0.0,0.0,0.0,0.0,0.0,0.0,0.0,0.0,0.0,0.0,0.0,0.0,0.0,0.6763,0.0,0.0,0.0,0.0,0.0,0.0,0.0,0.0,0.0,0.0,0.0,0.0,0.0,0.0,0.0,0.0,0.0,0.0,0.0,0.0,0.0,0.0,0.0,0.0,0.0,0.0,0.0,0.0,0.0,0.0,0.0,0.0,0.0,0.0,0.0,0.0,0.0,0.0,0.0,0.0,0.0,0.0,0.0,0.0,0.0,0.0,0.0,0.0,0.0,0.0,0.0,0.0,0.0,0.0,0.0,0.0,0.0,0.0,0.0,0.0,0.0,0.0,0.0,0.0,0.0,0.0,0.0,0.0,0.0,0.0,0.0,0.0,0.0,0.0,0.0,0.0,0.0,0.0,0.0,0.0,0.0,0.0,0.0,0.0,0.0,0.0,0.0,0.0,0.0,0.0,0.0,0.0,0.0,0.0,0.0,0.0,0.0,0.0,0.0,0.0,0.0,0.0,0.0,0.0,0.0,0.0,0.0,0.0,0.0,0.0,0.7769,0.7669,0.7669,0.739,0.6815,0.0,0.0,0.0,0.0,0.0,0.0,0.0,0.0,0.0,0.0,0.0,0.0,0.0,0.0,0.0,0.0,0.0,0.0,0.0,0.0,0.0,0.0,0.0,0.0,0.0,0.0,0.0,0.0,0.0,0.0,0.0,0.0,0.0,0.0,0.0,0.0,0.0,0.0,0.0,0.0,0.0,0.0,0.0,0.0,0.0,0.0,0.0,0.0,0.0,0.0,0.0,0.0,0.0,0.0,0.0,0.0,0.0,0.0,0.0,0.0,0.0,0.0,0.0,0.0,0.0,0.0,0.0,0.0,0.0,0.0,0.0,0.0,0.0,0.0,0.0,0.0,0.0,0.0,0.0,0.0,0.0,0.0,0.0,0.0,0.0,0.0,0.0,0.0,0.0,0.0,0.0,0.0,0.0,0.0,0.0,0.0,0.0,0.0,0.0,0.0,0.0,0.0,0.0,0.0,0.0,0.0,0.0,0.0,0.0,0.0,0.0,0.0,0.7978,0.7611,0.6832,0.0,0.0,0.0,0.0,0.0,0.0,0.0,0.0,0.0,0.0,0.0,0.0,0.0,0.0,0.0,0.0,0.0,0.0,0.0,0.0,0.0,0.0,0.0,0.0,0.0,0.0,0.0,0.0,0.0,0.0,0.0,0.0,0.0,0.0,0.0,0.0,0.0,0.0,0.0,0.0,0.0,0.0,0.0,0.0,0.0,0.0,0.0,0.0,0.0,0.0,0.0,0.0,0.0,0.0,0.0,0.0,0.0,0.0,0.0,0.0,0.0,0.0,0.0,0.0,0.0,0.0,0.0,0.0,0.0,0.0,0.0,0.0,0.0,0.0,0.0,0.0,0.0,0.0,0.0,0.0,0.0,0.0,0.0,0.0,0.0,0.0,0.0,0.0,0.0,0.0,0.0,0.0,0.0,0.0,0.0,0.0,0.0,0.0,0.0,0.0,0.0,0.0,0.0,0.0,0.0,0.0,0.0,0.0,0.0,0.0,0.8087,0.8061,0.8411,0.0,0.6872,0.0,0.0,0.0,0.0,0.0,0.0,0.0,0.0,0.0,0.0,0.0,0.0,0.0,0.0,0.0,0.0,0.0,0.0,0.0,0.0,0.0,0.0,0.0,0.0,0.0,0.0,0.0,0.0,0.0,0.0,0.0,0.0,0.0,0.0,0.0,0.0,0.0,0.0,0.0,0.0,0.0,0.0,0.0,0.0,0.0,0.0,0.0,0.0,0.0,0.0,0.0,0.0,0.0,0.0,0.0,0.0,0.0,0.0,0.0,0.0,0.0,0.0,0.0,0.0,0.0,0.0,0.0,0.0,0.0,0.0,0.0,0.0,0.0,0.0,0.0,0.0,0.0,0.0,0.0,0.0,0.0,0.0,0.0,0.0,0.0,0.0,0.0,0.0,0.0,0.0,0.0,0.0,0.0,0.0,0.0,0.0,0.0,0.0,0.0,0.0,0.0,0.0,0.0,0.0,0.0,0.0,0.0,0.0,0.0,0.0,0.8325,0.8444,0.7887,0.7331,0.0,0.0,0.0,0.0,0.0,0.0,0.0,0.0,0.0,0.0,0.0,0.0,0.0,0.0,0.0,0.0,0.0,0.0,0.0,0.0,0.0,0.0,0.0,0.0,0.0,0.0,0.0,0.0,0.0,0.0,0.0,0.0,0.0,0.0,0.0,0.0,0.0,0.0,0.0,0.0,0.0,0.0,0.0,0.0,0.0,0.0,0.0,0.0,0.0,0.0,0.0,0.0,0.0,0.0,0.0,0.0,0.0,0.0,0.0,0.0,0.0,0.0,0.0,0.0,0.0,0.0,0.0,0.0,0.0,0.0,0.0,0.0,0.0,0.0,0.0,0.0,0.0,0.0,0.0,0.0,0.0,0.0,0.0,0.0,0.0,0.0,0.0,0.0,0.0,0.0,0.0,0.0,0.0,0.0,0.0,0.0,0.0,0.0,0.0,0.0,0.0,0.0,0.0,0.0,0.0,0.0,0.0,0.0,0.0,0.0,0.8349,0.8449,0.8502,0.7509,0.6751,0.6416,0.0,0.0,0.0,0.0,0.0,0.0,0.0,0.0,0.0,0.0,0.0,0.0,0.0,0.0,0.0,0.0,0.0,0.0,0.0,0.0,0.0,0.0,0.0,0.0,0.0,0.0,0.0,0.0,0.0,0.0,0.0,0.0,0.0,0.0,0.0,0.0,0.0,0.0,0.0,0.0,0.0,0.0,0.0,0.0,0.0,0.0,0.0,0.0,0.0,0.0,0.0,0.0,0.0,0.0,0.0,0.0,0.0,0.0,0.0,0.0,0.0,0.0,0.0,0.0,0.0,0.0,0.0,0.0,0.0,0.0,0.0,0.0,0.0,0.0,0.0,0.0,0.0,0.0,0.0,0.0,0.0,0.0,0.0,0.0,0.0,0.0,0.0,0.0,0.0,0.0,0.0,0.0,0.0,0.0,0.0,0.0,0.0,0.0,0.0,0.0,0.0,0.0,0.0,0.0,0.0,0.0,0.0,0.0,0.8618,0.85,0.8327,0.8221,0.7532,0.6657,0.0,0.0,0.0,0.0,0.0,0.0,0.0,0.0,0.0,0.0,0.0,0.0,0.0,0.0,0.0,0.0,0.0,0.0,0.0,0.0,0.0,0.0,0.0,0.0,0.0,0.0,0.0,0.0,0.0,0.0,0.0,0.0,0.0,0.0,0.0,0.0,0.0,0.0,0.0,0.0,0.0,0.0,0.0,0.0,0.0,0.0,0.0,0.0,0.0,0.0,0.0,0.0,0.0,0.0,0.0,0.0,0.0,0.0,0.0,0.0,0.0,0.0,0.0,0.0,0.0,0.0,0.0,0.0,0.0,0.0,0.0,0.0,0.0,0.0,0.0,0.0,0.0,0.0,0.0,0.0,0.0,0.0,0.0,0.0,0.0,0.0,0.0,0.0,0.0,0.0,0.0,0.0,0.0,0.0,0.0,0.0,0.0,0.0,0.0,0.0,0.0,0.0,0.0,0.0,0.0,0.0,0.0,0.0,0.0,0.8283,0.8628,0.8558,0.8036,0.7199,0.6174,0.0,0.0,0.0,0.0,0.0,0.0,0.0,0.0,0.0,0.0,0.0,0.0,0.0,0.0,0.0,0.0,0.0,0.0,0.0,0.0,0.0,0.0,0.0,0.0,0.0,0.0,0.0,0.0,0.0,0.0,0.0,0.0,0.0,0.0,0.0,0.0,0.0,0.0,0.0,0.0,0.0,0.0,0.0,0.0,0.0,0.0,0.0,0.0,0.0,0.0,0.0,0.0,0.0,0.0,0.0,0.0,0.0,0.0,0.0,0.0,0.0,0.0,0.0,0.0,0.0,0.0,0.0,0.0,0.0,0.0,0.0,0.0,0.0,0.0,0.0,0.0,0.0,0.0,0.0,0.0,0.0,0.0,0.0,0.0,0.0,0.0,0.0,0.0,0.0,0.0,0.0,0.0,0.0,0.0,0.0,0.0,0.0,0.0,0.0,0.0,0.0,0.0,0.0,0.0,0.0,0.0,0.0,0.0,0.0,0.8165,0.0,0.8137,0.7569,0.65,0.5395,0.0,0.0,0.0,0.0,0.0,0.0,0.0,0.0,0.0,0.0,0.0,0.0,0.0,0.0,0.0,0.0,0.0,0.0,0.0,0.0,0.0,0.0,0.0,0.0,0.0,0.0,0.0,0.0,0.0,0.0,0.0,0.0,0.0,0.0,0.0,0.0,0.0,0.0,0.0,0.0,0.0,0.0,0.0,0.0,0.0,0.0,0.0,0.0,0.0,0.0,0.0,0.0,0.0,0.0,0.0,0.0,0.0,0.0,0.0,0.0,0.0,0.0,0.0,0.0,0.0,0.0,0.0,0.0,0.0,0.0,0.0,0.0,0.0,0.0,0.0,0.0,0.0,0.0,0.0,0.0,0.0,0.0,0.0,0.0,0.0,0.0,0.0,0.0,0.0,0.0,0.0,0.0,0.0,0.0,0.0,0.0,0.0,0.0,0.0,0.0,0.0,0.0,0.0,0.0,0.0,0.0,0.0,0.0,0.7783,0.8329,0.7652,0.7123,0.6802,0.5479,0.4359,0.0,0.0,0.0,0.0,0.0,0.0,0.0,0.0,0.0,0.0,0.0,0.0,0.0,0.0,0.0,0.0,0.0,0.0,0.0,0.0,0.0,0.0,0.0,0.0,0.0,0.0,0.0,0.0,0.0,0.0,0.0,0.0,0.0,0.0,0.0,0.0,0.0,0.0,0.0,0.0,0.0,0.0,0.0,0.0,0.0,0.0,0.0,0.0,0.0,0.0,0.0,0.0,0.0,0.0,0.0,0.0,0.0,0.0,0.0,0.0,0.0,0.0,0.0,0.0,0.0,0.0,0.0,0.0,0.0,0.0,0.0,0.0,0.0,0.0,0.0,0.0,0.0,0.0,0.0,0.0,0.0,0.0,0.0,0.0,0.0,0.0,0.0,0.0,0.0,0.0,0.0,0.0,0.0,0.0,0.0,0.0,0.0,0.0,0.0,0.0,0.0,0.0,0.0,0.0,0.0,0.0,0.0,0.0,0.0,0.8589,0.7697,0.6891,0.6338,0.5348,0.4183,0.0,0.0,0.0,0.0,0.0,0.0,0.0,0.0,0.0,0.0,0.0,0.0,0.0,0.0,0.0,0.0,0.0,0.0,0.0,0.0,0.0,0.0,0.0,0.0,0.0,0.0,0.0,0.0,0.0,0.0,0.0,0.0,0.0,0.0,0.0,0.0,0.0,0.0,0.0,0.0,0.0,0.0,0.0,0.0,0.0,0.0,0.0,0.0,0.0,0.0,0.0,0.0,0.0,0.0,0.0,0.0,0.0,0.0,0.0,0.0,0.0,0.0,0.0,0.0,0.0,0.0,0.0,0.0,0.0,0.0,0.0,0.0,0.0,0.0,0.0,0.0,0.0,0.0,0.0,0.0,0.0,0.0,0.0,0.0,0.0,0.0,0.0,0.0,0.0,0.0,0.0,0.0,0.0,0.0,0.0,0.0,0.0,0.0,0.0,0.0,0.0,0.0,0.0,0.0,0.0,0.0,0.0,0.0,0.0,0.8175,0.7179,0.6301,0.556,0.4755,0.3844,0.2748,0.0,0.0,0.0,0.0,0.0,0.0,0.0,0.0,0.0,0.0,0.0,0.0,0.0,0.0,0.0,0.0,0.0,0.0,0.0,0.0,0.0,0.0,0.0,0.0,0.0,0.0,0.0,0.0,0.0,0.0,0.0,0.0,0.0,0.0,0.0,0.0,0.0,0.0,0.0,0.0,0.0,0.0,0.0,0.0,0.0,0.0,0.0,0.0,0.0,0.0,0.0,0.0,0.0,0.0,0.0,0.0,0.0,0.0,0.0,0.0,0.0,0.0,0.0,0.0,0.0,0.0,0.0,0.0,0.0,0.0,0.0,0.0,0.0,0.0,0.0,0.0,0.0,0.0,0.0,0.0,0.0,0.0,0.0,0.0,0.0,0.0,0.0,0.0,0.0,0.0,0.0,0.0,0.0,0.0,0.0,0.0,0.0,0.0,0.0,0.0,0.0,0.0,0.0,0.0,0.0,0.0,0.0,0.0,0.7403,0.6221,0.5297,0.4615,0.3854,0.3372,0.0,0.0,0.0,0.0,0.0,0.0,0.0,0.0,0.0,0.0,0.0,0.0,0.0,0.0,0.0,0.0,0.0,0.0,0.0,0.0,0.0,0.0,0.0,0.0,0.0,0.0,0.0,0.0,0.0,0.0,0.0,0.0,0.0,0.0,0.0,0.0,0.0,0.0,0.0,0.0,0.0,0.0,0.0,0.0,0.0,0.0,0.0,0.0,0.0,0.0,0.0,0.0,0.0,0.0,0.0,0.0,0.0,0.0,0.0,0.0,0.0,0.0,0.0,0.0,0.0,0.0,0.0,0.0,0.0,0.0,0.0,0.0,0.0,0.0,0.0,0.0,0.0,0.0,0.0,0.0,0.0,0.0,0.0,0.0,0.0,0.0,0.0,0.0,0.0,0.0,0.0,0.0,0.0,0.0,0.0,0.0,0.0,0.0,0.0,0.0,0.0,0.0,0.0,0.0,0.0,0.0,0.0,0.0,0.0,0.6251,0.5215,0.4661,0.4574,0.4037,0.3489,0.0,0.0,0.0,0.0,0.0,0.0,0.0,0.0,0.0,0.0,0.0,0.0,0.0,0.0,0.0,0.0,0.0,0.0,0.0,0.0,0.0,0.0,0.0,0.0,0.0,0.0,0.0,0.0,0.0,0.0,0.0,0.0,0.0,0.0,0.0,0.0,0.0,0.0,0.0,0.0,0.0,0.0,0.0,0.0,0.0,0.0,0.0,0.0,0.0,0.0,0.0,0.0,0.0,0.0,0.0,0.0,0.0,0.0,0.0,0.0,0.0,0.0,0.0,0.0,0.0,0.0,0.0,0.0,0.0,0.0,0.0,0.0,0.0,0.0,0.0,0.0,0.0,0.0,0.0,0.0,0.0,0.0,0.0,0.0,0.0,0.0,0.0,0.0,0.0,0.0,0.0,0.0,0.0,0.0,0.0,0.0,0.0,0.0,0.0,0.0,0.0,0.0,0.0,0.0,0.0,0.0,0.0,0.0,0.6248,0.5172,0.4225,0.3765,0.3851,0.3692,0.343,0.0,0.0,0.0,0.0,0.0,0.0,0.0,0.0,0.0,0.0,0.0,0.0,0.0,0.0,0.0,0.0,0.0,0.0,0.0,0.0,0.0,0.0,0.0,0.0,0.0,0.0,0.0,0.0,0.0,0.0,0.0,0.0,0.0,0.0,0.0,0.0,0.0,0.0,0.0,0.0,0.0,0.0,0.0,0.0,0.0,0.0,0.0,0.0,0.0,0.0,0.0,0.0,0.0,0.0,0.0,0.0,0.0,0.0,0.0,0.0,0.0,0.0,0.0,0.0,0.0,0.0,0.0,0.0,0.0,0.0,0.0,0.0,0.0,0.0,0.0,0.0,0.0,0.0,0.0,0.0,0.0,0.0,0.0,0.0,0.0,0.0,0.0,0.0,0.0,0.0,0.0,0.0,0.0,0.0,0.0,0.0,0.0,0.0,0.0,0.0,0.0,0.0,0.0,0.0,0.0,0.0,0.0,0.0,0.5369,0.434,0.3365,0.292,0.2917,0.3105,0.3309,0.0,0.0,0.0,0.0,0.0,0.0,0.0,0.0,0.0,0.0,0.0,0.0,0.0,0.0,0.0,0.0,0.0,0.0,0.0,0.0,0.0,0.0,0.0,0.0,0.0,0.0,0.0,0.0,0.0,0.0,0.0,0.0,0.0,0.0,0.0,0.0,0.0,0.0,0.0,0.0,0.0,0.0,0.0,0.0,0.0,0.0,0.0,0.0,0.0,0.0,0.0,0.0,0.0,0.0,0.0,0.0,0.0,0.0,0.0,0.0,0.0,0.0,0.0,0.0,0.0,0.0,0.0,0.0,0.0,0.0,0.0,0.0,0.0,0.0,0.0,0.0,0.0,0.0,0.0,0.0,0.0,0.0,0.0,0.0,0.0,0.0,0.0,0.0,0.0,0.0,0.0,0.0,0.0,0.0,0.0,0.0,0.0,0.0,0.0,0.0,0.0,0.0,0.0,0.0,0.0,0.0,0.0,0.0,0.4546,0.4293,0.3365,0.292,0.2918,0.3193,0.3456,0.0,0.0,0.0,0.0,0.0,0.0,0.0,0.0,0.0,0.0,0.0,0.0,0.0,0.0,0.0,0.0,0.0,0.0,0.0,0.0,0.0,0.0,0.0,0.0,0.0,0.0,0.0,0.0,0.0,0.0,0.0,0.0,0.0,0.0,0.0,0.0,0.0,0.0,0.0,0.0,0.0,0.0,0.0,0.0,0.0,0.0,0.0,0.0,0.9331,0.0,0.0,0.0,0.0,0.0,0.0,0.0,0.0,0.0,0.0,0.0,0.0,0.0,0.0,0.0,0.0,0.0,0.0,0.0,0.0,0.0,0.0,0.0,0.0,0.0,0.0,0.0,0.0,0.0,0.0,0.0,0.0,0.0,0.0,0.0,0.0,0.0,0.0,0.0,0.0,0.0,0.0,0.0,0.0,0.0,0.0,0.0,0.0,0.0,0.0,0.0,0.0,0.0,0.0,0.0,0.0,0.0,0.0,0.0,0.4158,0.363,0.3142,0.292,0.2918,0.3062,0.3354,0.0,0.0,0.0,0.0,0.0,0.0,0.0,0.0,0.0,0.0,0.0,0.0,0.0,0.0,0.0,0.0,0.0,0.0,0.0,0.0,0.0,0.0,0.0,0.0,0.0,0.0,0.0,0.0,0.0,0.0,0.0,0.0,0.0,0.0,0.0,0.0,0.0,0.0,0.0,0.0,0.0,0.0,0.0,0.0,0.0,0.0,0.0,0.0,0.0,0.0,0.0,0.0,0.0,0.0,0.0,0.0,0.0,0.0,0.0,0.0,0.0,0.0,0.0,0.0,0.0,0.0,0.0,0.0,0.0,0.0,0.0,0.0,0.0,0.0,0.0,0.0,0.0,0.0,0.0,0.0,0.0,0.0,0.0,0.0,0.0,0.0,0.0,0.0,0.0,0.0,0.0,0.0,0.0,0.0,0.0,0.0,0.0,0.0,0.0,0.0,0.0,0.0,0.0,0.0,0.0,0.0,0.0,0.4887,0.3927,0.2963,0.292,0.292,0.292,0.291,0.3131,0.3724,0.0,0.0,0.0,0.0,0.0,0.0,0.0,0.0,0.0,0.0,0.0,0.0,0.0,0.0,0.0,0.0,0.0,0.0,0.0,0.0,0.0,0.0,0.0,0.0,0.0,0.0,0.0,0.0,0.0,0.0,0.0,0.0,0.0,0.0,0.0,0.0,0.0,0.0,1.0191,1.0119,0.0,0.0,0.0,0.0,0.0,0.0,0.0,0.0,0.9777,0.0,0.0,0.0,0.0,0.0,0.0,0.0,0.0,0.0,0.0,0.0,0.0,0.0,0.0,0.0,0.0,0.0,0.0,0.0,0.0,0.0,0.0,0.0,0.0,0.0,0.0,0.0,0.0,0.0,0.0,0.0,0.0,0.0,0.0,0.0,0.0,0.0,0.0,0.0,0.0,0.0,0.0,0.0,0.0,0.0,0.0,0.0,0.0,0.0,0.0,0.0,0.0,0.0,0.0,0.0,0.0,0.5795,0.4338,0.3346,0.2917,0.292,0.292,0.2918,0.2824,0.2974,0.3343,0.0,0.0,0.0,0.0,0.0,0.0,0.0,0.0,0.0,0.0,0.0,0.0,0.0,0.0,0.0,0.0,0.0,0.0,0.0,0.0,0.0,0.0,0.0,0.0,0.0,0.0,0.0,0.0,0.0,0.0,0.0,0.0,0.0,0.0,0.0,0.0,0.0,0.0,0.0,0.9885,0.9994,0.0,0.0,0.0,0.0,0.0,0.0,0.0,0.0,0.9602,0.0,0.0,0.0,0.0,0.0,0.0,0.0,0.0,0.0,0.0,0.0,0.0,0.0,0.0,0.0,0.0,0.0,0.0,0.0,0.0,0.0,0.0,0.0,0.0,0.0,0.0,0.0,0.0,0.0,0.0,0.0,0.0,0.0,0.0,0.0,0.0,0.0,0.0,0.0,0.0,0.0,0.0,0.0,0.0,0.0,0.0,0.0,0.0,0.0,0.0,0.0,0.0,0.0,0.0,0.0,0.5732,0.4051,0.3065,0.2918,0.292,0.292,0.2918,0.2859,0.2952,0.0,0.0,0.0,0.0,0.0,0.0,0.0,0.0,0.0,0.0,0.0,0.0,0.0,0.0,0.0,0.0,0.0,0.0,0.0,0.0,0.0,0.0,0.0,0.0,0.0,0.0,0.0,0.0,0.0,0.0,0.0,0.0,0.0,0.0,0.0,0.0,0.0,0.0,0.0,0.0,0.9788,0.9902,0.9791,0.0,0.0,0.0,0.0,0.0,0.0,0.9471,0.9432,0.0,0.0,0.0,0.0,0.0,0.0,0.0,0.0,0.0,0.0,0.0,0.0,0.0,0.0,0.0,0.0,0.0,0.0,0.0,0.0,0.0,0.0,0.0,0.0,0.0,0.0,0.0,0.0,0.0,0.0,0.0,0.0,0.0,0.0,0.0,0.0,0.0,0.0,0.0,0.0,0.0,0.0,0.0,0.0,0.0,0.0,0.0,0.0,0.0,0.0,0.0,0.0,0.0,0.0,0.0,0.5729,0.3968,0.295,0.2918,0.292,0.292,0.2918,0.2804,0.2882,0.0,0.0,0.0,0.0,0.0,0.0,0.0,0.0,0.0,0.0,0.0,0.0,0.0,0.0,0.0,0.0,0.0,0.0,0.0,0.0,0.0,0.0,0.0,0.0,0.0,0.0,0.0,0.0,0.0,0.0,0.0,0.0,0.0,0.0,0.0,0.0,0.0,0.0,0.0,0.0,0.0,0.9899,0.9698,0.9839,0.0,0.0,0.0,0.0,0.948,0.9332,0.0,0.0,0.0,0.0,0.0,0.0,0.0,0.0,0.0,0.0,0.0,0.0,0.0,0.0,0.0,0.0,0.0,0.0,0.0,0.0,0.0,0.0,0.0,0.0,0.0,0.0,0.0,0.0,0.0,0.0,0.0,0.0,0.0,0.0,0.0,0.0,0.0,0.0,0.0,0.0,0.0,0.0,0.0,0.0,0.0,0.0,0.0,0.0,0.0,0.0,0.0,0.0,0.0,0.0,0.0,0.0,0.5761,0.4167,0.3213,0.2915,0.292,0.292,0.2918,0.2763,0.2712,0.0,0.0,0.0,0.0,0.0,0.0,0.0,0.0,0.0,0.0,0.0,0.0,0.0,0.0,0.0,0.0,0.0,0.0,0.0,0.0,0.0,0.0,0.0,0.0,0.0,0.0,0.0,0.0,0.0,0.0,0.0,0.0,0.0,0.0,0.0,0.0,0.0,0.0,0.0,0.0,0.0,1.0099,0.9903,1.0049,1.0007,0.0,0.0,0.9415,0.9024,0.9131,0.0,0.0,0.0,0.0,0.0,0.0,0.0,0.0,0.0,0.0,0.0,0.0,0.0,0.0,0.0,0.0,0.0,0.0,0.0,0.0,0.0,0.0,0.0,0.0,0.0,0.0,0.0,0.0,0.0,0.0,0.0,0.0,0.0,0.0,0.0,0.0,0.0,0.0,0.0,0.0,0.0,0.0,0.0,0.0,0.0,0.0,0.0,0.0,0.0,0.0,0.0,0.0,0.0,0.0,0.0,0.5746,0.5723,0.4037,0.3068,0.2918,0.292,0.2858,0.2823,0.2738,0.2631,0.0,0.0,0.0,0.0,0.0,0.0,0.0,0.0,0.0,0.0,0.0,0.0,0.0,0.0,0.0,0.0,0.0,0.0,0.0,0.0,0.0,0.0,0.0,0.0,0.0,0.0,0.0,0.0,0.0,0.0,0.0,0.0,0.0,0.0,0.0,0.0,0.0,0.0,0.0,0.0,0.0,0.0,0.9718,0.9847,0.0,0.0,0.0,0.8496,0.8475,0.0,0.0,0.0,0.0,0.0,0.0,0.0,0.0,0.0,0.0,0.0,0.0,0.0,0.0,0.0,0.0,0.0,0.0,0.0,0.0,0.0,0.0,0.0,0.0,0.0,0.0,0.0,0.0,0.0,0.0,0.0,0.0,0.0,0.0,0.0,0.0,0.0,0.0,0.0,0.0,0.0,0.0,0.0,0.0,0.0,0.0,0.0,0.0,0.0,0.0,0.0,0.0,0.0,0.0,0.0,0.0,0.0,0.5717,0.3847,0.2828,0.2828,0.283,0.285,0.2762,0.27,0.0,0.0,0.0,0.0,0.0,0.0,0.0,0.0,0.0,0.0,0.0,0.0,0.0,0.0,0.0,0.0,0.0,0.0,0.0,0.0,0.0,0.0,0.0,0.0,0.0,0.0,0.0,0.6791,0.0,0.0,0.0,0.0,0.0,0.0,0.0,0.0,0.0,0.0,0.0,0.0,0.0,0.0,0.9686,0.9498,0.9563,0.9562,0.0,0.0,0.7804,0.7929,0.6722,0.6061,0.0,0.0,0.0,0.0,0.0,0.0,0.0,0.0,0.0,0.0,0.0,0.0,0.0,0.0,0.0,0.0,0.0,0.0,0.0,0.0,0.0,0.0,0.0,0.0,0.0,0.0,0.0,0.0,0.0,0.0,0.0,0.0,0.0,0.0,0.0,0.0,0.0,0.0,0.0,0.0,0.0,0.0,0.0,0.0,0.0,0.0,0.0,0.0,0.0,0.0,0.0,0.0,0.0,0.0,0.5337,0.5617,0.3746,0.2707,0.2704,0.2704,0.2702,0.2698,0.2639,0.2549,0.0,0.0,0.0,0.0,0.0,0.0,0.0,0.0,0.0,0.0,0.0,0.0,0.0,0.0,0.0,0.0,0.0,0.0,0.0,0.0,0.0,0.0,0.0,0.0,0.0,0.0,0.0,0.0,0.0,0.0,0.0,0.0,0.0,0.0,0.0,0.0,0.0,0.0,0.0,0.0,0.0,0.9498,0.9423,0.9304,0.9275,0.0,0.8467,0.7702,0.7489,0.6615,0.6023,0.6177,0.0,0.0,0.0,0.0,0.0,0.0,0.0,0.0,0.0,0.0,0.0,0.0,0.0,0.0,0.0,0.0,0.0,0.0,0.0,0.0,0.0,0.0,0.0,0.0,0.0,0.0,0.0,0.0,0.0,0.0,0.0,0.0,0.0,0.0,0.0,0.0,0.0,0.0,0.0,0.0,0.0,0.0,0.0,0.0,0.0,0.0,0.0,0.0,0.0,0.0,0.0,0.0,0.0,0.5161,0.5294,0.3583,0.2694,0.2694,0.2694,0.2674,0.2636,0.2491,0.237,0.0,0.0,0.0,0.0,0.0,0.0,0.0,0.0,0.0,0.0,0.0,0.0,0.0,0.0,0.0,0.0,0.0,0.0,0.0,0.0,0.0,0.0,0.0,0.0,0.0,0.0,0.0,0.0,0.7721,0.8056,0.8392,0.0,0.0,0.0,0.0,0.0,0.0,0.0,0.0,0.0,0.0,0.9302,0.9279,0.9224,0.0,0.0,0.7923,0.6792,0.6691,0.5247,0.4352,0.4891,0.5866,0.0,0.0,0.0,0.0,0.0,0.0,0.0,0.0,0.0,0.0,0.0,0.0,0.0,0.0,0.0,0.0,0.0,0.0,0.0,0.0,0.0,0.0,0.0,0.0,0.0,0.0,0.0,0.0,0.0,0.0,0.0,0.0,0.0,0.0,0.0,0.0,0.0,0.0,0.0,0.0,0.0,0.0,0.0,0.0,0.0,0.0,0.0,0.0,0.0,0.0,0.0,0.0,0.5286,0.5146,0.3758,0.2924,0.2638,0.2597,0.2576,0.2576,0.2294,0.2155,0.0,0.0,0.0,0.0,0.0,0.0,0.0,0.0,0.0,0.0,0.0,0.0,0.0,0.0,0.0,0.0,0.0,0.0,0.0,0.0,0.0,0.0,0.0,0.0,0.0,0.0,0.0,0.0,0.8188,0.8538,0.8849,0.0,0.0,0.0,0.0,0.0,0.0,0.0,0.0,0.0,0.0,0.9118,0.9083,0.9132,0.9267,0.949,0.8009,0.687,0.6865,0.5016,0.3781,0.43,0.0,0.0,0.0,0.0,0.0,0.0,0.0,0.0,0.0,0.0,0.0,0.0,0.0,0.0,0.0,0.0,0.0,0.0,0.0,0.0,0.0,0.0,0.0,0.0,0.0,0.0,0.0,0.7498,0.0,0.0,0.7489,0.0,0.0,0.0,0.0,0.0,0.0,0.0,0.0,0.0,0.0,0.0,0.0,0.0,0.0,0.0,0.0,0.0,0.0,0.0,0.0,0.0,0.0,0.5755,0.5297,0.4307,0.3374,0.2556,0.2318,0.2358,0.2514,0.2123,0.1982,0.2082,0.0,0.0,0.0,0.0,0.0,0.0,0.0,0.0,0.0,0.0,0.0,0.0,0.0,0.0,0.0,0.0,0.0,0.0,0.0,0.0,0.0,0.0,0.0,0.0,0.0,0.0,0.8085,0.8274,0.8491,0.0,0.0,0.0,0.0,0.0,0.0,0.0,0.0,0.0,0.0,0.8915,0.885,0.8841,0.9046,0.9317,0.9732,0.8958,0.8334,0.8199,0.6429,0.4947,0.0,0.0,0.0,0.0,0.0,0.0,0.0,0.0,0.0,0.0,0.0,0.0,0.0,0.0,0.0,0.0,0.0,0.0,0.0,0.0,0.0,0.0,0.0,0.0,0.0,0.0,0.0,0.7337,0.7264,0.0,0.0,0.0,0.0,0.0,0.0,0.0,0.0,0.0,0.0,0.0,0.6845,0.6969,0.0,0.0,0.0,0.0,0.0,0.0,0.0,0.0,0.0,0.0,0.0,0.0,0.5924,0.5739,0.4999,0.4416,0.3988,0.391,0.3832,0.3759,0.2938,0.2231,0.1664,0.0,0.0,0.0,0.0,0.0,0.0,0.0,0.0,0.0,0.0,0.0,0.0,0.0,0.0,0.0,0.0,0.0,0.0,0.0,0.0,0.0,0.0,0.0,0.0,0.0,0.8277,0.0,0.0,0.0,0.0,0.0,0.0,0.0,0.0,0.0,0.0,0.0,0.913,0.9116,0.8855,0.8718,0.8796,0.8967,0.9228,0.0,0.0,0.0,0.0,0.0,0.0,0.0,0.0,0.0,0.0,0.0,0.0,0.0,0.0,0.4283,0.5824,0.6328,0.6543,0.682,0.0,0.0,0.0,0.0,0.0,0.0,0.0,0.0,0.0,0.0,0.0,0.0,0.0,0.0,0.7261,0.0,0.7255,0.0,0.0,0.0,0.0,0.0,0.0,0.0,0.0,0.6996,0.6898,0.669,0.6889,0.6994,0.0,0.7272,0.7312,0.0,0.0,0.0,0.0,0.0,0.0,0.0,0.0,0.6166,0.5862,0.5422,0.5002,0.4613,0.4535,0.4457,0.4384,0.3571,0.2854,0.2214,0.2194,0.2433,0.0,0.0,0.0,0.0,0.0,0.0,0.0,0.0,0.0,0.0,0.0,0.0,0.0,0.0,0.0,0.0,0.0,0.0,0.0,0.0,0.0,0.0,0.0,0.8327,0.0,0.0,0.0,0.0,0.0,0.0,0.0,0.0,0.0,0.9732,0.9364,0.9124,0.9259,0.8993,0.8812,0.8982,0.0,0.0,0.0,0.0,0.0,0.0,0.0,0.5117,0.3937,0.4587,0.5251,0.5278,0.4848,0.4966,0.6349,0.0,0.0,0.4606,0.5083,0.5327,0.5436,0.5593,0.5768,0.5942,0.5677,0.5428,0.0,0.0,0.0,0.0,0.0,0.0,0.0,0.0,0.7263,0.7165,0.0,0.7138,0.0,0.0,0.0,0.0,0.0,0.7245,0.0,0.0,0.6759,0.6692,0.6549,0.679,0.6858,0.6739,0.722,0.7329,0.7019,0.7049,0.0,0.0,0.0,0.0,0.0,0.0,0.6479,0.5702,0.5664,0.5273,0.454,0.4302,0.4304,0.4421,0.4049,0.3766,0.3682,0.3713,0.3725,0.367,0.3992,0.0,0.0,0.0,0.0,0.0,0.0,0.0,0.0,0.0,0.0,0.0,0.0,0.0,0.0,0.0,0.0,0.0,0.0,0.0,0.0,0.7961,0.0,0.0,0.0,0.0,0.0,0.0,0.0,0.0,0.0,0.0,0.9514,0.9451,0.9388,0.9419,0.0,0.0,0.0,0.0,0.9955,0.9778,1.0218,1.0041,0.8599,0.7535,0.6358,0.5008,0.0,0.0,0.5695,0.5235,0.5103,0.6895,0.5592,0.4085,0.298,0.3571,0.4089,0.408,0.4276,0.4512,0.4503,0.3919,0.3318,0.804,0.0,0.0,0.0,0.0,0.7707,0.7517,0.729,0.7202,0.7163,0.709,0.7126,0.0,0.0,0.0,0.0,0.0,0.0,0.7352,0.7123,0.7078,0.6961,0.6803,0.6947,0.7011,0.6974,0.7146,0.7142,0.709,0.6993,0.709,0.7375,0.0,0.0,0.0,0.0,0.6767,0.667,0.6571,0.636,0.598,0.5899,0.5547,0.4849,0.4619,0.4222,0.3603,0.3576,0.3864,0.4423,0.4549,0.0,0.0,0.0,0.0,0.0,0.0,0.0,0.0,0.0,0.0,0.0,0.0,0.0,0.0,0.0,0.0,0.0,0.0,0.0,0.7981,0.7919,0.8009,0.0,0.0,0.0,0.0,0.0,0.0,0.0,0.0,0.0,0.983,0.9454,0.9298,0.0,0.0,0.9255,0.9615,0.9705,0.9706,0.9657,0.9341,0.0,0.8255,0.7295,0.6262,0.5118,0.3871,0.348,0.4683,0.4331,0.4305,0.5667,0.4652,0.3756,0.4146,0.3463,0.2995,0.2925,0.3001,0.3132,0.3079,0.2847,0.2712,0.7516,0.742,0.7685,0.7701,0.7547,0.7483,0.7338,0.7177,0.7121,0.7073,0.7034,0.7063,0.7065,0.7019,0.7148,0.0,0.0,0.0,0.72,0.6985,0.7017,0.693,0.6766,0.6916,0.7054,0.7018,0.7207,0.7231,0.7095,0.7145,0.7193,0.7319,0.0,0.0,0.7215,0.6998,0.6882,0.6867,0.6777,0.6663,0.649,0.6486,0.6177,0.555,0.5342,0.5075,0.4606,0.4522,0.472,0.5256,0.5357,0.5636,0.0,0.0,0.0,0.0,0.0,0.0,0.0,0.0,0.0,0.0,0.0,0.7065,0.7032,0.0,0.0,0.0,0.7588,0.7745,0.8042,0.7942,0.0,0.0,0.0,0.0,0.0,0.0,0.0,0.9527,0.9702,0.9792,0.9809,0.9538,0.9445,0.9887,0.9559,0.9416,0.9788,0.0,0.9705,0.9591,0.9255,0.88,0.813,0.7449,0.6562,0.5395,0.4437,0.4034,0.4541,0.4429,0.4446,0.4788,0.4193,0.3758,0.4765,0.3771,0.282,0.2806,0.2575,0.2383,0.2384,0.2463,0.2476,0.7095,0.7129,0.7426,0.7537,0.7445,0.7256,0.7147,0.7085,0.696,0.6974,0.7085,0.6957,0.6943,0.6995,0.6986,0.0,0.7002,0.6971,0.686,0.6555,0.6654,0.6637,0.6549,0.6793,0.6886,0.6889,0.7297,0.7323,0.7095,0.7323,0.7384,0.7197,0.7052,0.7013,0.7002,0.7002,0.6849,0.6512,0.6525,0.6443,0.6303,0.63,0.63,0.6296,0.6112,0.6057,0.6265,0.6067,0.5986,0.5976,0.6155,0.614,0.5855,0.0,0.0,0.0,0.0,0.0,0.0,0.0,0.0,0.0,0.0,0.0,0.0,0.0,0.0,0.758,0.7718,0.0,0.8016,0.8036,0.0,0.0,0.0,0.8467,0.8867,0.8869,0.9062,0.9594,0.0,0.0,0.9624,0.9648,0.977,1.0151,0.9847,0.9685,0.989,0.9902,0.9807,0.9648,0.9758,0.945,0.8364,0.7793,0.7045,0.5804,0.5381,0.5133,0.5183,0.5292,0.519,0.4895,0.4288,0.4166,0.5062,0.4366,0.3571,0.3567,0.2878,0.2282,0.216,0.2269,0.2366,0.7095,0.7092,0.719,0.7193,0.7187,0.7149,0.7105,0.7092,0.7058,0.7065,0.7092,0.7061,0.701,0.6917,0.7032,0.7028,0.6921,0.7026,0.6956,0.6827,0.6815,0.6751,0.6658,0.6795,0.6886,0.6896,0.7119,0.7143,0.7095,0.7143,0.7166,0.7132,0.7095,0.7106,0.7169,0.6995,0.69,0.6778,0.659,0.6443,0.6303,0.63,0.63,0.6296,0.6112,0.6006,0.6047,0.6051,0.5939,0.5864,0.589,0.5953,0.6026,0.5837,0.0,0.0,0.0,0.0,0.0,0.0,0.0,0.0,0.0,0.7638,0.7192,0.0,0.8089,0.0,0.7927,0.8028,0.8207,0.8227,0.0,0.0,0.8522,0.8612,0.8788,0.8963,0.9159,0.9423,0.9637,0.9774,0.9819,0.9823,0.9855,0.9937,0.9766,0.969,0.9933,0.9788,0.9677,0.9591,0.9615,0.9474,0.8943,0.7985,0.6936,0.5784,0.5384,0.5179,0.5179,0.5848,0.6055,0.5188,0.5608,0.6081,0.6265,0.5492,0.4882,0.4655,0.3865,0.2823,0.1964,0.1791,0.1827,0.7095,0.7095,0.7095,0.7095,0.7095,0.7095,0.7095,0.7095,0.7095,0.7095,0.7095,0.7095,0.7055,0.6984,0.7061,0.7055,0.6987,0.7061,0.7021,0.6886,0.6861,0.6746,0.6607,0.6756,0.6827,0.6834,0.6994,0.7095,0.7095,0.7095,0.7095,0.7095,0.7095,0.7099,0.7151,0.7024,0.6947,0.6886,0.6695,0.6536,0.6497,0.6429,0.6395,0.6388,0.621,0.6132,0.6132,0.6132,0.6098,0.6021,0.6113,0.6162,0.6169,0.6082,0.6157,0.0,0.0,0.0,0.0,0.0,0.0,0.0,0.0,0.0,0.0,0.0,0.8251,0.8146,0.8138,0.8211,0.8437,0.8324,0.8364,0.86,0.848,0.8484,0.8722,0.8938,0.9131,0.9261,0.9448,0.9601,0.9568,0.9462,0.9415,0.9411,0.9333,0.9327,0.9579,0.9628,0.9525,0.9278,0.9327,0.9282,0.8931,0.8233,0.7556,0.6962,0.667,0.6478,0.607,0.6383,0.643,0.5391,0.5695,0.6333,0.6752,0.6445,0.585,0.5265,0.4661,0.3564,0.1998,0.1626,0.1566,0.7095,0.7095,0.7095,0.7095,0.7095,0.7095,0.7095,0.7095,0.7095,0.7095,0.7095,0.7095,0.7095,0.7095,0.7095,0.7095,0.7095,0.7095,0.7021,0.6879,0.677,0.6617,0.6518,0.6607,0.6681,0.6712,0.6937,0.7088,0.7125,0.7125,0.7136,0.7152,0.7152,0.7156,0.7152,0.7132,0.7048,0.6889,0.68,0.6719,0.6698,0.6569,0.6532,0.6508,0.6392,0.6317,0.63,0.63,0.6273,0.6293,0.6489,0.6473,0.6317,0.6467,0.6585,0.0,0.6619,0.0,0.0,0.0,0.0,0.0,0.0,0.0,0.0,0.8161,0.8278,0.8282,0.8282,0.8307,0.8508,0.8292,0.8248,0.8476,0.8292,0.8288,0.8614,0.8855,0.9005,0.9043,0.9122,0.9141,0.9062,0.8914,0.8775,0.8836,0.8832,0.8928,0.908,0.9327,0.9278,0.8874,0.8931,0.8893,0.8571,0.8421,0.8324,0.8258,0.8193,0.803,0.7232,0.7167,0.6812,0.5861,0.5824,0.6185,0.698,0.7116,0.6762,0.579,0.5287,0.4289,0.2269,0.1634,0.1618,0.7095,0.7095,0.7095,0.7095,0.7095,0.7095,0.7095,0.7095,0.7095,0.7095,0.7095,0.7095,0.7095,0.7095,0.7095,0.7095,0.7095,0.7095,0.7061,0.6883,0.677,0.662,0.6518,0.6542,0.658,0.6705,0.6885,0.7092,0.7329,0.7329,0.739,0.7512,0.7512,0.7512,0.7506,0.0,0.0,0.0,0.6859,0.6824,0.6709,0.6675,0.66,0.6518,0.6487,0.0,0.6306,0.63,0.6286,0.6294,0.6321,0.0,0.0,0.0,0.0,0.0,0.0,0.0,0.0,0.0,0.0,0.0,0.7612,0.7716,0.7991,0.8142,0.8194,0.8194,0.807,0.7998,0.8025,0.7984,0.7984,0.8032,0.7988,0.8072,0.8339,0.8434,0.853,0.8821,0.8844,0.8889,0.882,0.884,0.8775,0.8775,0.8775,0.8726,0.8588,0.8832,0.8924,0.8829,0.8691,0.8589,0.861,0.8479,0.8374,0.8401,0.8442,0.8396,0.8217,0.8262,0.7955,0.6875,0.7508,0.785,0.7268,0.7786,0.7852,0.6806,0.5806,0.4429,0.2138,0.1622,0.1566,0.7095,0.0,0.6966,0.701,0.0,0.6827,0.6833,0.6969,0.7054,0.7095,0.7095,0.7095,0.7095,0.7095,0.7095,0.7095,0.7095,0.7095,0.7058,0.6984,0.6881,0.6773,0.6695,0.6698,0.6736,0.682,0.692,0.7149,0.7363,0.7373,0.7448,0.7597,0.7597,0.7597,0.7594,0.7494,0.7261,0.6991,0.6987,0.6953,0.6876,0.6848,0.678,0.6702,0.6624,0.0,0.0,0.0,0.0,0.0,0.0,0.0,0.0,0.0,0.0,0.6702,0.6794,0.6898,0.7038,0.7052,0.7165,0.7541,0.7686,0.7778,0.7947,0.8016,0.8072,0.8028,0.794,0.79,0.79,0.7768,0.7724,0.7904,0.7838,0.7894,0.8063,0.832,0.8416,0.8379,0.8531,0.8581,0.8432,0.8382,0.8382,0.8386,0.8503,0.8499,0.8395,0.8582,0.8798,0.8732,0.8553,0.8404,0.8543,0.8477,0.8394,0.8518,0.8535,0.8535,0.8535,0.8547,0.8385,0.7793,0.7851,0.7789,0.7888,0.7786,0.7509,0.6917,0.6246,0.4991,0.2877,0.1969,0.1566,0.701,0.6962,0.6792,0.6833,0.6918,0.6564,0.652,0.6748,0.0,0.0,0.0,0.7095,0.7095,0.7095,0.7095,0.7095,0.7095,0.7095,0.7095,0.7088,0.695,0.6886,0.6883,0.6856,0.6859,0.6889,0.7004,0.7197,0.7415,0.7397,0.7538,0.7628,0.7665,0.7651,0.7594,0.7475,0.7322,0.7105,0.7095,0.7095,0.7092,0.6984,0.69,0.6846,0.6766,0.6678,0.6624,0.6647,0.6658,0.6687,0.6905,0.6929,0.6776,0.6898,0.6986,0.6919,0.691,0.6974,0.7088,0.7095,0.7187,0.7415,0.7635,0.7808,0.79,0.7856,0.7856,0.7856,0.7764,0.7764,0.7764,0.7544,0.7503,0.7724,0.768,0.77,0.7858,0.8203,0.8306,0.8107,0.8187,0.8233,0.8038,0.8038,0.7988,0.8058,0.8214,0.8289,0.834,0.8563,0.8686,0.8637,0.8511,0.8408,0.8482,0.8523,0.852,0.8533,0.853,0.8516,0.8489,0.8535,0.8535,0.844,0.7744,0.7697,0.8266,0.7755,0.7027,0.697,0.667,0.5884,0.4176,0.2772,0.1918,0.67,0.6517,0.6473,0.6473,0.6476,0.6428,0.6428,0.6476,0.6704,0.6969,0.7095,0.7095,0.7095,0.7095,0.7095,0.7095,0.7095,0.7095,0.7095,0.7088,0.695,0.6886,0.6879,0.6793,0.6803,0.6879,0.6906,0.7102,0.7405,0.7502,0.7641,0.778,0.7913,0.7803,0.7621,0.7577,0.7424,0.7105,0.7095,0.7095,0.7095,0.7078,0.6943,0.6746,0.6715,0.658,0.6375,0.6484,0.66,0.6706,0.6856,0.6885,0.6871,0.6993,0.7031,0.6903,0.7001,0.7078,0.7095,0.7095,0.7139,0.7143,0.7183,0.7404,0.7856,0.768,0.7551,0.7551,0.7367,0.7231,0.7231,0.7187,0.7187,0.7238,0.7372,0.7477,0.7627,0.7828,0.7976,0.8021,0.8038,0.8038,0.8038,0.7988,0.7988,0.8008,0.8187,0.8371,0.8435,0.8487,0.8529,0.8549,0.8501,0.8516,0.8625,0.8676,0.8655,0.8679,0.8648,0.8581,0.8459,0.8497,0.8497,0.8469,0.8184,0.8193,0.8459,0.8315,0.7962,0.783,0.7166,0.6289,0.5734,0.4228,0.2671,0.652,0.6387,0.6302,0.6299,0.6384,0.6302,0.6257,0.6257,0.6349,0.6615,0.6925,0.7054,0.7095,0.7095,0.7095,0.7095,0.7095,0.7095,0.7095,0.7092,0.7028,0.7001,0.6994,0.693,0.6933,0.6997,0.6997,0.72,0.7482,0.7567,0.7716,0.7877,0.7958,0.7921,0.7845,0.7753,0.7607,0.7394,0.7179,0.7095,0.7095,0.7095,0.6994,0.6831,0.6827,0.6722,0.6512,0.6563,0.663,0.6698,0.6766,0.6841,0.6883,0.699,0.6987,0.7001,0.7061,0.7095,0.7095,0.7095,0.7095,0.7095,0.7095,0.7187,0.7455,0.7367,0.7279,0.7279,0.7187,0.7095,0.7095,0.7095,0.7095,0.7095,0.735,0.7522,0.7611,0.7804,0.7914,0.7975,0.7988,0.7988,0.7988,0.7988,0.7988,0.8005,0.8231,0.8462,0.8682,0.8723,0.8696,0.8628,0.8604,0.8628,0.8699,0.8713,0.8645,0.8506,0.8472,0.8408,0.8275,0.8245,0.8245,0.819,0.783,0.7677,0.8041,0.7683,0.7595,0.8039,0.7745,0.7141,0.6384,0.4678,0.2973,0.6299,0.6213,0.6083,0.6083,0.6257,0.6083,0.6038,0.6038,0.6083,0.6305,0.6659,0.6922,0.701,0.7051,0.7095,0.7095,0.7095,0.7095,0.7095,0.7095,0.7095,0.7095,0.7095,0.7095,0.7095,0.7095,0.7095,0.722,0.7478,0.7563,0.775,0.7961,0.7988,0.7975,0.7987,0.7872,0.7723,0.7543,0.7278,0.7082,0.7051,0.7078,0.6997,0.6844,0.6815,0.679,0.6617,0.663,0.6651,0.6651,0.6681,0.6756,0.6825,0.6912,0.6937,0.7034,0.7078,0.7095,0.7095,0.7095,0.7095,0.7095,0.7095,0.7095,0.7095,0.7095,0.7095,0.7095,0.7095,0.7095,0.7095,0.7095,0.7095,0.7112,0.7414,0.7587,0.7624,0.7813,0.7988,0.7988,0.7988,0.7988,0.7988,0.7988,0.8022,0.8174,0.8343,0.8584,0.877,0.891,0.8869,0.8733,0.8713,0.8764,0.876,0.8767,0.8665,0.8404,0.8408,0.8296,0.817,0.8035,0.7995,0.7962,0.74,0.7313,0.7799,0.7447,0.7297,0.7856,0.7895,0.754,0.6132,0.4828,0.3124,0.5994,0.5777,0.5777,0.5733,0.5777,0.5777,0.5733,0.5774,0.5997,0.6127,0.6216,0.6615,0.684,0.6836,0.701,0.7095,0.7095,0.7095,0.7095,0.7095,0.7095,0.7095,0.7105,0.7098,0.7095,0.7098,0.7098,0.7119,0.7189,0.7478,0.7702,0.7958,0.7988,0.797,0.7851,0.7824,0.7675,0.7397,0.7224,0.7034,0.692,0.7028,0.6943,0.6569,0.6651,0.6586,0.6378,0.6467,0.6532,0.6545,0.662,0.6702,0.6732,0.6851,0.6889,0.691,0.7028,0.7095,0.7095,0.7095,0.7095,0.7095,0.7095,0.7095,0.7095,0.7095,0.7095,0.7095,0.7095,0.7095,0.7095,0.7102,0.7112,0.7132,0.7431,0.7597,0.7641,0.7858,0.7988,0.7988,0.7988,0.7988,0.7988,0.7988,0.8143,0.8347,0.8425,0.8547,0.8723,0.8842,0.8828,0.8648,0.8723,0.8869,0.8876,0.8913,0.8788,0.8648,0.8533,0.8381,0.8231,0.8106,0.7988,0.7988,0.7889,0.7839,0.7889,0.7889,0.7839,0.7889,0.7839,0.7434,0.5627,0.4774,0.3874,0.5822,0.5688,0.5688,0.5688,0.5688,0.5688,0.5688,0.5735,0.5822,0.5863,0.5908,0.6219,0.6482,0.6564,0.6653,0.6786,0.6922,0.6786,0.6827,0.7105,0.7055,0.7146,0.7275,0.7278,0.7275,0.7265,0.7142,0.7187,0.7312,0.758,0.7787,0.7853,0.7944,0.7955,0.7897,0.7897,0.776,0.7383,0.7309,0.7082,0.6725,0.6803,0.6749,0.6515,0.6573,0.6474,0.633,0.6361,0.6385,0.6392,0.641,0.6481,0.6563,0.6709,0.6837,0.6883,0.7018,0.7095,0.7095,0.7095,0.7095,0.7095,0.7095,0.7095,0.7095,0.7095,0.7095,0.7095,0.7095,0.7095,0.7105,0.7176,0.7278,0.7316,0.7543,0.7723,0.7729,0.7909,0.7988,0.7988,0.7988,0.7988,0.7988,0.7988,0.813,0.8326,0.8418,0.8533,0.8682,0.8767,0.8743,0.8655,0.8662,0.8659,0.8682,0.875,0.8689,0.8516,0.8401,0.8357,0.818,0.8099,0.7988,0.7988,0.7988,0.7988,0.7988,0.7988,0.7988,0.7988,0.7939,0.7537,0.6032,0.5227,0.4175,0.5688,0.5688,0.5688,0.5688,0.5688,0.5688,0.5688,0.5688,0.5688,0.5688,0.5733,0.5911,0.6083,0.621,0.6343,0.652,0.6656,0.6476,0.6564,0.6887,0.6947,0.7041,0.7218,0.7309,0.7309,0.7292,0.7193,0.7217,0.7429,0.7624,0.777,0.7828,0.7914,0.7988,0.7988,0.7988,0.7813,0.7526,0.7504,0.716,0.6692,0.6664,0.661,0.6477,0.6494,0.6446,0.6306,0.63,0.63,0.63,0.63,0.6364,0.6508,0.658,0.6725,0.6873,0.7018,0.7095,0.7095,0.7095,0.7095,0.7095,0.7095,0.7095,0.7095,0.7095,0.7095,0.7095,0.7095,0.7105,0.7214,0.7305,0.7426,0.7441,0.7665,0.7811,0.7818,0.7946,0.7988,0.7988,0.7988,0.7988,0.7988,0.7992,0.8102,0.8255,0.8412,0.8452,0.8567,0.8608,0.8621,0.855,0.8486,0.8552,0.8489,0.857,0.852,0.8418,0.8323,0.8248,0.8113,0.8035,0.7988,0.7988,0.7988,0.7988,0.7988,0.7988,0.7939,0.7988,0.7939,0.759,0.6484,0.5529,0.4526,0.5688,0.5688,0.5688,0.5688,0.5688,0.5688,0.5688,0.5688,0.5688,0.5688,0.5688,0.5735,0.5733,0.5774,0.6169,0.6384,0.6428,0.6384,0.6387,0.6476,0.6685,0.6811,0.6846,0.702,0.7119,0.7118,0.7074,0.7173,0.7366,0.7529,0.7678,0.7807,0.7901,0.7985,0.7988,0.7988,0.7907,0.7753,0.7631,0.7363,0.6946,0.6773,0.658,0.6399,0.6439,0.6439,0.6327,0.63,0.6303,0.6303,0.6303,0.6364,0.6461,0.6491,0.6644,0.6869,0.7028,0.7102,0.7105,0.7109,0.7105,0.7095,0.7095,0.7095,0.7095,0.7095,0.7095,0.7095,0.7109,0.7166,0.7339,0.7383,0.7451,0.758,0.7723,0.7818,0.7821,0.7907,0.7978,0.7988,0.7988,0.7988,0.7988,0.7988,0.8056,0.8211,0.8275,0.8313,0.836,0.8438,0.8401,0.8282,0.8326,0.8476,0.8528,0.8513,0.8503,0.8411,0.8361,0.8306,0.8211,0.8157,0.8035,0.7988,0.7988,0.7988,0.7988,0.7988,0.7889,0.7889,0.7889,0.7437,0.6736,0.5377,0.4574,0.5688,0.5688,0.5688,0.5688,0.5688,0.5688,0.5688,0.5688,0.5688,0.5688,0.5688,0.5688,0.5688,0.5688,0.5863,0.6038,0.6171,0.6038,0.6124,0.6361,0.6563,0.6694,0.6833,0.7063,0.706,0.6945,0.6879,0.6951,0.7058,0.7338,0.7529,0.7675,0.7821,0.7887,0.7971,0.7988,0.787,0.7695,0.7621,0.7424,0.7051,0.6879,0.679,0.6685,0.6497,0.6399,0.6436,0.6347,0.6385,0.6532,0.6409,0.6409,0.6597,0.6709,0.6898,0.7173,0.7261,0.7288,0.7285,0.7288,0.7241,0.7109,0.7095,0.7095,0.7095,0.7095,0.7095,0.7109,0.7238,0.735,0.7475,0.7516,0.7577,0.7719,0.7862,0.795,0.7963,0.7958,0.7988,0.7988,0.7988,0.7988,0.7988,0.7988,0.8012,0.8119,0.8204,0.8344,0.8384,0.8504,0.8425,0.835,0.8326,0.8361,0.8201,0.8381,0.8459,0.837,0.8333,0.8201,0.8143,0.8009,0.7942,0.7889,0.7939,0.7889,0.7839,0.7637,0.764,0.7587,0.7537,0.7487,0.6986,0.5729,0.5229,0.5688,0.5688,0.5688,0.5688,0.5688,0.5688,0.5688,0.5688,0.5688,0.5688,0.5688,0.5688,0.5688,0.5688,0.5688,0.5822,0.5952,0.5777,0.5866,0.6142,0.6348,0.6494,0.6689,0.696,0.6979,0.6804,0.6751,0.6754,0.6859,0.7118,0.7359,0.7604,0.7743,0.784,0.7965,0.7988,0.7929,0.777,0.7743,0.755,0.7312,0.7102,0.7044,0.6913,0.6658,0.6519,0.6614,0.6525,0.6559,0.6709,0.6536,0.6495,0.6692,0.6846,0.7082,0.7272,0.7343,0.7443,0.7428,0.7446,0.7326,0.7224,0.7119,0.7095,0.7095,0.7095,0.7095,0.7125,0.7282,0.748,0.7567,0.7638,0.7726,0.7865,0.7928,0.7988,0.7988,0.7988,0.7988,0.7988,0.7988,0.7988,0.7988,0.7988,0.7992,0.7988,0.8136,0.8238,0.8313,0.8387,0.8414,0.8408,0.8374,0.8201,0.8076,0.8064,0.8193,0.8167,0.8052,0.7982,0.7945,0.7859,0.7789,0.7789,0.7789,0.7743,0.759,0.7338,0.7238,0.7185,0.7285,0.7285,0.6736,0.6184,0.5784,0.5644,0.5599,0.5688,0.5599,0.5552,0.5552,0.5644,0.5644,0.5644,0.5644,0.5688,0.5688,0.5688,0.5688,0.5688,0.5735,0.5735,0.5688,0.5735,0.5794,0.6136,0.6296,0.6366,0.6652,0.6794,0.6741,0.6651,0.6653,0.6783,0.6889,0.7155,0.75,0.763,0.7771,0.7988,0.7939,0.7985,0.7951,0.7941,0.782,0.7624,0.7451,0.7312,0.7132,0.6984,0.6913,0.691,0.6922,0.6915,0.6889,0.6783,0.6705,0.6766,0.6993,0.7112,0.7183,0.7316,0.7451,0.7563,0.7482,0.7368,0.7287,0.7186,0.7027,0.701,0.7007,0.7051,0.7027,0.7205,0.7398,0.7543,0.7685,0.7816,0.7958,0.7985,0.7988,0.7988,0.7988,0.7988,0.7988,0.7988,0.7988,0.7988,0.7939,0.7942,0.7945,0.7959,0.8002,0.8019,0.8105,0.8221,0.8244,0.8183,0.7983,0.7886,0.7746,0.7848,0.7856,0.7722,0.7606,0.7609,0.754,0.7487,0.7437,0.7441,0.7394,0.7341,0.7138,0.7039,0.6986,0.7086,0.7086,0.6686,0.6287,0.6187,0.4748,0.4746,0.4748,0.4748,0.4748,0.4748,0.4924,0.5191,0.5191,0.5416,0.5644,0.5688,0.5688,0.5688,0.5688,0.5688,0.5688,0.5688,0.5688,0.5754,0.5898,0.6089,0.6205,0.6394,0.6508,0.6532,0.6426,0.6396,0.6491,0.6574,0.6745,0.6998,0.7121,0.7363,0.773,0.7746,0.7793,0.7988,0.7988,0.7938,0.7847,0.7753,0.7648,0.756,0.756,0.7536,0.7522,0.7196,0.7146,0.7321,0.7048,0.6856,0.697,0.719,0.739,0.7577,0.7645,0.7689,0.7678,0.7553,0.7295,0.7148,0.6914,0.6751,0.6624,0.6618,0.6662,0.6681,0.6865,0.7082,0.7291,0.7537,0.773,0.7982,0.7988,0.7988,0.7988,0.7988,0.7988,0.7988,0.7839,0.7842,0.7892,0.7889,0.7743,0.7743,0.7746,0.7738,0.7763,0.775,0.7756,0.7819,0.7762,0.7728,0.7569,0.7415,0.7419,0.7441,0.7341,0.7341,0.7291,0.7188,0.7135,0.7138,0.7141,0.7095,0.7042,0.6939,0.6789,0.6686,0.6686,0.6637,0.6587,0.6487,0.6337,0.4297,0.4297,0.4297,0.4297,0.4297,0.4297,0.4478,0.4743,0.4743,0.501,0.5371,0.5463,0.5552,0.5688,0.5688,0.5688,0.5688,0.5688,0.5688,0.5707,0.585,0.5947,0.6032,0.6261,0.6356,0.6322,0.6291,0.6298,0.6337,0.6363,0.6508,0.6827,0.6821,0.7026,0.7415,0.7441,0.7593,0.7793,0.7743,0.7786,0.7908,0.7746,0.7692,0.7684,0.7696,0.765,0.757,0.7281,0.7253,0.7412,0.7077,0.6921,0.6992,0.7132,0.7282,0.7465,0.7527,0.7492,0.7537,0.7353,0.7177,0.701,0.679,0.6652,0.6506,0.6538,0.6524,0.6506,0.6709,0.6917,0.7142,0.7299,0.7531,0.769,0.7889,0.7939,0.7892,0.7842,0.7789,0.769,0.7543,0.759,0.759,0.759,0.7441,0.7441,0.7444,0.7472,0.7449,0.7513,0.7513,0.7541,0.7595,0.7463,0.7241,0.7092,0.7048,0.6989,0.6989,0.6992,0.7042,0.6889,0.6786,0.6886,0.6892,0.6892,0.6792,0.6639,0.6487,0.6437,0.6387,0.6437,0.6487,0.6487,0.6337,0.4208,0.421,0.421,0.4166,0.4121,0.4121,0.4166,0.4255,0.4255,0.4523,0.4877,0.4968,0.5149,0.551,0.5463,0.5466,0.5599,0.5599,0.5599,0.5623,0.5785,0.5896,0.5942,0.6188,0.6232,0.6158,0.624,0.6317,0.6312,0.6282,0.65,0.6822,0.6774,0.6885,0.7093,0.7185,0.7291,0.7494,0.7388,0.7487,0.7885,0.7573,0.7456,0.7571,0.7472,0.7361,0.7291,0.7171,0.7226,0.7285,0.7029,0.6863,0.6844,0.6806,0.6917,0.711,0.7061,0.7122,0.718,0.7085,0.7006,0.6955,0.681,0.6698,0.6547,0.6542,0.6563,0.6535,0.6735,0.6934,0.6955,0.7109,0.7179,0.7238,0.764,0.7739,0.7643,0.7593,0.749,0.7341,0.7188,0.7185,0.7238,0.7238,0.7188,0.7188,0.7188,0.7169,0.7163,0.7235,0.7376,0.7386,0.728,0.7122,0.6897,0.6826,0.6739,0.6739,0.6686,0.6739,0.6792,0.6639,0.6587,0.6639,0.6689,0.6642,0.6592,0.6489,0.6387,0.6387,0.6387,0.6387,0.6387,0.6387,0.6387,0.3277,0.3275,0.3275,0.3275,0.3277,0.3275,0.3499,0.3765,0.3765,0.4032,0.4389,0.4478,0.4567,0.4656,0.4701,0.4656,0.479,0.5057,0.5191,0.5238,0.5578,0.5783,0.5937,0.6146,0.6203,0.6119,0.6208,0.6205,0.6062,0.6158,0.6219,0.6323,0.6444,0.6632,0.6872,0.6892,0.7042,0.7291,0.7238,0.7238,0.7381,0.7307,0.7251,0.7276,0.7251,0.7201,0.7188,0.6992,0.6985,0.711,0.7015,0.6946,0.6897,0.6897,0.6949,0.7051,0.7134,0.7146,0.712,0.6956,0.6848,0.676,0.6583,0.6362,0.6239,0.6255,0.6258,0.6253,0.6376,0.656,0.6723,0.6866,0.698,0.7185,0.7338,0.7388,0.7338,0.7288,0.7235,0.7185,0.6989,0.6989,0.7039,0.6989,0.6889,0.6892,0.6898,0.6865,0.6858,0.6796,0.6878,0.6814,0.6712,0.6662,0.6567,0.655,0.6489,0.6487,0.6487,0.6537,0.6539,0.6487,0.6437,0.6437,0.6537,0.6539,0.6489,0.6437,0.6387,0.6387,0.6387,0.6387,0.6387,0.6387,0.6387,0.292,0.292,0.292,0.292,0.292,0.292,0.3051,0.3275,0.332,0.3588,0.3944,0.3989,0.4121,0.4297,0.4297,0.4297,0.4344,0.4567,0.4699,0.4788,0.5193,0.5544,0.5786,0.6072,0.6154,0.6119,0.626,0.6257,0.6157,0.6157,0.6184,0.6236,0.6255,0.6429,0.6581,0.6642,0.6739,0.6989,0.6939,0.6936,0.7188,0.7089,0.7042,0.7042,0.7042,0.6992,0.6839,0.6689,0.6655,0.6747,0.6732,0.6732,0.6732,0.6732,0.6816,0.6833,0.6836,0.6836,0.6839,0.6739,0.6608,0.655,0.6388,0.6276,0.6203,0.62,0.6225,0.6229,0.6236,0.6382,0.6536,0.6603,0.6684,0.6786,0.6886,0.6886,0.6992,0.7039,0.6989,0.6889,0.6736,0.6689,0.6839,0.6689,0.6639,0.6642,0.6642,0.6573,0.6555,0.6467,0.6398,0.6494,0.6513,0.6475,0.6506,0.6442,0.6437,0.6437,0.6387,0.6387,0.6387,0.6387,0.6387,0.6387,0.6387,0.6387,0.6387,0.6387,0.6387,0.6387,0.6387,0.6387,0.6387,0.6387,0.6387,0.292,0.292,0.292,0.292,0.292,0.292,0.2918,0.292,0.2964,0.3187,0.3454,0.3544,0.3721,0.4166,0.3987,0.4121,0.4121,0.4166,0.43,0.4433,0.4743,0.5114,0.5417,0.595,0.6072,0.6094,0.6309,0.6303,0.6293,0.6255,0.6312,0.6323,0.629,0.6344,0.642,0.6437,0.6539,0.6692,0.6589,0.6686,0.6939,0.6839,0.6742,0.6742,0.6742,0.6692,0.6539,0.6437,0.6431,0.6434,0.6387,0.6426,0.6429,0.6434,0.6434,0.6431,0.6487,0.6487,0.6437,0.6487,0.6437,0.6423,0.6426,0.6399,0.632,0.635,0.6314,0.629,0.6333,0.6391,0.6401,0.6434,0.6437,0.6487,0.6437,0.6539,0.6692,0.6745,0.6692,0.6439,0.6387,0.6387,0.6387,0.6387,0.6437,0.6489,0.6489,0.6503,0.6472,0.6453,0.6389,0.64,0.6406,0.6395,0.6439,0.6439,0.6437,0.6387,0.6387,0.6387,0.6387,0.6387,0.6387,0.6387,0.6387,0.6387,0.6387,0.6387,0.6387,0.6387,0.6387,0.6387,0.6387,0.6387,0.6387,0.292,0.292,0.292,0.292,0.292,0.292,0.292,0.292,0.292,0.2963,0.3053,0.3053,0.3142,0.323,0.3275,0.3187,0.332,0.3587,0.3942,0.43,0.4387,0.4478,0.4833,0.556,0.598,0.6009,0.6238,0.6241,0.6101,0.6238,0.6312,0.6203,0.6344,0.636,0.6381,0.6387,0.6437,0.6489,0.6437,0.6437,0.6587,0.6589,0.6539,0.6539,0.6489,0.6489,0.6437,0.6387,0.6387,0.6387,0.6387,0.6387,0.6387,0.6387,0.6387,0.6387,0.6387,0.6387,0.6387,0.6387,0.6387,0.6387,0.6387,0.6429,0.6412,0.6415,0.6376,0.6401,0.6352,0.6393,0.6365,0.6384,0.6384,0.6381,0.6387,0.6437,0.6489,0.6489,0.6439,0.6437,0.6387,0.6387,0.6387,0.6387,0.6387,0.6387,0.6387,0.6387,0.6387,0.6387,0.6387,0.6387,0.6387,0.6387,0.6387,0.6387,0.6387,0.6387,0.6387,0.6387,0.6387,0.6387,0.6387,0.6387,0.6387,0.6387,0.6387,0.6387,0.6387,0.6387,0.6387,0.6387,0.6387,0.6387,0.6137,0.292,0.292,0.292,0.292,0.292,0.292,0.292,0.292,0.292,0.292,0.292,0.292,0.292,0.292,0.292,0.292,0.2964,0.3142,0.3497,0.3864,0.4019,0.4115,0.4398,0.4969,0.5396,0.5348,0.5799,0.5899,0.5917,0.6113,0.6325,0.6263,0.633,0.6376,0.6387,0.6387,0.6387,0.6437,0.6387,0.6387,0.6387,0.6387,0.6387,0.6387,0.6387,0.6387,0.6387,0.6387,0.6387,0.6387,0.6387,0.6387,0.6387,0.6387,0.6387,0.6387,0.6387,0.6387,0.6387,0.6387,0.6387,0.6387,0.6387,0.6387,0.6387,0.6387,0.6387,0.6373,0.6388,0.6358,0.6358,0.6358,0.6374,0.6381,0.6387,0.6387,0.6387,0.6387,0.6387,0.6387,0.6387,0.6387,0.6387,0.6387,0.6387,0.6387,0.6387,0.6387,0.6387,0.6387,0.6387,0.6387,0.6387,0.6387,0.6387,0.6387,0.6387,0.6387,0.6387,0.6387,0.6387,0.6387,0.6387,0.6387,0.6387,0.6387,0.6387,0.6387,0.6387,0.6387,0.6387,0.6387,0.6387,0.6337,0.5937,0.292,0.292,0.292,0.292,0.292,0.292,0.292,0.292,0.292,0.292,0.292,0.292,0.292,0.292,0.292,0.292,0.292,0.292,0.3187,0.3461,0.3545,0.3683,0.4021,0.4227,0.4415,0.445,0.5143,0.5444,0.5563,0.5912,0.5986,0.6182,0.6274,0.6284,0.6337,0.6387,0.6387,0.6387,0.6387,0.6387,0.6387,0.6387,0.6387,0.6387,0.6387,0.6387,0.6387,0.6387,0.6387,0.6387,0.6387,0.6387,0.6387,0.6387,0.6387,0.6387,0.6387,0.6387,0.6387,0.6387,0.6387,0.6387,0.6387,0.6387,0.6387,0.6387,0.6337,0.6211,0.6077,0.5922,0.603,0.5922,0.6012,0.6061,0.6137,0.6187,0.6237,0.6287,0.6237,0.6387,0.6387,0.6387,0.6387,0.6387,0.6387,0.6387,0.6387,0.6387,0.6387,0.6387,0.6387,0.6387,0.6387,0.6387,0.6387,0.6387,0.6387,0.6387,0.6387,0.6387,0.6387,0.6387,0.6387,0.6387,0.6387,0.6387,0.6387,0.6387,0.6387,0.6387,0.6387,0.6387,0.6337,0.6284,0.5684,0.292,0.292,0.292,0.292,0.292,0.292,0.292,0.292,0.292,0.292,0.292,0.292,0.292,0.292,0.292,0.292,0.292,0.292,0.2964,0.3054,0.3079,0.322,0.3307,0.3463,0.3449,0.3649,0.4337,0.4806,0.485,0.4993,0.5403,0.556,0.5706,0.5882,0.6184,0.6387,0.6337,0.6337,0.6387,0.6387,0.6387,0.6387,0.6387,0.6387,0.6387,0.6387,0.6387,0.6387,0.6387,0.6387,0.6387,0.6387,0.6337,0.6337,0.6337,0.6387,0.6387,0.6387,0.6387,0.6387,0.6387,0.6387,0.6337,0.6337,0.6337,0.6326,0.6056,0.57,0.5338,0.5066,0.5001,0.5132,0.5101,0.5129,0.5284,0.5386,0.5684,0.5884,0.5984,0.6237,0.6337,0.6387,0.6387,0.6387,0.6387,0.6387,0.6387,0.6387,0.6387,0.6387,0.6387,0.6387,0.6387,0.6387,0.6387,0.6387,0.6387,0.6387,0.6387,0.6387,0.6387,0.6387,0.6387,0.6387,0.6387,0.6387,0.6387,0.6387,0.6387,0.6387,0.6387,0.6387,0.6237,0.6037,0.5233,0.292,0.292,0.292,0.292,0.292,0.292,0.292,0.292,0.292,0.292,0.292,0.292,0.292,0.292,0.292,0.292,0.292,0.292,0.292,0.2922,0.2949,0.2954,0.2941,0.2999,0.3063,0.3189,0.3647,0.4086,0.4266,0.4618,0.4831,0.5044,0.515,0.5334,0.5584,0.5837,0.5934,0.6034,0.6234,0.6387,0.6387,0.6387,0.6387,0.6387,0.6387,0.6387,0.6387,0.6387,0.6387,0.6337,0.6137,0.6034,0.5937,0.5787,0.5837,0.6237,0.6387,0.6387,0.6387,0.6387,0.6284,0.6037,0.5987,0.5837,0.5667,0.5487,0.5394,0.5143,0.4938,0.4655,0.4738,0.4657,0.4741,0.4866,0.4985,0.5233,0.5534,0.5787,0.5887,0.5987,0.6187,0.6287,0.6387,0.6387,0.6387,0.6387,0.6387,0.6387,0.6387,0.6387,0.6387,0.6387,0.6387,0.6387,0.6387,0.6387,0.6387,0.6387,0.6387,0.6387,0.6387,0.6387,0.6387,0.6387,0.6387,0.6387,0.6387,0.6387,0.6387,0.6387,0.6387,0.6337,0.6087,0.5687,0.4832,0.292,0.292,0.292,0.292,0.292,0.292,0.292,0.292,0.292,0.292,0.292,0.292,0.292,0.292,0.292,0.292,0.292,0.292,0.292,0.2926,0.2956,0.296,0.2946,0.2989,0.3031,0.3034,0.3113,0.3284,0.3667,0.4051,0.4388,0.455,0.4638,0.4734,0.4933,0.5284,0.5384,0.5584,0.5934,0.6237,0.6237,0.6237,0.6137,0.6187,0.6287,0.6337,0.5984,0.6137,0.6037,0.5937,0.5687,0.5436,0.5386,0.5035,0.5236,0.5887,0.6087,0.6087,0.6037,0.6037,0.5784,0.5484,0.5436,0.5186,0.4914,0.4804,0.457,0.4516,0.4295,0.4143,0.4173,0.4286,0.4287,0.4415,0.4718,0.5135,0.5186,0.5336,0.5434,0.5634,0.5934,0.6037,0.6037,0.6387,0.6387,0.6387,0.6387,0.6387,0.6387,0.6387,0.6387,0.6387,0.6387,0.6387,0.6387,0.6387,0.6387,0.6387,0.6387,0.6387,0.6387,0.6387,0.6387,0.6387,0.6387,0.6387,0.6387,0.6387,0.6387,0.6387,0.6387,0.6337,0.6187,0.5284,0.413,0.292,0.292,0.292,0.292,0.292,0.292,0.292,0.292,0.292,0.292,0.292,0.292,0.292,0.292,0.292,0.292,0.292,0.292,0.292,0.2879,0.2933,0.2956,0.2975,0.2949,0.2864,0.2897,0.2933,0.2983,0.3143,0.3283,0.3602,0.3942,0.4086,0.4284,0.4583,0.4784,0.4885,0.4983,0.5434,0.5682,0.5677,0.5679,0.5486,0.5434,0.5734,0.5934,0.5334,0.5486,0.5536,0.5133,0.4983,0.4885,0.4885,0.4885,0.4834,0.4935,0.4985,0.4983,0.5085,0.5186,0.5085,0.4931,0.4876,0.4832,0.4525,0.4175,0.3938,0.3916,0.356,0.3385,0.3441,0.3312,0.3315,0.3509,0.3801,0.4073,0.4282,0.4935,0.5033,0.4983,0.5233,0.5434,0.5484,0.5987,0.6387,0.6387,0.6387,0.6337,0.6237,0.6137,0.6087,0.5987,0.5937,0.5987,0.5937,0.6037,0.6087,0.6137,0.6187,0.6187,0.6237,0.6237,0.6387,0.6387,0.6387,0.6387,0.6387,0.6387,0.6387,0.6387,0.6387,0.6387,0.6387,0.5081,0.3575,0.292,0.292,0.292,0.292,0.292,0.292,0.292,0.292,0.292,0.292,0.292,0.292,0.292,0.292,0.292,0.292,0.292,0.292,0.292,0.2875,0.2876,0.2888,0.2951,0.2916,0.284,0.2453,0.2646,0.2671,0.266,0.2851,0.3286,0.3449,0.3495,0.3632,0.387,0.4182,0.4334,0.4485,0.483,0.5103,0.5081,0.5103,0.4983,0.4784,0.5236,0.5085,0.4883,0.4985,0.5083,0.4734,0.4583,0.4334,0.4232,0.4081,0.3882,0.3882,0.3882,0.4183,0.4684,0.4732,0.4582,0.4364,0.4285,0.4123,0.3818,0.3531,0.3338,0.3287,0.3116,0.2992,0.3015,0.3084,0.3093,0.3189,0.3339,0.3565,0.3932,0.4332,0.4684,0.4583,0.4533,0.4684,0.4834,0.5135,0.5486,0.5636,0.5586,0.5534,0.5436,0.5336,0.5336,0.5336,0.5336,0.5336,0.5336,0.5334,0.5334,0.5384,0.5384,0.5484,0.5834,0.5934,0.5934,0.6184,0.6287,0.6337,0.6337,0.6387,0.6387,0.6387,0.6387,0.6087,0.5634,0.4529,0.3022,0.292,0.292,0.292,0.292,0.292,0.292,0.292,0.292,0.292,0.292,0.292,0.292,0.292,0.292,0.292,0.292,0.292,0.292,0.292,0.2875,0.2739,0.2606,0.248,0.2456,0.2044,0.157,0.1951,0.2018,0.1948,0.2117,0.25,0.2836,0.2553,0.255,0.2694,0.2857,0.3069,0.3344,0.3492,0.3669,0.3792,0.3871,0.3804,0.387,0.4028,0.4078,0.3877,0.3925,0.3925,0.3575,0.3274,0.2973,0.2922,0.2671,0.2521,0.2521,0.2521,0.2812,0.3459,0.3807,0.4069,0.3889,0.3491,0.3172,0.2806,0.2634,0.2568,0.2569,0.2297,0.2496,0.2847,0.2908,0.2918,0.3121,0.3428,0.3656,0.3781,0.3932,0.4033,0.3982,0.3934,0.3984,0.4083,0.4234,0.4485,0.4784,0.4782,0.4734,0.4734,0.4734,0.4834,0.4935,0.4985,0.4985,0.4935,0.4832,0.4784,0.4582,0.4582,0.4782,0.5133,0.5181,0.5131,0.5482,0.5782,0.5429,0.4926,0.5632,0.6287,0.5937,0.5586,0.5183,0.4582,0.3525,0.2469,0.292,0.292,0.292,0.292,0.292,0.292,0.292,0.292,0.292,0.2875,0.2875,0.2875,0.283,0.2784,0.2648,0.2648,0.2785,0.2875,0.2694,0.2469,0.2244,0.193,0.1754,0.1395,0.099,0.0808,0.1128,0.1094,0.0876,0.1021,0.1506,0.1913,0.1576,0.1225,0.1228,0.1542,0.1741,0.1928,0.1874,0.1824,0.2013,0.2071,0.1887,0.1657,0.2014,0.2165,0.126,0.1813,0.2013,0.1611,0.1562,0.1462,0.1562,0.1462,0.1412,0.1412,0.1361,0.1552,0.1935,0.2639,0.3138,0.2997,0.2604,0.2174,0.1985,0.1338,0.1327,0.1755,0.1526,0.1706,0.2186,0.2505,0.2369,0.2509,0.2756,0.2951,0.307,0.3179,0.3279,0.3281,0.3381,0.3533,0.3533,0.3732,0.3932,0.4232,0.4332,0.4282,0.4384,0.4435,0.4533,0.4634,0.4684,0.4684,0.4634,0.4431,0.3929,0.3676,0.3575,0.3977,0.4429,0.4379,0.3974,0.4175,0.4325,0.3922,0.377,0.4524,0.5029,0.4933,0.4682,0.4228,0.3475,0.2469,0.1513,0.292,0.292,0.292,0.292,0.292,0.292,0.292,0.292,0.292,0.2785,0.2649,0.2649,0.2242,0.1702,0.1522,0.1388,0.1164,0.1119,0.1344,0.1435,0.1256,0.1122,0.0987,0.0762,0.0493,0.0224,0.0404,0.0408,0.0139,0.0092,0.0232,0.0471,0.0626,0.0924,0.088,0.069,0.0837,0.0928,0.0933,0.0942,0.0983,0.1141,0.1051,0.0906,0.1008,0.126,0.0907,0.1008,0.0957,0.0806,0.0706,0.0655,0.0605,0.0655,0.0655,0.0654,0.0654,0.0697,0.0785,0.1426,0.171,0.1666,0.1408,0.1253,0.1186,0.0818,0.0815,0.0944,0.0852,0.1031,0.1263,0.138,0.1362,0.1624,0.19,0.214,0.2311,0.242,0.2623,0.2675,0.2978,0.3281,0.3281,0.3281,0.3481,0.3682,0.3781,0.3831,0.3932,0.3882,0.388,0.3778,0.3778,0.3476,0.3376,0.3173,0.2972,0.2821,0.2619,0.292,0.3171,0.2767,0.2515,0.2717,0.2918,0.2667,0.2816,0.3419,0.3671,0.3574,0.3423,0.3172,0.2318,0.1361,0.0706,0.292,0.292,0.292,0.292,0.292,0.292,0.292,0.292,0.292,0.2558,0.2108,0.1972,0.1343,0.0537,0.0268,0.0179,0.0045,0.0089,0.0179,0.0224,0.0224,0.0179,0.009,-0.0135,-0.0538,-0.0583,-0.0314,-0.0272,-0.0594,-0.0687,-0.0595,-0.0414,-0.0139,0.0047,0.0095,0.0146,0.0145,0.0096,0.0096,0.0098,0.0048,0.0049,0.0049,0.0,0.0,0.0,-0.01,-0.01,-0.005,-0.005,-0.005,0.0,0.005,0.005,0.005,0.01,0.01,0.0148,0.0243,0.0672,0.0809,0.098,0.0552,0.0455,0.036,0.0224,0.0,0.0314,0.0224,0.0224,0.045,0.0645,0.0752,0.1053,0.1178,0.1403,0.1508,0.1664,0.1917,0.2118,0.2321,0.2321,0.227,0.2219,0.2774,0.3077,0.343,0.3481,0.343,0.3279,0.2925,0.2773,0.2572,0.2218,0.1815,0.1865,0.1914,0.1813,0.1612,0.1511,0.1561,0.1208,0.1259,0.1662,0.1712,0.1511,0.141,0.146,0.1813,0.2115,0.1914,0.1663,0.121,0.0353,0.0303,0.292,0.292,0.292,0.292,0.292,0.292,0.292,0.2875,0.2875,0.2242,0.1298,0.0985,0.0224,-0.0537,-0.0805,-0.0939,-0.0939,-0.0626,-0.0492,-0.0806,-0.0986,-0.1076,-0.1256,-0.1524,-0.1569,-0.1436,-0.1211,-0.1168,-0.135,-0.1218,-0.1262,-0.1262,-0.0997,-0.0999,-0.1264,-0.138,-0.1391,-0.1391,-0.1305,-0.1217,-0.1177,-0.1099,-0.1106,-0.1063,-0.1073,-0.1031,-0.1031,-0.1031,-0.1037,-0.1046,-0.1099,-0.11,-0.115,-0.1201,-0.1195,-0.123,-0.1326,-0.1351,-0.1261,0.0,0.0462,0.0414,-0.0136,-0.0315,-0.0494,-0.0762,-0.0897,-0.0448,-0.0762,-0.0494,-0.0136,0.0139,0.0188,0.024,0.0345,0.055,0.0651,0.0857,0.1059,0.1462,0.1159,0.0907,0.0907,0.1109,0.1866,0.2422,0.2978,0.3079,0.2826,0.2522,0.2068,0.1917,0.1714,0.1311,0.1009,0.0857,0.0857,0.0756,0.0554,0.0353,0.0252,0.0101,0.0252,0.0605,0.0353,0.0,-0.0454,-0.0808,-0.0101,0.0554,0.0303,0.0,-0.0353,-0.0404,-0.0353,0.292,0.292,0.292,0.292,0.292,0.292,0.292,0.2875,0.2649,0.1927,0.0985,0.0582,-0.0582,-0.1656,-0.2148,-0.2238,-0.2462,-0.2552,-0.2506,-0.2149,-0.224,-0.2285,-0.2374,-0.2465,-0.251,-0.2331,-0.2153,-0.193,-0.1931,-0.166,-0.1436,-0.1391,-0.1391,-0.1391,-0.1405,-0.1476,-0.1457,-0.1489,-0.1452,-0.1465,-0.151,-0.1471,-0.1476,-0.1476,-0.1534,-0.1541,-0.1542,-0.1541,-0.155,-0.1513,-0.1564,-0.1564,-0.1563,-0.1563,-0.1555,-0.1543,-0.154,-0.1524,-0.1439,-0.0871,-0.0726,-0.0724,-0.0767,-0.0987,-0.1122,-0.1211,-0.1211,-0.1122,-0.1214,-0.0994,-0.0965,-0.0866,-0.0878,-0.0961,-0.0836,-0.0495,-0.0249,-0.005,0.0202,0.0756,0.0806,0.0655,0.0605,0.0303,0.0807,0.1109,0.1513,0.1765,0.1613,0.1513,0.121,0.121,0.1008,0.0555,0.0252,0.0101,-0.0202,-0.0404,-0.0656,-0.0908,-0.106,-0.0909,-0.0858,-0.0505,-0.101,-0.1516,-0.1414,-0.1313,-0.1263,-0.1061,-0.0909,-0.0758,-0.0707,-0.0707,-0.0657,0.292,0.292,0.292,0.292,0.292,0.292,0.292,0.283,0.2513,0.1568,0.0358,-0.0134,-0.1388,-0.2865,-0.3403,-0.3494,-0.381,-0.3631,-0.3674,-0.3314,-0.3181,-0.3092,-0.3092,-0.3136,-0.2957,-0.2868,-0.2689,-0.2466,-0.2422,-0.193,-0.1615,-0.1436,-0.1391,-0.1391,-0.1402,-0.1422,-0.148,-0.1468,-0.1476,-0.1438,-0.1443,-0.1498,-0.1502,-0.1498,-0.1502,-0.151,-0.151,-0.1512,-0.1515,-0.1473,-0.1477,-0.1477,-0.1477,-0.1477,-0.1473,-0.1515,-0.145,-0.1485,-0.1416,-0.1405,-0.1215,-0.1258,-0.1391,-0.1391,-0.1391,-0.1391,-0.1391,-0.1348,-0.1397,-0.1414,-0.1426,-0.141,-0.1499,-0.156,-0.1429,-0.1042,-0.0949,-0.0756,-0.0656,-0.0101,0.0101,0.0101,0.0101,-0.0101,-0.0202,-0.0101,-0.005,0.0252,0.0554,0.0454,0.0353,0.0353,0.0151,-0.0303,-0.0606,-0.0757,-0.1111,-0.1516,-0.1566,-0.1566,-0.1566,-0.1263,-0.1465,-0.1566,-0.1566,-0.1566,-0.1566,-0.1516,-0.1465,-0.1414,-0.1313,-0.1162,-0.1061,-0.096,-0.0859,0.292,0.292,0.292,0.292,0.292,0.2875,0.2875,0.283,0.2379,0.112,-0.0671,-0.1074,-0.2283,-0.3894,-0.4253,-0.4208,-0.4166,-0.3855,-0.3898,-0.3987,-0.3764,-0.3674,-0.363,-0.3587,-0.3449,-0.3179,-0.2911,-0.2868,-0.2823,-0.2153,-0.1705,-0.148,-0.1391,-0.1391,-0.1395,-0.1399,-0.1403,-0.1403,-0.1404,-0.1409,-0.1412,-0.1468,-0.1466,-0.1463,-0.1468,-0.1477,-0.1479,-0.148,-0.1493,-0.1505,-0.1517,-0.1518,-0.1473,-0.1475,-0.1504,-0.1481,-0.1453,-0.1401,-0.1397,-0.1392,-0.1391,-0.1391,-0.1391,-0.1391,-0.1391,-0.1391,-0.1391,-0.1396,-0.1448,-0.1468,-0.148,-0.1513,-0.1546,-0.1575,-0.1593,-0.1453,-0.146,-0.1415,-0.1415,-0.1263,-0.1212,-0.1161,-0.106,-0.1161,-0.0909,-0.0959,-0.0808,-0.0555,-0.0303,-0.0353,-0.0454,-0.0505,-0.0808,-0.1263,-0.1465,-0.1313,-0.1364,-0.1566,-0.1566,-0.1566,-0.1566,-0.1566,-0.1566,-0.1566,-0.1566,-0.1566,-0.1566,-0.1566,-0.1566,-0.1516,-0.1465,-0.1465,-0.1313,-0.1111,-0.1061,0.292,0.292,0.292,0.292,0.2875,0.2694,0.2604,0.256,0.2109,0.0851,-0.0984,-0.1297,-0.2543,-0.4208,-0.4297,-0.4295,-0.4249,-0.4166,-0.4164,-0.4162,-0.4109,-0.4072,-0.4076,-0.4032,-0.3985,-0.3807,-0.354,-0.3181,-0.2778,-0.2153,-0.166,-0.1436,-0.1391,-0.1391,-0.1391,-0.1391,-0.1391,-0.1391,-0.1391,-0.1391,-0.1391,-0.1447,-0.1442,-0.1399,-0.14,-0.1453,-0.1453,-0.1452,-0.1461,-0.1463,-0.1418,-0.1416,-0.1416,-0.1416,-0.1407,-0.1405,-0.1395,-0.1391,-0.1391,-0.1391,-0.1391,-0.1391,-0.1391,-0.1391,-0.1391,-0.1391,-0.1391,-0.1397,-0.1453,-0.147,-0.1493,-0.1526,-0.1564,-0.1592,-0.1603,-0.1603,-0.1611,-0.1566,-0.1566,-0.1566,-0.1566,-0.1566,-0.1566,-0.1516,-0.1313,-0.1465,-0.1465,-0.1161,-0.101,-0.101,-0.101,-0.1111,-0.1212,-0.1566,-0.1566,-0.1465,-0.1516,-0.1566,-0.1566,-0.1566,-0.1566,-0.1566,-0.1566,-0.1566,-0.1566,-0.1566,-0.1566,-0.1566,-0.1566,-0.1566,-0.1566,-0.1566,-0.1566,-0.1364,-0.1263,0.2853,0.2918,0.292,0.2906,0.2791,0.246,0.2144,0.1796,0.1456,0.0177,-0.1502,-0.1854,-0.2774,-0.3978,-0.422,-0.4224,-0.4183,-0.4136,-0.4193,-0.424,-0.4255,-0.4231,-0.4283,-0.4297,-0.4253,-0.4121,-0.3853,-0.3451,-0.2957,-0.2242,-0.1705,-0.1391,-0.1391,-0.1391,-0.1391,-0.1391,-0.1391,-0.1391,-0.1391,-0.1391,-0.1391,-0.1391,-0.1391,-0.1391,-0.1391,-0.1391,-0.1391,-0.1391,-0.1391,-0.1391,-0.1391,-0.1391,-0.1392,-0.1392,-0.1392,-0.1392,-0.1391,-0.1391,-0.1391,-0.1391,-0.1391,-0.1391,-0.1391,-0.1391,-0.1391,-0.1391,-0.1391,-0.1394,-0.1453,-0.147,-0.1498,-0.1528,-0.1569,-0.1609,-0.1605,-0.16,-0.1607,-0.1565,-0.1566,-0.1566,-0.1566,-0.1566,-0.1566,-0.1566,-0.1566,-0.1566,-0.1566,-0.1465,-0.1364,-0.1364,-0.1364,-0.1414,-0.1465,-0.1566,-0.1566,-0.1566,-0.1566,-0.1566,-0.1566,-0.1566,-0.1566,-0.1566,-0.1566,-0.1566,-0.1566,-0.1566,-0.1566,-0.1566,-0.1566,-0.1566,-0.1566,-0.1566,-0.1566,-0.1516,-0.1465,0.2812,0.2856,0.2904,0.2822,0.2685,0.221,0.1517,0.0673,0.0428,-0.0691,-0.216,-0.2596,-0.3129,-0.3923,-0.413,-0.412,-0.4051,-0.4037,-0.4112,-0.4208,-0.4233,-0.4264,-0.4263,-0.4295,-0.4297,-0.4166,-0.3942,-0.363,-0.3317,-0.2645,-0.1973,-0.148,-0.1525,-0.1525,-0.1436,-0.1391,-0.1391,-0.1391,-0.1391,-0.1391,-0.1391,-0.1391,-0.1391,-0.1391,-0.1391,-0.1391,-0.1391,-0.1391,-0.1391,-0.1391,-0.1391,-0.1391,-0.1391,-0.1391,-0.1391,-0.1391,-0.1391,-0.1391,-0.1391,-0.1391,-0.1391,-0.1391,-0.1391,-0.1391,-0.1391,-0.1391,-0.1391,-0.1392,-0.145,-0.1469,-0.1495,-0.1524,-0.1562,-0.1594,-0.1603,-0.1605,-0.1612,-0.1566,-0.1566,-0.1566,-0.1566,-0.1566,-0.1566,-0.1566,-0.1566,-0.1566,-0.1566,-0.1566,-0.1566,-0.1566,-0.1566,-0.1566,-0.1566,-0.1566,-0.1566,-0.1566,-0.1566,-0.1566,-0.1566,-0.1566,-0.1566,-0.1566,-0.1566,-0.1566,-0.1566,-0.1566,-0.1566,-0.1566,-0.1566,-0.1566,-0.1566,-0.1566,-0.1566,-0.1566,-0.1566,0.2807,0.2736,0.2736,0.2641,0.2459,0.2149,0.1007,-0.0544,-0.0745,-0.1458,-0.2446,-0.2704,-0.3118,-0.3901,-0.4006,-0.4,-0.3984,-0.3956,-0.4,-0.4085,-0.412,-0.4206,-0.426,-0.4263,-0.4287,-0.4297,-0.4076,-0.3719,-0.3181,-0.2734,-0.2287,-0.1615,-0.1749,-0.1884,-0.157,-0.1525,-0.148,-0.1525,-0.148,-0.1436,-0.1391,-0.1391,-0.1391,-0.1391,-0.1391,-0.1391,-0.1391,-0.1391,-0.1391,-0.1391,-0.1391,-0.1391,-0.1391,-0.1391,-0.1391,-0.1391,-0.1391,-0.1436,-0.148,-0.148,-0.148,-0.148,-0.148,-0.1436,-0.1391,-0.1391,-0.1436,-0.1438,-0.1402,-0.1467,-0.1493,-0.1523,-0.1553,-0.158,-0.1604,-0.1611,-0.1566,-0.1566,-0.1566,-0.1566,-0.1566,-0.1566,-0.1566,-0.1566,-0.1566,-0.1566,-0.1566,-0.1566,-0.1566,-0.1566,-0.1566,-0.1566,-0.1566,-0.1566,-0.1566,-0.1566,-0.1566,-0.1566,-0.1566,-0.1566,-0.1566,-0.1566,-0.1566,-0.1566,-0.1566,-0.1566,-0.1566,-0.1566,-0.1566,-0.1566,-0.1566,-0.1566,-0.1566,-0.1566,-0.1566,0.2699,0.2688,0.2579,0.2443,0.2233,0.1556,0.0366,-0.0852,-0.1526,-0.2294,-0.3057,-0.3205,-0.3458,-0.3897,-0.3913,-0.3905,-0.393,-0.3912,-0.3936,-0.3983,-0.4036,-0.4102,-0.4157,-0.422,-0.4265,-0.4283,-0.3983,-0.3583,-0.3045,-0.2868,-0.251,-0.2107,-0.2377,-0.2377,-0.2017,-0.1884,-0.1749,-0.175,-0.1749,-0.166,-0.1525,-0.1436,-0.1391,-0.1391,-0.1391,-0.1391,-0.1391,-0.1391,-0.1391,-0.1391,-0.1391,-0.1391,-0.1391,-0.1391,-0.1391,-0.1391,-0.1436,-0.148,-0.1615,-0.1615,-0.1659,-0.1838,-0.1794,-0.1839,-0.2196,-0.2196,-0.1793,-0.175,-0.1437,-0.1455,-0.1496,-0.153,-0.1563,-0.1592,-0.1606,-0.1564,-0.1566,-0.1566,-0.1566,-0.1566,-0.1566,-0.1566,-0.1566,-0.1566,-0.1566,-0.1617,-0.1617,-0.1566,-0.1566,-0.1566,-0.1566,-0.1566,-0.1566,-0.1566,-0.1566,-0.1566,-0.1566,-0.1566,-0.1566,-0.1566,-0.1566,-0.1566,-0.1566,-0.1566,-0.1566,-0.1566,-0.1566,-0.1566,-0.1566,-0.1566,-0.1566,-0.1566,-0.1566,-0.1566,-0.1566,0.2634,0.2669,0.2409,0.2267,0.2057,0.0871,-0.0157,-0.102,-0.204,-0.2984,-0.3667,-0.3774,-0.3866,-0.3857,-0.3874,-0.3847,-0.3837,-0.3853,-0.3878,-0.3911,-0.3908,-0.3991,-0.4126,-0.4204,-0.4228,-0.4188,-0.3985,-0.3585,-0.309,-0.3136,-0.3181,-0.3001,-0.2956,-0.2956,-0.2777,-0.2556,-0.2243,-0.2287,-0.2198,-0.2018,-0.1794,-0.1525,-0.148,-0.148,-0.1391,-0.1391,-0.1391,-0.1391,-0.1391,-0.1615,-0.1704,-0.1794,-0.1793,-0.1838,-0.1793,-0.1793,-0.1838,-0.2018,-0.2108,-0.1973,-0.2241,-0.2465,-0.2377,-0.2466,-0.2823,-0.2689,-0.2285,-0.2061,-0.1793,-0.1676,-0.1724,-0.1721,-0.1759,-0.184,-0.1802,-0.1818,-0.1819,-0.1819,-0.1819,-0.1819,-0.1768,-0.1768,-0.1819,-0.1819,-0.1667,-0.1667,-0.1617,-0.1617,-0.1566,-0.1566,-0.1566,-0.1566,-0.1566,-0.1566,-0.1566,-0.1566,-0.1566,-0.1566,-0.1566,-0.1566,-0.1566,-0.1566,-0.1566,-0.1566,-0.1566,-0.1566,-0.1566,-0.1566,-0.1566,-0.1566,-0.1566,-0.1566,-0.1566,-0.1566,-0.1566,0.2608,0.2572,0.2313,0.2135,0.1818,0.0746,-0.0274,-0.1293,-0.2156,-0.2979,-0.3649,-0.3812,-0.3812,-0.3802,-0.3814,-0.381,-0.3812,-0.3802,-0.3802,-0.3831,-0.3854,-0.3914,-0.4041,-0.4167,-0.4216,-0.418,-0.4121,-0.3898,-0.3539,-0.3762,-0.3628,-0.3045,-0.3406,-0.327,-0.2956,-0.2778,-0.2734,-0.2778,-0.2778,-0.2644,-0.251,-0.2196,-0.1794,-0.1615,-0.1391,-0.1391,-0.1391,-0.1391,-0.166,-0.2018,-0.2331,-0.242,-0.2465,-0.2419,-0.2419,-0.2374,-0.2374,-0.2555,-0.2599,-0.251,-0.2777,-0.2957,-0.2868,-0.2823,-0.3047,-0.3047,-0.2822,-0.2822,-0.2601,-0.256,-0.2575,-0.255,-0.256,-0.2646,-0.2672,-0.2708,-0.2726,-0.2726,-0.2726,-0.2575,-0.2423,-0.2524,-0.2676,-0.2424,-0.1918,-0.1868,-0.1717,-0.1667,-0.1566,-0.1566,-0.1566,-0.1566,-0.1566,-0.1566,-0.1566,-0.1566,-0.1566,-0.1566,-0.1566,-0.1566,-0.1566,-0.1566,-0.1566,-0.1566,-0.1566,-0.1566,-0.1566,-0.1566,-0.1566,-0.1566,-0.1566,-0.1566,-0.1566,-0.1566,-0.1566]}]]